[[{"header":{"parameterUnit":"m.s-1","parameterCategory":1,"la1":31.0,"la2":29.5877,"lo1":-88.7671,"lo2":-86.6584,"dx":0.0162,"dy":0.0185,"nx":115,"ny":88,"refTime":"2023-01-22T06:00:00:Z","depth":0,"parameterNumber":2,"parameterNumberName":"U-component_of_WINDS"},"data":[0.0,0.0,0.0,0.0,0.0,0.0,0.0,0.0,0.0,0.0,0.0,0.0,0.0,0.0,0.0,0.0,0.0,0.0,0.0,0.0,0.0,0.0,0.0,0.0,0.0,0.0,0.0,0.0,0.0,0.0,0.0,0.0,0.0,0.0,0.0,0.0,0.0,0.0,0.0,0.0,0.0,0.0,0.0,0.0,0.0,0.0,0.0,0.0,0.0,0.0,0.0,0.0,0.0,0.0,0.0,0.0,0.0,0.0,0.0,0.0,0.0,0.0,0.0,0.0,0.0,0.0,0.0,0.0,0.0,0.0,0.0,0.0,0.0,0.0,0.0,0.0,0.0,0.0,0.0,0.0,0.0,0.0,0.0,0.0,0.0,0.0,0.0,0.0,0.0,0.0,0.0,0.0,0.0,0.0,0.0,0.0,0.0,0.0,0.0,0.0,0.0,0.0,0.0,0.0,0.0,0.0,0.0,0.0,0.0,0.0,0.0,0.0,0.0,0.0,0.0,0.0,0.0,0.0,0.0,0.0,0.0,0.0,0.0,0.0,0.0,0.0,0.0,0.0,0.0,0.0,0.0,0.0,0.0,0.0,0.0,0.0,0.0,0.0,0.0,0.0,0.0,0.0,0.0,0.0,0.0,0.0,0.0,0.0,0.0,0.0,0.0,0.0,0.0,0.0,0.0,0.0,0.0,0.0,0.0,0.0,0.0,0.0,0.0,0.0,0.0,0.0,0.0,0.0,0.0,0.0,0.0,0.0,0.0,0.0,0.0,0.0,0.0,0.0,0.0,0.0,0.0,0.0,0.0,0.0,0.0,0.0,0.0,0.0,0.0,0.0,0.0,0.0,0.0,0.0,0.0,0.0,0.0,0.0,0.0,0.0,0.0,0.0,0.0,0.0,0.0,0.0,0.0,0.0,0.0,0.0,0.0,0.0,0.0,0.0,0.0,0.0,0.0,0.0,0.0,0.0,0.0,0.0,0.0,0.0,0.0,0.0,0.0,0.0,0.0,0.0,0.0,0.0,0.0,0.0,0.0,0.0,0.0,0.0,0.0,0.0,0.0,0.0,0.0,0.0,0.0,0.0,0.0,0.0,0.0,0.0,0.0,0.0,0.0,0.0,0.0,0.0,0.0,0.0,0.0,0.0,0.0,0.0,0.0,0.0,0.0,0.0,0.0,0.0,0.0,0.0,0.0,0.0,0.0,0.0,0.0,0.0,0.0,0.0,0.0,0.0,0.0,0.0,0.0,0.0,0.0,0.0,0.0,0.0,0.0,0.0,0.0,0.0,0.0,0.0,0.0,0.0,0.0,0.0,0.0,0.0,0.0,0.0,0.0,0.0,0.0,0.0,0.0,0.0,0.0,0.0,0.0,0.0,0.0,0.0,0.0,0.0,0.0,0.0,0.0,0.0,0.0,0.0,0.0,0.0,0.0,0.0,0.0,0.0,0.0,0.0,0.0,0.0,0.0,0.0,0.0,0.0,0.0,0.0,0.0,0.0,0.0,0.0,0.0,0.0,0.0,0.0,0.0,0.0,0.0,0.0,0.0,0.0,0.0,0.0,0.0,0.0,0.0,0.0,0.0,0.0,0.0,0.0,0.0,0.0,0.0,0.0,0.0,0.0,0.0,0.0,0.0,0.0,0.0,0.0,0.0,0.0,0.0,0.0,0.0,0.0,0.0,0.0,0.0,0.0,0.0,0.0,0.0,0.0,0.0,0.0,0.0,0.0,0.0,0.0,0.0,0.0,0.0,0.0,0.0,0.0,0.0,0.0,0.0,0.0,0.0,0.0,0.0,0.0,0.0,0.0,0.0,0.0,0.0,0.0,0.0,0.0,0.0,0.0,0.0,0.0,0.0,0.0,0.0,0.0,0.0,0.0,0.0,0.0,0.0,0.0,0.0,0.0,0.0,0.0,0.0,0.0,0.0,0.0,0.0,0.0,0.0,0.0,0.0,0.0,0.0,0.0,0.0,0.0,0.0,0.0,0.0,0.0,0.0,0.0,0.0,0.0,0.0,0.0,0.0,0.0,0.0,0.0,0.0,0.0,0.0,0.0,0.0,0.0,0.0,0.0,0.0,0.0,0.0,0.0,0.0,0.0,0.0,0.0,0.0,0.0,0.0,0.0,0.0,0.0,0.0,0.0,0.0,0.0,0.0,0.0,0.0,0.0,0.0,0.0,0.0,0.0,0.0,0.0,0.0,0.0,0.0,0.0,0.0,0.0,0.0,0.0,0.0,0.0,0.0,0.0,0.0,0.0,0.0,0.0,0.0,0.0,0.0,0.0,0.0,0.0,0.0,0.0,0.0,0.0,0.0,0.0,0.0,0.0,0.0,0.0,0.0,0.0,0.0,0.0,0.0,0.0,0.0,0.0,0.0,0.0,0.0,0.0,0.0,0.0,0.0,0.0,0.0,0.0,0.0,0.0,0.0,0.0,0.0,0.0,0.0,0.0,0.0,0.0,0.0,0.0,0.0,0.0,0.0,0.0,0.0,0.0,0.0,0.0,0.0,0.0,0.0,0.0,0.0,0.0,0.0,0.0,0.0,0.0,0.0,0.0,0.0,0.0,0.0,0.0,0.0,0.0,0.0,0.0,0.0,0.0,0.0,0.0,0.0,0.0,0.0,0.0,0.0,0.0,0.0,0.0,0.0,0.0,0.0,0.0,0.0,0.0,0.0,0.0,0.0,0.0,0.0,0.0,0.0,0.0,0.0,0.0,0.0,0.0,0.0,0.0,0.0,0.0,0.0,0.0,0.0,0.0,0.0,0.0,0.0,0.0,0.0,0.0,0.0,0.0,0.0,0.0,0.0,0.0,0.0,0.0,0.0,0.0,0.0,0.0,0.0,0.0,0.0,0.0,0.0,0.0,0.0,0.0,0.0,0.0,0.0,0.0,0.0,0.0,0.0,0.0,0.0,0.0,0.0,0.0,0.0,0.0,0.0,0.0,0.0,0.0,0.0,0.0,0.0,0.0,0.0,0.0,0.0,0.0,0.0,0.0,0.0,0.0,0.0,0.0,0.0,0.0,0.0,0.0,0.0,0.0,0.0,0.0,0.0,0.0,0.0,0.0,0.0,0.0,0.0,0.0,0.0,0.0,0.0,0.0,0.0,0.0,0.0,0.0,0.0,0.0,0.0,0.0,0.0,0.0,0.0,0.0,0.0,0.0,0.0,0.0,0.0,0.0,0.0,0.0,0.0,0.0,0.0,0.0,0.0,0.0,0.0,0.0,0.0,0.0,0.0,0.0,0.0,0.0,0.0,0.0,0.0,0.0,0.0,0.0,0.0,0.0,0.0,0.0,0.0,0.0,0.0,0.0,0.0,0.0,0.0,0.0,0.0,0.0,0.0,0.0,0.0,0.0,0.0,0.0,0.0,0.0,0.0,0.0,0.0,0.0,0.0,0.0,0.0,0.0,0.0,0.0,0.0,0.0,0.0,0.0,0.0,0.0,0.0,0.0,0.0,0.0,0.0,0.0,0.0,0.0,0.0,0.0,0.0,0.0,0.0,0.0,0.0,0.0,0.0,0.0,0.0,0.0,0.0,0.0,0.0,0.0,0.0,0.0,0.0,0.0,0.0,0.0,0.0,0.0,0.0,0.0,0.0,0.0,0.0,0.0,0.0,0.0,0.0,0.0,0.0,0.0,0.0,0.0,0.0,0.0,0.0,0.0,0.0,0.0,0.0,0.0,0.0,0.0,0.0,0.0,0.0,0.0,0.0,0.0,0.0,0.0,0.0,0.0,0.0,0.0,0.0,0.0,0.0,0.0,0.0,0.0,0.0,0.0,0.0,0.0,0.0,0.0,0.0,0.0,0.0,0.0,0.0,0.0,0.0,0.0,0.0,0.0,0.0,0.0,0.0,0.0,0.0,0.0,0.0,0.0,0.0,0.0,0.0,0.0,0.0,0.0,0.0,0.0,0.0,0.0,0.0,0.0,0.0,0.0,0.0,0.0,0.0,0.0,0.0,0.0,0.0,0.0,0.0,0.0,0.0,0.0,0.0,0.0,0.0,0.0,0.0,0.0,0.0,0.0,0.0,0.0,0.0,0.0,0.0,0.0,0.0,0.0,0.0,0.0,0.0,0.0,0.0,0.0,0.0,0.0,0.0,0.0,0.0,0.0,0.0,0.0,0.0,0.0,0.0,0.0,0.0,0.0,0.0,0.0,0.0,0.0,0.0,0.0,0.0,0.0,0.0,0.0,0.0,0.0,0.0,0.0,0.0,0.0,0.0,0.0,0.0,0.0,0.0,0.0,0.0,0.0,1.2441,0.0,0.0,0.0,0.0,0.0,0.0,0.0,0.0,0.0,0.0,0.0,0.0,0.0,0.0,0.0,0.0,0.0,0.0,0.0,0.0,0.0,0.0,0.0,0.0,0.0,0.0,0.0,0.0,0.0,0.0,0.0,0.0,0.0,0.0,0.0,0.0,0.0,0.0,0.0,0.0,0.0,0.0,0.0,0.0,0.0,0.0,0.0,0.0,0.0,0.0,0.0,0.0,0.0,0.0,0.0,0.0,0.0,0.0,0.0,0.0,0.0,0.0,0.0,0.0,0.0,0.0,0.0,0.0,0.0,0.0,0.0,0.0,0.0,0.0,0.0,0.0,0.0,0.0,0.0,0.0,0.0,0.0,0.0,0.0,0.0,0.0,0.0,0.0,0.0,0.0,0.0,0.0,0.0,0.0,0.0,0.0,0.0,0.0,0.0,0.0,0.0,0.0,0.0,0.0,0.0,0.0,0.0,0.0,0.0,0.0,1.3139,1.2743,1.2822,1.2854,1.2835,0.0,0.0,0.0,0.0,0.0,0.0,0.0,0.0,0.0,0.0,0.0,0.0,0.0,0.0,0.0,0.0,0.0,0.0,0.0,0.0,0.0,0.0,0.0,0.0,0.0,0.0,0.0,0.0,0.0,0.0,0.0,0.0,0.0,0.0,0.0,0.0,0.0,0.0,0.0,0.0,0.0,0.0,0.0,0.0,0.0,0.0,0.0,0.0,0.0,0.0,0.0,0.0,0.0,0.0,0.0,0.0,0.0,0.0,0.0,0.0,0.0,0.0,0.0,0.0,0.0,0.0,0.0,0.0,0.0,0.0,0.0,0.0,0.0,0.0,0.0,0.0,0.0,0.0,0.0,0.0,0.0,0.0,0.0,0.0,0.0,0.0,0.0,0.0,0.0,0.0,0.0,0.0,0.0,0.0,0.0,0.0,0.0,0.0,0.0,0.0,0.0,0.0,0.0,0.0,0.0,0.0,0.0,0.0,0.0,0.0,0.0,0.0,1.3266,1.3297,1.3199,0.0,0.0,0.0,0.0,0.0,0.0,0.0,0.0,0.0,0.0,0.0,0.0,0.0,0.0,0.0,0.0,0.0,0.0,0.0,0.0,0.0,0.0,0.0,0.0,0.0,0.0,0.0,0.0,0.0,0.0,0.0,0.0,0.0,0.0,0.0,0.0,0.0,0.0,0.0,0.0,0.0,0.0,0.0,0.0,0.0,0.0,0.0,0.0,0.0,0.0,0.0,0.0,0.0,0.0,0.0,0.0,0.0,0.0,0.0,0.0,0.0,0.0,0.0,0.0,0.0,0.0,0.0,0.0,0.0,0.0,0.0,0.0,0.0,0.0,0.0,0.0,0.0,0.0,0.0,0.0,0.0,0.0,0.0,0.0,0.0,0.0,0.0,0.0,0.0,0.0,0.0,0.0,0.0,0.0,0.0,0.0,0.0,0.0,0.0,0.0,0.0,0.0,0.0,0.0,0.0,0.0,0.0,0.0,0.0,0.0,1.3802,1.3401,1.3787,0.0,1.3514,0.0,0.0,0.0,0.0,0.0,0.0,0.0,0.0,0.0,0.0,0.0,0.0,0.0,0.0,0.0,0.0,0.0,0.0,0.0,0.0,0.0,0.0,0.0,0.0,0.0,0.0,0.0,0.0,0.0,0.0,0.0,0.0,0.0,0.0,0.0,0.0,0.0,0.0,0.0,0.0,0.0,0.0,0.0,0.0,0.0,0.0,0.0,0.0,0.0,0.0,0.0,0.0,0.0,0.0,0.0,0.0,0.0,0.0,0.0,0.0,0.0,0.0,0.0,0.0,0.0,0.0,0.0,0.0,0.0,0.0,0.0,0.0,0.0,0.0,0.0,0.0,0.0,0.0,0.0,0.0,0.0,0.0,0.0,0.0,0.0,0.0,0.0,0.0,0.0,0.0,0.0,0.0,0.0,0.0,0.0,0.0,0.0,0.0,0.0,0.0,0.0,0.0,0.0,0.0,0.0,0.0,0.0,0.0,0.0,0.0,1.3359,1.3054,1.3145,1.2998,0.0,0.0,0.0,0.0,0.0,0.0,0.0,0.0,0.0,0.0,0.0,0.0,0.0,0.0,0.0,0.0,0.0,0.0,0.0,0.0,0.0,0.0,0.0,0.0,0.0,0.0,0.0,0.0,0.0,0.0,0.0,0.0,0.0,0.0,0.0,0.0,0.0,0.0,0.0,0.0,0.0,0.0,0.0,0.0,0.0,0.0,0.0,0.0,0.0,0.0,0.0,0.0,0.0,0.0,0.0,0.0,0.0,0.0,0.0,0.0,0.0,0.0,0.0,0.0,0.0,0.0,0.0,0.0,0.0,0.0,0.0,0.0,0.0,0.0,0.0,0.0,0.0,0.0,0.0,0.0,0.0,0.0,0.0,0.0,0.0,0.0,0.0,0.0,0.0,0.0,0.0,0.0,0.0,0.0,0.0,0.0,0.0,0.0,0.0,0.0,0.0,0.0,0.0,0.0,0.0,0.0,0.0,0.0,0.0,0.0,1.3444,1.3348,1.3264,1.2754,1.2346,1.211,0.0,0.0,0.0,0.0,0.0,0.0,0.0,0.0,0.0,0.0,0.0,0.0,0.0,0.0,0.0,0.0,0.0,0.0,0.0,0.0,0.0,0.0,0.0,0.0,0.0,0.0,0.0,0.0,0.0,0.0,0.0,0.0,0.0,0.0,0.0,0.0,0.0,0.0,0.0,0.0,0.0,0.0,0.0,0.0,0.0,0.0,0.0,0.0,0.0,0.0,0.0,0.0,0.0,0.0,0.0,0.0,0.0,0.0,0.0,0.0,0.0,0.0,0.0,0.0,0.0,0.0,0.0,0.0,0.0,0.0,0.0,0.0,0.0,0.0,0.0,0.0,0.0,0.0,0.0,0.0,0.0,0.0,0.0,0.0,0.0,0.0,0.0,0.0,0.0,0.0,0.0,0.0,0.0,0.0,0.0,0.0,0.0,0.0,0.0,0.0,0.0,0.0,0.0,0.0,0.0,0.0,0.0,0.0,1.34,1.3801,1.4197,1.4408,1.2963,1.2346,0.0,0.0,0.0,0.0,0.0,0.0,0.0,0.0,0.0,0.0,0.0,0.0,0.0,0.0,0.0,0.0,0.0,0.0,0.0,0.0,0.0,0.0,0.0,0.0,0.0,0.0,0.0,0.0,0.0,0.0,0.0,0.0,0.0,0.0,0.0,0.0,0.0,0.0,0.0,0.0,0.0,0.0,0.0,0.0,0.0,0.0,0.0,0.0,0.0,0.0,0.0,0.0,0.0,0.0,0.0,0.0,0.0,0.0,0.0,0.0,0.0,0.0,0.0,0.0,0.0,0.0,0.0,0.0,0.0,0.0,0.0,0.0,0.0,0.0,0.0,0.0,0.0,0.0,0.0,0.0,0.0,0.0,0.0,0.0,0.0,0.0,0.0,0.0,0.0,0.0,0.0,0.0,0.0,0.0,0.0,0.0,0.0,0.0,0.0,0.0,0.0,0.0,0.0,0.0,0.0,0.0,0.0,0.0,0.0,1.2695,1.2759,1.2885,1.2963,1.2194,1.1866,0.0,0.0,0.0,0.0,0.0,0.0,0.0,0.0,0.0,0.0,0.0,0.0,0.0,0.0,0.0,0.0,0.0,0.0,0.0,0.0,0.0,0.0,0.0,0.0,0.0,0.0,0.0,0.0,0.0,0.0,0.0,0.0,0.0,0.0,0.0,0.0,0.0,0.0,0.0,0.0,0.0,0.0,0.0,0.0,0.0,0.0,0.0,0.0,0.0,0.0,0.0,0.0,0.0,0.0,0.0,0.0,0.0,0.0,0.0,0.0,0.0,0.0,0.0,0.0,0.0,0.0,0.0,0.0,0.0,0.0,0.0,0.0,0.0,0.0,0.0,0.0,0.0,0.0,0.0,0.0,0.0,0.0,0.0,0.0,0.0,0.0,0.0,0.0,0.0,0.0,0.0,0.0,0.0,0.0,0.0,0.0,0.0,0.0,0.0,0.0,0.0,0.0,0.0,0.0,0.0,0.0,0.0,0.0,0.0,1.2523,0.0,1.2598,1.2695,1.2116,1.1836,0.0,0.0,0.0,0.0,0.0,0.0,0.0,0.0,0.0,0.0,0.0,0.0,0.0,0.0,0.0,0.0,0.0,0.0,0.0,0.0,0.0,0.0,0.0,0.0,0.0,0.0,0.0,0.0,0.0,0.0,0.0,0.0,0.0,0.0,0.0,0.0,0.0,0.0,0.0,0.0,0.0,0.0,0.0,0.0,0.0,0.0,0.0,0.0,0.0,0.0,0.0,0.0,0.0,0.0,0.0,0.0,0.0,0.0,0.0,0.0,0.0,0.0,0.0,0.0,0.0,0.0,0.0,0.0,0.0,0.0,0.0,0.0,0.0,0.0,0.0,0.0,0.0,0.0,0.0,0.0,0.0,0.0,0.0,0.0,0.0,0.0,0.0,0.0,0.0,0.0,0.0,0.0,0.0,0.0,0.0,0.0,0.0,0.0,0.0,0.0,0.0,0.0,0.0,0.0,0.0,0.0,0.0,0.0,1.2882,1.298,1.3289,1.3623,1.3953,1.2883,1.2361,0.0,0.0,0.0,0.0,0.0,0.0,0.0,0.0,0.0,0.0,0.0,0.0,0.0,0.0,0.0,0.0,0.0,0.0,0.0,0.0,0.0,0.0,0.0,0.0,0.0,0.0,0.0,0.0,0.0,0.0,0.0,0.0,0.0,0.0,0.0,0.0,0.0,0.0,0.0,0.0,0.0,0.0,0.0,0.0,0.0,0.0,0.0,0.0,0.0,0.0,0.0,0.0,0.0,0.0,0.0,0.0,0.0,0.0,0.0,0.0,0.0,0.0,0.0,0.0,0.0,0.0,0.0,0.0,0.0,0.0,0.0,0.0,0.0,0.0,0.0,0.0,0.0,0.0,0.0,0.0,0.0,0.0,0.0,0.0,0.0,0.0,0.0,0.0,0.0,0.0,0.0,0.0,0.0,0.0,0.0,0.0,0.0,0.0,0.0,0.0,0.0,0.0,0.0,0.0,0.0,0.0,0.0,0.0,0.0,1.2883,1.3361,1.3904,1.4417,1.3143,1.2661,0.0,0.0,0.0,0.0,0.0,0.0,0.0,0.0,0.0,0.0,0.0,0.0,0.0,0.0,0.0,0.0,0.0,0.0,0.0,0.0,0.0,0.0,0.0,0.0,0.0,0.0,0.0,0.0,0.0,0.0,0.0,0.0,0.0,0.0,0.0,0.0,0.0,0.0,0.0,0.0,0.0,0.0,0.0,0.0,0.0,0.0,0.0,0.0,0.0,0.0,0.0,0.0,0.0,0.0,0.0,0.0,0.0,0.0,0.0,0.0,0.0,0.0,0.0,0.0,0.0,0.0,0.0,0.0,0.0,0.0,0.0,0.0,0.0,0.0,0.0,0.0,0.0,0.0,0.0,0.0,0.0,0.0,0.0,0.0,0.0,0.0,0.0,0.0,0.0,0.0,0.0,0.0,0.0,0.0,0.0,0.0,0.0,0.0,0.0,0.0,0.0,0.0,0.0,0.0,0.0,0.0,0.0,0.0,0.0,1.3807,1.4373,1.4808,1.4956,1.3726,1.3247,1.363,0.0,0.0,0.0,0.0,0.0,0.0,0.0,0.0,0.0,0.0,0.0,0.0,0.0,0.0,0.0,0.0,0.0,0.0,0.0,0.0,0.0,0.0,0.0,0.0,0.0,0.0,0.0,0.0,0.0,0.0,0.0,0.0,0.0,0.0,0.0,0.0,0.0,0.0,0.0,0.0,0.0,0.0,0.0,0.0,0.0,0.0,0.0,0.0,0.0,0.0,0.0,0.0,0.0,0.0,0.0,0.0,0.0,0.0,0.0,0.0,0.0,0.0,0.0,0.0,0.0,0.0,0.0,0.0,0.0,0.0,0.0,0.0,0.0,0.0,0.0,0.0,0.0,0.0,0.0,0.0,0.0,0.0,0.0,0.0,0.0,0.0,0.0,0.0,0.0,0.0,0.0,0.0,0.0,0.0,0.0,0.0,0.0,0.0,0.0,0.0,0.0,0.0,0.0,0.0,0.0,0.0,0.0,0.0,1.5549,1.6241,1.6279,1.5592,1.4598,1.4085,0.0,0.0,0.0,0.0,0.0,0.0,0.0,0.0,0.0,0.0,0.0,0.0,0.0,0.0,0.0,0.0,0.0,0.0,0.0,0.0,0.0,0.0,0.0,0.0,0.0,0.0,0.0,0.0,0.0,0.0,0.0,0.0,0.0,0.0,0.0,0.0,0.0,0.0,0.0,0.0,0.0,0.0,0.0,0.0,0.0,0.0,0.0,0.0,0.0,0.0,0.0,0.0,0.0,0.0,0.0,0.0,0.0,0.0,0.0,0.0,0.0,0.0,0.0,0.0,0.0,0.0,0.0,0.0,0.0,0.0,0.0,0.0,0.0,0.0,0.0,0.0,0.0,0.0,0.0,0.0,0.0,0.0,0.0,0.0,0.0,0.0,0.0,0.0,0.0,0.0,0.0,0.0,0.0,0.0,0.0,0.0,0.0,0.0,0.0,0.0,0.0,0.0,0.0,0.0,0.0,0.0,0.0,0.0,0.0,1.7508,1.8437,1.8463,1.7561,1.5899,1.503,0.0,0.0,0.0,0.0,0.0,0.0,0.0,0.0,0.0,0.0,0.0,0.0,0.0,0.0,0.0,0.0,0.0,0.0,0.0,0.0,0.0,0.0,0.0,0.0,0.0,0.0,0.0,0.0,0.0,0.0,0.0,0.0,0.0,0.0,0.0,0.0,0.0,0.0,0.0,0.0,0.0,0.0,0.0,0.0,0.0,0.0,0.0,0.0,0.0,0.0,0.0,0.0,0.0,0.0,0.0,0.0,0.0,0.0,0.0,0.0,0.0,0.0,0.0,0.0,0.0,0.0,0.0,0.0,0.0,0.0,0.0,0.0,0.0,0.0,0.0,0.0,0.0,0.0,0.0,0.0,0.0,0.0,0.0,0.0,0.0,0.0,0.0,0.0,0.0,0.0,0.0,0.0,0.0,0.0,0.0,0.0,0.0,0.0,0.0,0.0,0.0,0.0,0.0,0.0,0.0,0.0,0.0,0.0,1.7223,1.8496,1.9879,2.0177,1.932,1.7548,1.6221,0.0,0.0,0.0,0.0,0.0,0.0,0.0,0.0,0.0,0.0,0.0,0.0,0.0,0.0,0.0,0.0,0.0,0.0,0.0,0.0,0.0,0.0,0.0,0.0,0.0,0.0,0.0,0.0,0.0,0.0,0.0,0.0,0.0,0.0,0.0,0.0,0.0,0.0,0.0,0.0,0.0,0.0,0.0,0.0,0.0,0.0,0.0,0.0,0.0,0.0,0.0,0.0,0.0,0.0,0.0,0.0,0.0,0.0,0.0,0.0,0.0,0.0,0.0,0.0,0.0,0.0,0.0,0.0,0.0,0.0,0.0,0.0,0.0,0.0,0.0,0.0,0.0,0.0,0.0,0.0,0.0,0.0,0.0,0.0,0.0,0.0,0.0,0.0,0.0,0.0,0.0,0.0,0.0,0.0,0.0,0.0,0.0,0.0,0.0,0.0,0.0,0.0,0.0,0.0,0.0,0.0,0.0,0.0,1.8525,1.9019,2.0823,2.1496,2.0867,1.9272,1.753,0.0,0.0,0.0,0.0,0.0,0.0,0.0,0.0,0.0,0.0,0.0,0.0,0.0,0.0,0.0,0.0,0.0,0.0,0.0,0.0,0.0,0.0,0.0,0.0,0.0,0.0,0.0,0.0,0.0,0.0,0.0,0.0,0.0,0.0,0.0,0.0,0.0,0.0,0.0,0.0,0.0,0.0,0.0,0.0,0.0,0.0,0.0,0.0,0.0,0.0,0.0,0.0,0.0,0.0,0.0,0.0,0.0,0.0,0.0,0.0,0.0,0.0,0.0,0.0,0.0,0.0,0.0,0.0,0.0,0.0,0.0,0.0,0.0,0.0,0.0,0.0,0.0,0.0,0.0,0.0,0.0,0.0,0.0,0.0,0.0,0.0,0.0,0.0,0.0,0.0,0.0,0.0,0.0,0.0,0.0,0.0,0.0,0.0,0.0,0.0,0.0,0.0,0.0,0.0,0.0,0.0,0.0,0.0,1.895,2.0269,2.1701,2.2212,2.1876,2.0047,1.8394,0.0,0.0,0.0,0.0,0.0,0.0,0.0,0.0,0.0,0.0,0.0,0.0,0.0,0.0,0.0,0.0,0.0,0.0,0.0,0.0,0.0,0.0,0.0,0.0,0.0,0.0,0.0,0.0,0.0,0.0,0.0,0.0,0.0,0.0,0.0,0.0,0.0,0.0,0.0,0.0,0.0,0.0,0.0,0.0,0.0,0.0,0.0,0.0,1.7798,0.0,0.0,0.0,0.0,0.0,0.0,0.0,0.0,0.0,0.0,0.0,0.0,0.0,0.0,0.0,0.0,0.0,0.0,0.0,0.0,0.0,0.0,0.0,0.0,0.0,0.0,0.0,0.0,0.0,0.0,0.0,0.0,0.0,0.0,0.0,0.0,0.0,0.0,0.0,0.0,0.0,0.0,0.0,0.0,0.0,0.0,0.0,0.0,0.0,0.0,0.0,0.0,0.0,0.0,0.0,0.0,0.0,0.0,0.0,1.9857,2.1159,2.2418,2.293,2.2579,2.1189,1.9605,0.0,0.0,0.0,0.0,0.0,0.0,0.0,0.0,0.0,0.0,0.0,0.0,0.0,0.0,0.0,0.0,0.0,0.0,0.0,0.0,0.0,0.0,0.0,0.0,0.0,0.0,0.0,0.0,0.0,0.0,0.0,0.0,0.0,0.0,0.0,0.0,0.0,0.0,0.0,0.0,0.0,0.0,0.0,0.0,0.0,0.0,0.0,0.0,0.0,0.0,0.0,0.0,0.0,0.0,0.0,0.0,0.0,0.0,0.0,0.0,0.0,0.0,0.0,0.0,0.0,0.0,0.0,0.0,0.0,0.0,0.0,0.0,0.0,0.0,0.0,0.0,0.0,0.0,0.0,0.0,0.0,0.0,0.0,0.0,0.0,0.0,0.0,0.0,0.0,0.0,0.0,0.0,0.0,0.0,0.0,0.0,0.0,0.0,0.0,0.0,0.0,0.0,0.0,0.0,0.0,0.0,0.0,2.0031,2.0824,2.1979,2.3135,2.3559,2.3193,2.2359,2.0852,1.8628,0.0,0.0,0.0,0.0,0.0,0.0,0.0,0.0,0.0,0.0,0.0,0.0,0.0,0.0,0.0,0.0,0.0,0.0,0.0,0.0,0.0,0.0,0.0,0.0,0.0,0.0,0.0,0.0,0.0,0.0,0.0,0.0,0.0,0.0,0.0,0.0,0.0,0.0,1.6576,1.7327,0.0,0.0,0.0,0.0,0.0,0.0,0.0,0.0,1.7647,0.0,0.0,0.0,0.0,0.0,0.0,0.0,0.0,0.0,0.0,0.0,0.0,0.0,0.0,0.0,0.0,0.0,0.0,0.0,0.0,0.0,0.0,0.0,0.0,0.0,0.0,0.0,0.0,0.0,0.0,0.0,0.0,0.0,0.0,0.0,0.0,0.0,0.0,0.0,0.0,0.0,0.0,0.0,0.0,0.0,0.0,0.0,0.0,0.0,0.0,0.0,0.0,0.0,0.0,0.0,0.0,2.0411,2.0556,2.1511,2.3237,2.4013,2.4162,2.353,2.3106,2.1818,1.9664,0.0,0.0,0.0,0.0,0.0,0.0,0.0,0.0,0.0,0.0,0.0,0.0,0.0,0.0,0.0,0.0,0.0,0.0,0.0,0.0,0.0,0.0,0.0,0.0,0.0,0.0,0.0,0.0,0.0,0.0,0.0,0.0,0.0,0.0,0.0,0.0,0.0,0.0,0.0,1.8603,1.9468,0.0,0.0,0.0,0.0,0.0,0.0,0.0,0.0,1.9344,0.0,0.0,0.0,0.0,0.0,0.0,0.0,0.0,0.0,0.0,0.0,0.0,0.0,0.0,0.0,0.0,0.0,0.0,0.0,0.0,0.0,0.0,0.0,0.0,0.0,0.0,0.0,0.0,0.0,0.0,0.0,0.0,0.0,0.0,0.0,0.0,0.0,0.0,0.0,0.0,0.0,0.0,0.0,0.0,0.0,0.0,0.0,0.0,0.0,0.0,0.0,0.0,0.0,0.0,0.0,2.1082,2.1224,2.2081,2.3779,2.4192,2.4174,2.3852,2.3208,2.2037,0.0,0.0,0.0,0.0,0.0,0.0,0.0,0.0,0.0,0.0,0.0,0.0,0.0,0.0,0.0,0.0,0.0,0.0,0.0,0.0,0.0,0.0,0.0,0.0,0.0,0.0,0.0,0.0,0.0,0.0,0.0,0.0,0.0,0.0,0.0,0.0,0.0,0.0,0.0,0.0,1.8898,1.9308,1.9785,0.0,0.0,0.0,0.0,0.0,0.0,1.9601,2.006,0.0,0.0,0.0,0.0,0.0,0.0,0.0,0.0,0.0,0.0,0.0,0.0,0.0,0.0,0.0,0.0,0.0,0.0,0.0,0.0,0.0,0.0,0.0,0.0,0.0,0.0,0.0,0.0,0.0,0.0,0.0,0.0,0.0,0.0,0.0,0.0,0.0,0.0,0.0,0.0,0.0,0.0,0.0,0.0,0.0,0.0,0.0,0.0,0.0,0.0,0.0,0.0,0.0,0.0,0.0,2.1414,2.1693,2.2595,2.4101,2.428,2.425,2.4104,2.3252,2.211,0.0,0.0,0.0,0.0,0.0,0.0,0.0,0.0,0.0,0.0,0.0,0.0,0.0,0.0,0.0,0.0,0.0,0.0,0.0,0.0,0.0,0.0,0.0,0.0,0.0,0.0,0.0,0.0,0.0,0.0,0.0,0.0,0.0,0.0,0.0,0.0,0.0,0.0,0.0,0.0,0.0,1.9225,1.9807,1.9928,0.0,0.0,0.0,0.0,1.8901,1.9856,0.0,0.0,0.0,0.0,0.0,0.0,0.0,0.0,0.0,0.0,0.0,0.0,0.0,0.0,0.0,0.0,0.0,0.0,0.0,0.0,0.0,0.0,0.0,0.0,0.0,0.0,0.0,0.0,0.0,0.0,0.0,0.0,0.0,0.0,0.0,0.0,0.0,0.0,0.0,0.0,0.0,0.0,0.0,0.0,0.0,0.0,0.0,0.0,0.0,0.0,0.0,0.0,0.0,0.0,0.0,0.0,2.0772,2.1686,2.2932,2.447,2.4822,2.4705,2.4133,2.3691,2.2476,0.0,0.0,0.0,0.0,0.0,0.0,0.0,0.0,0.0,0.0,0.0,0.0,0.0,0.0,0.0,0.0,0.0,0.0,0.0,0.0,0.0,0.0,0.0,0.0,0.0,0.0,0.0,0.0,0.0,0.0,0.0,0.0,0.0,0.0,0.0,0.0,0.0,0.0,0.0,0.0,0.0,2.0328,2.0259,2.0679,2.0622,0.0,0.0,2.1006,1.8638,1.9966,0.0,0.0,0.0,0.0,0.0,0.0,0.0,0.0,0.0,0.0,0.0,0.0,0.0,0.0,0.0,0.0,0.0,0.0,0.0,0.0,0.0,0.0,0.0,0.0,0.0,0.0,0.0,0.0,0.0,0.0,0.0,0.0,0.0,0.0,0.0,0.0,0.0,0.0,0.0,0.0,0.0,0.0,0.0,0.0,0.0,0.0,0.0,0.0,0.0,0.0,0.0,0.0,0.0,0.0,0.0,1.9477,2.0692,2.2037,2.3342,2.4558,2.4924,2.4778,2.4086,2.3588,2.252,0.0,0.0,0.0,0.0,0.0,0.0,0.0,0.0,0.0,0.0,0.0,0.0,0.0,0.0,0.0,0.0,0.0,0.0,0.0,0.0,0.0,0.0,0.0,0.0,0.0,0.0,0.0,0.0,0.0,0.0,0.0,0.0,0.0,0.0,0.0,0.0,0.0,0.0,0.0,0.0,0.0,0.0,2.0263,2.0944,0.0,0.0,0.0,2.2043,2.0344,0.0,0.0,0.0,0.0,0.0,0.0,0.0,0.0,0.0,0.0,0.0,0.0,0.0,0.0,0.0,0.0,0.0,0.0,0.0,0.0,0.0,0.0,0.0,0.0,0.0,0.0,0.0,0.0,0.0,0.0,0.0,0.0,0.0,0.0,0.0,0.0,0.0,0.0,0.0,0.0,0.0,0.0,0.0,0.0,0.0,0.0,0.0,0.0,0.0,0.0,0.0,0.0,0.0,0.0,0.0,0.0,0.0,2.058,2.218,2.3449,2.4324,2.4847,2.4778,2.4133,2.3442,0.0,0.0,0.0,0.0,0.0,0.0,0.0,0.0,0.0,0.0,0.0,0.0,0.0,0.0,0.0,0.0,0.0,0.0,0.0,0.0,0.0,0.0,0.0,0.0,0.0,0.0,0.0,1.8512,0.0,0.0,0.0,0.0,0.0,0.0,0.0,0.0,0.0,0.0,0.0,0.0,0.0,0.0,2.027,2.0058,2.0995,2.1121,0.0,0.0,2.232,2.1138,2.1371,2.154,0.0,0.0,0.0,0.0,0.0,0.0,0.0,0.0,0.0,0.0,0.0,0.0,0.0,0.0,0.0,0.0,0.0,0.0,0.0,0.0,0.0,0.0,0.0,0.0,0.0,0.0,0.0,0.0,0.0,0.0,0.0,0.0,0.0,0.0,0.0,0.0,0.0,0.0,0.0,0.0,0.0,0.0,0.0,0.0,0.0,0.0,0.0,0.0,0.0,0.0,0.0,0.0,0.0,0.0,0.0,2.023,2.1893,2.3045,2.3691,2.4596,2.4778,2.4133,2.3442,2.2506,0.0,0.0,0.0,0.0,0.0,0.0,0.0,0.0,0.0,0.0,0.0,0.0,0.0,0.0,0.0,0.0,0.0,0.0,0.0,0.0,0.0,0.0,0.0,0.0,0.0,0.0,0.0,0.0,0.0,0.0,0.0,0.0,0.0,0.0,0.0,0.0,0.0,0.0,0.0,0.0,0.0,2.0005,1.9683,2.0802,2.1224,0.0,0.0,2.1252,1.9721,2.0722,2.1373,2.0427,0.0,0.0,0.0,0.0,0.0,0.0,0.0,0.0,0.0,0.0,0.0,0.0,0.0,0.0,0.0,0.0,0.0,0.0,0.0,0.0,0.0,0.0,0.0,0.0,0.0,0.0,0.0,0.0,0.0,0.0,0.0,0.0,0.0,0.0,0.0,0.0,0.0,0.0,0.0,0.0,0.0,0.0,0.0,0.0,0.0,0.0,0.0,0.0,0.0,0.0,0.0,0.0,0.0,1.9532,2.1043,2.2242,2.3182,2.3789,2.4753,2.48,2.3775,2.3315,2.2608,0.0,0.0,0.0,0.0,0.0,0.0,0.0,0.0,0.0,0.0,0.0,0.0,0.0,0.0,0.0,0.0,0.0,0.0,0.0,0.0,0.0,0.0,0.0,0.0,0.0,0.0,0.0,0.0,1.8826,1.8274,1.8511,0.0,0.0,0.0,0.0,0.0,0.0,0.0,0.0,0.0,0.0,2.0664,2.0717,2.167,0.0,0.0,2.149,2.1917,2.0667,2.0647,2.0641,2.0264,2.0508,0.0,0.0,0.0,0.0,0.0,0.0,0.0,0.0,0.0,0.0,0.0,0.0,0.0,0.0,0.0,0.0,0.0,0.0,0.0,0.0,0.0,0.0,0.0,0.0,0.0,0.0,0.0,0.0,0.0,0.0,0.0,0.0,0.0,0.0,0.0,0.0,0.0,0.0,0.0,0.0,0.0,0.0,0.0,0.0,0.0,0.0,0.0,0.0,0.0,0.0,0.0,0.0,1.9695,2.1435,2.2296,2.3031,2.3629,2.4691,2.4747,2.3704,2.3365,2.2769,0.0,0.0,0.0,0.0,0.0,0.0,0.0,0.0,0.0,0.0,0.0,0.0,0.0,0.0,0.0,0.0,0.0,0.0,0.0,0.0,0.0,0.0,0.0,0.0,0.0,0.0,0.0,0.0,1.8541,1.7986,1.802,0.0,0.0,0.0,0.0,0.0,0.0,0.0,0.0,0.0,0.0,2.0722,2.0907,2.1812,2.2103,2.0995,2.1831,2.2301,2.1347,2.0911,2.0488,1.9991,0.0,0.0,0.0,0.0,0.0,0.0,0.0,0.0,0.0,0.0,0.0,0.0,0.0,0.0,0.0,0.0,0.0,0.0,0.0,0.0,0.0,0.0,0.0,0.0,0.0,0.0,0.0,0.0,0.0,0.0,0.0,0.0,0.0,0.0,0.0,0.0,0.0,0.0,0.0,0.0,0.0,0.0,0.0,0.0,0.0,0.0,0.0,0.0,0.0,0.0,0.0,0.0,0.0,1.965,2.1087,2.1813,2.2427,2.3063,2.4243,2.4613,2.4004,2.3731,2.2988,2.173,0.0,0.0,0.0,0.0,0.0,0.0,0.0,0.0,0.0,0.0,0.0,0.0,0.0,0.0,0.0,0.0,0.0,0.0,0.0,0.0,0.0,0.0,0.0,0.0,0.0,0.0,1.7055,1.6676,1.6722,0.0,0.0,0.0,0.0,0.0,0.0,0.0,0.0,0.0,0.0,1.9423,1.9823,1.9891,2.0923,2.1598,2.1247,2.1759,2.1979,2.1306,2.1437,2.113,0.0,0.0,0.0,0.0,0.0,0.0,0.0,0.0,0.0,0.0,0.0,0.0,0.0,0.0,0.0,0.0,0.0,0.0,0.0,0.0,0.0,0.0,0.0,0.0,0.0,0.0,0.0,2.0806,2.0286,0.0,0.0,0.0,0.0,0.0,0.0,0.0,0.0,0.0,0.0,0.0,1.9695,2.0323,0.0,0.0,0.0,0.0,0.0,0.0,0.0,0.0,0.0,0.0,0.0,0.0,2.0,2.1622,2.2103,2.2714,2.3509,2.4325,2.4406,2.3603,2.3342,2.2526,2.1075,0.0,0.0,0.0,0.0,0.0,0.0,0.0,0.0,0.0,0.0,0.0,0.0,0.0,0.0,0.0,0.0,0.0,0.0,0.0,0.0,0.0,0.0,0.0,0.0,0.0,2.0148,0.0,0.0,0.0,0.0,0.0,0.0,0.0,0.0,0.0,0.0,0.0,1.8985,1.8531,1.9389,2.0122,2.0369,2.0955,2.1408,0.0,0.0,0.0,0.0,0.0,0.0,0.0,0.0,0.0,0.0,0.0,0.0,0.0,0.0,2.1462,1.9197,1.8959,1.9228,1.9691,0.0,0.0,0.0,0.0,0.0,0.0,0.0,0.0,0.0,0.0,0.0,0.0,0.0,0.0,0.0,0.0,1.941,0.0,0.0,0.0,0.0,0.0,0.0,0.0,0.0,1.9936,2.0601,2.1081,2.1524,2.1552,0.0,2.0742,2.0055,0.0,0.0,0.0,0.0,0.0,0.0,0.0,0.0,2.0465,2.2097,2.2438,2.2966,2.3777,2.4408,2.4375,2.3727,2.3131,2.2353,2.1387,2.0816,2.0537,0.0,0.0,0.0,0.0,0.0,0.0,0.0,0.0,0.0,0.0,0.0,0.0,0.0,0.0,0.0,0.0,0.0,0.0,0.0,0.0,0.0,0.0,0.0,1.9946,0.0,0.0,0.0,0.0,0.0,0.0,0.0,0.0,0.0,1.8205,1.8738,1.9187,1.9301,1.9841,2.0421,2.097,0.0,0.0,0.0,0.0,0.0,0.0,0.0,2.0984,2.1174,2.132,2.1496,2.1818,2.2067,2.2169,2.214,0.0,0.0,1.9213,1.9023,1.9301,1.9711,1.9974,2.0281,2.078,2.1072,2.1174,0.0,0.0,0.0,0.0,0.0,0.0,0.0,0.0,2.0814,2.1106,0.0,2.0353,0.0,0.0,0.0,0.0,0.0,0.0,0.0,0.0,2.1194,2.2077,2.2867,2.2907,2.3081,2.3238,2.2405,2.1729,2.11,1.9918,0.0,0.0,0.0,0.0,0.0,0.0,2.0971,2.2411,2.2768,2.3201,2.379,2.4386,2.453,2.4211,2.3153,2.2532,2.2514,2.1043,2.0543,2.1145,2.0267,0.0,0.0,0.0,0.0,0.0,0.0,0.0,0.0,0.0,0.0,0.0,0.0,0.0,0.0,0.0,0.0,0.0,0.0,0.0,0.0,1.7876,0.0,0.0,0.0,0.0,0.0,0.0,0.0,0.0,0.0,0.0,1.8895,1.9399,2.013,2.1031,0.0,0.0,0.0,0.0,2.1018,2.1598,2.2198,2.243,2.2198,2.2621,2.2547,2.1423,0.0,0.0,2.2285,2.2227,2.2022,2.1394,2.1351,2.135,2.1628,2.1496,2.1525,2.1628,2.1569,2.1759,2.217,2.2228,2.2227,2.3512,0.0,0.0,0.0,0.0,2.1709,2.2124,2.2281,2.2454,2.2276,2.1751,2.0783,0.0,0.0,0.0,0.0,0.0,0.0,2.0382,2.1248,2.2104,2.288,2.3549,2.3728,2.3768,2.3621,2.3166,2.2739,2.2385,2.2021,2.097,1.9253,0.0,0.0,0.0,0.0,2.1078,2.2096,2.2813,2.338,2.3803,2.4371,2.4277,2.3601,2.3311,2.275,2.1894,2.1264,2.0883,2.0816,1.9925,0.0,0.0,0.0,0.0,0.0,0.0,0.0,0.0,0.0,0.0,0.0,0.0,0.0,0.0,0.0,0.0,0.0,0.0,0.0,1.9844,1.9592,1.9197,0.0,0.0,0.0,0.0,0.0,0.0,0.0,0.0,0.0,1.9748,2.013,2.0542,0.0,0.0,2.0655,2.1805,2.1269,2.0951,2.1548,0.0,0.0,0.0,2.1518,2.1417,2.1697,2.2179,2.2635,2.3081,2.2769,2.2556,2.2751,2.25,2.2301,2.2454,2.1507,2.1072,2.1774,2.1655,2.174,2.2852,2.318,2.3148,2.5666,2.3318,2.3029,2.2628,2.2346,2.3026,2.3352,2.343,2.3606,2.3544,2.3253,2.2167,2.1475,2.1142,2.041,0.0,0.0,0.0,2.1817,2.284,2.3482,2.4218,2.4957,2.505,2.5037,2.4957,2.4329,2.3861,2.3589,2.3121,2.2131,2.0615,0.0,0.0,2.0668,2.1122,2.1804,2.2672,2.334,2.3754,2.3941,2.4275,2.4012,2.318,2.3259,2.289,2.2011,2.1458,2.1118,2.1037,2.0175,1.986,0.0,0.0,0.0,0.0,0.0,0.0,0.0,0.0,0.0,0.0,0.0,1.8324,0.0,0.0,0.0,0.0,1.8935,1.9745,2.0289,2.0293,0.0,0.0,0.0,0.0,0.0,0.0,0.0,1.889,1.9332,1.9874,2.0486,2.0985,2.1379,2.1639,2.1141,2.1185,2.2292,0.0,2.1124,2.1829,2.1692,2.1608,2.1933,2.165,2.1636,2.232,2.259,2.286,2.321,2.3033,2.2892,2.3028,2.293,2.2804,2.2967,2.2128,2.1691,2.2479,2.2452,2.2645,2.3726,2.4061,2.4224,2.7898,2.7028,2.6238,2.5336,2.4467,2.4752,2.4742,2.4476,2.4489,2.4903,2.5504,2.4092,2.3719,2.4075,2.2792,0.0,0.0,2.2867,2.3688,2.4719,2.5077,2.5785,2.6747,2.6533,2.656,2.6787,2.5705,2.5037,2.4666,2.3647,2.296,2.2558,2.2325,2.2138,2.2044,2.2298,2.2886,2.379,2.4048,2.4195,2.4209,2.4182,2.3754,2.2934,2.314,2.2983,2.2397,2.1524,2.117,2.1452,2.0672,2.0117,1.9931,0.0,0.0,0.0,0.0,0.0,0.0,0.0,0.0,0.0,0.0,0.0,0.0,0.0,0.0,0.0,1.9902,0.0,2.023,2.0215,0.0,0.0,0.0,1.8829,1.8525,1.8588,1.8769,1.9001,0.0,0.0,0.0,0.0,2.2392,2.2349,2.1937,2.1965,2.2916,2.1947,2.1495,2.2318,2.2257,2.2205,2.2354,2.2396,2.2493,2.28,2.3009,2.2962,2.2944,2.2935,2.2841,2.2665,2.2776,2.2925,2.2953,2.3073,2.3365,2.3323,2.3593,2.3981,2.44,2.4868,2.5174,2.9958,2.9517,2.9071,2.7835,2.6211,2.6532,2.6747,2.6867,2.6867,2.6734,2.644,2.5438,2.4583,2.391,2.3968,2.3972,2.4012,2.4887,2.5409,2.5703,2.6172,2.652,2.6814,2.6707,2.672,2.6747,2.6319,2.5919,2.5638,2.5396,2.4836,2.4106,2.3999,2.3399,2.2365,2.2605,2.3121,2.3803,2.4062,2.4209,2.4195,2.3981,2.3589,2.292,2.296,2.2479,2.1445,2.0774,2.047,2.0612,2.0392,2.047,2.0835,2.1013,0.0,0.0,0.0,0.0,0.0,0.0,0.0,0.0,0.0,1.9151,1.8602,0.0,1.9237,0.0,2.0061,2.009,1.9584,1.9583,0.0,0.0,1.932,1.9459,1.9201,1.9572,1.9953,2.0244,2.0619,2.1122,2.1697,2.2151,2.2067,2.1233,2.1573,2.2221,2.3112,2.2428,2.184,2.2021,2.2123,2.2194,2.1903,2.1997,2.216,2.2241,2.2274,2.2287,2.2287,2.2098,2.2057,2.2362,2.2335,2.243,2.2822,2.2984,2.3119,2.3288,2.3583,2.4101,2.4895,2.5182,2.5295,3.1136,3.0948,3.0488,2.9566,2.839,2.8339,2.827,2.8297,2.8254,2.811,2.7721,2.6881,2.5985,2.517,2.5426,2.5573,2.5626,2.6386,2.6841,2.6988,2.7402,2.7682,2.7774,2.7774,2.7694,2.7561,2.7175,2.676,2.6346,2.6118,2.5638,2.4999,2.4986,2.4609,2.3785,2.3581,2.3723,2.4142,2.4182,2.4142,2.4008,2.3897,2.3388,2.2546,2.2626,2.2231,2.1336,2.0735,2.0452,2.0473,2.0337,2.0419,2.0775,2.1036,2.127,0.0,0.0,0.0,0.0,0.0,0.0,0.0,0.0,0.0,0.0,0.0,1.9833,0.0,2.0266,0.0,1.979,1.9777,1.9608,1.9174,1.8856,1.8612,1.849,1.8331,1.8385,1.8637,1.8996,1.9499,2.0038,2.0298,2.0293,1.9681,2.0056,2.0598,2.1002,2.0693,2.0386,2.0386,2.041,2.0536,2.0709,2.1477,2.2024,2.2024,2.2024,2.2024,2.201,2.189,2.189,2.2151,2.2191,2.2271,2.2605,2.2913,2.3166,2.3482,2.3776,2.4137,2.4528,2.4707,2.4833,3.1858,3.1778,3.1183,3.0768,3.048,2.9927,2.9513,2.9161,2.9161,2.9161,2.9108,2.8337,2.7682,2.7134,2.7161,2.7134,2.7148,2.7669,2.8043,2.8312,2.8617,2.8885,2.9055,2.9098,2.8921,2.8698,2.811,2.7522,2.6987,2.6479,2.6012,2.5692,2.5651,2.5611,2.5531,2.477,2.4462,2.4586,2.4279,2.4022,2.3817,2.3817,2.3207,2.2071,2.2271,2.2111,2.1502,2.094,2.0615,2.0615,2.0414,2.0295,2.0351,2.0917,2.1138,0.0,2.1343,0.0,0.0,0.0,0.0,0.0,0.0,0.0,0.0,2.0028,2.0319,2.063,2.0233,1.9967,2.0018,1.9832,1.9476,1.8995,1.7887,1.7162,1.7179,1.6375,1.5934,1.6221,1.6743,1.7238,1.7814,1.795,1.8166,1.8127,1.8159,1.8103,1.7924,1.8264,1.858,1.8347,1.8063,1.8507,1.9415,2.0535,2.1238,2.1317,2.1205,2.145,2.1251,2.1271,2.1363,2.1395,2.1476,2.1665,2.1872,2.2246,2.267,2.275,2.2957,2.3314,2.3843,2.4227,2.4289,3.2634,3.2393,3.1998,3.1543,3.1062,3.0942,3.0595,3.0114,3.0114,3.0159,3.0132,2.9673,2.9312,2.8991,2.8978,2.8845,2.8601,2.8978,2.9045,2.8841,2.9419,2.9566,2.9406,2.9406,2.9379,2.9285,2.8724,2.8243,2.7924,2.7535,2.7108,2.6573,2.6333,2.6145,0.0,0.0,0.0,0.0,2.4115,2.3821,2.3817,2.3817,2.3241,2.2077,2.2271,0.0,2.094,2.0494,2.029,2.029,2.0494,0.0,0.0,0.0,0.0,0.0,0.0,0.0,0.0,0.0,0.0,0.0,2.0614,2.0077,1.9825,2.0026,2.0256,2.0317,1.8942,1.8183,1.8526,1.7201,1.6451,1.6678,1.6477,1.64,1.6574,1.6463,1.6551,1.7077,1.7238,1.7476,1.7805,1.8082,1.7638,1.6691,1.6538,1.6044,1.4982,1.6826,1.82,1.8018,1.7631,1.7728,1.8188,1.8384,1.8698,1.8351,1.8351,1.8463,1.8541,1.8508,1.8508,1.8733,1.872,1.8924,1.9173,1.9274,1.9574,1.9468,1.956,2.0427,2.3429,2.4529,2.4836,2.9813,0.0,2.9127,2.8753,0.0,2.8137,2.7931,2.7844,2.9638,3.048,3.06,3.0261,3.0047,2.9958,2.9958,2.9833,2.97,2.9993,3.0047,2.9927,3.0207,3.0194,2.9913,2.9913,2.9766,2.9472,2.9179,2.8848,2.8419,2.8112,2.7615,2.7041,2.6894,2.668,2.6386,2.6239,2.5732,2.4863,2.4422,2.4128,2.3995,2.3884,2.3273,2.2258,0.0,0.0,0.0,0.0,0.0,0.0,0.0,0.0,0.0,0.0,0.0,2.1132,2.1302,2.1033,2.0265,2.0015,1.9619,1.8938,1.8581,1.8617,1.9013,1.858,1.8331,1.8484,1.7483,1.6979,1.7258,1.6363,1.5901,1.6211,1.5731,1.5403,1.5603,1.5074,1.4795,1.5049,1.5129,1.5291,1.5733,1.5695,1.5462,1.4964,1.4806,1.451,1.3967,1.5044,1.6058,1.5999,1.654,1.6871,1.7056,1.7638,1.791,1.7955,1.7955,1.7955,1.7955,1.7955,1.7998,1.8106,1.8138,1.8215,1.8336,1.8414,1.8447,1.8555,1.8587,1.9109,2.1246,2.2233,2.2938,2.686,2.6743,2.6164,2.5854,2.5634,2.5201,2.4997,2.522,0.0,0.0,0.0,2.9584,2.9481,2.9435,2.9435,2.9651,2.9932,3.0057,3.0353,3.0635,3.0702,3.0501,3.0186,3.0333,3.0092,2.9499,2.953,2.9245,2.8764,2.8486,2.8072,2.7535,2.7101,2.6511,2.5863,2.608,2.5727,2.4768,2.4714,2.4506,2.4209,2.3968,2.3302,2.214,2.1998,2.1666,2.1194,2.0734,2.0564,2.0703,2.0273,2.005,2.0037,1.9769,1.9743,2.0024,2.005,1.9436,1.8099,1.8136,1.7625,1.6198,1.6139,1.6695,1.7893,1.6974,1.6419,1.657,1.6096,1.5867,1.6118,1.57,1.5585,1.5799,1.484,1.4281,1.4428,1.3555,1.2931,1.2799,1.2939,1.2954,1.3399,1.3367,1.3214,1.349,1.362,1.3402,1.3443,1.3792,1.4115,1.4169,1.4973,1.5608,1.5765,1.6502,1.7512,1.7217,1.7382,1.7609,1.7609,1.7609,1.7609,1.7308,1.7609,1.7469,1.7539,1.7398,1.7681,1.7892,1.7923,1.7923,1.8009,1.8917,2.0134,2.7396,2.7021,2.6914,2.6528,2.5961,2.5865,2.5501,2.505,2.5489,2.5783,2.5995,2.5926,2.5867,2.5772,2.5772,2.6605,2.804,2.7799,2.8519,0.0,3.0301,2.9993,2.9242,3.0007,3.0092,2.9557,2.9486,2.9446,2.9339,2.9001,2.8738,2.8122,2.6403,2.4287,2.2268,2.3226,2.3673,2.3255,2.4427,2.4756,2.4222,2.4168,2.3096,2.1044,2.2276,2.1922,1.9711,1.9666,1.9564,1.9272,1.8169,1.7504,1.7504,1.7503,1.7471,1.7504,1.7504,1.7429,1.7172,1.6944,1.6579,1.6126,1.5321,1.5399,1.6602,1.6602,1.6401,1.6158,1.512,1.4553,1.469,1.3815,1.333,1.338,1.3185,1.307,1.3169,1.2972,1.2815,1.2815,1.2799,1.2872,1.31,1.3108,1.3157,1.3352,1.3344,1.3386,1.3419,1.3547,1.3633,1.3642,1.3782,1.3891,1.4051,1.4032,1.4535,1.4264,1.4603,1.4867,1.4919,1.4919,1.4919,1.4635,1.4848,1.4777,1.4742,1.4537,1.4795,1.4981,1.4981,1.4909,1.5016,1.6063,1.7772,2.394,2.3735,2.3408,2.3166,2.2896,2.2733,2.2286,2.1776,2.1712,2.2986,2.4973,2.5139,2.5146,2.512,2.5238,2.5729,2.6477,2.6364,2.6641,2.7364,2.7615,2.7316,2.6647,2.6979,2.6944,2.6527,2.6318,2.6302,2.6354,2.5994,2.5615,2.5297,2.4109,2.2956,2.198,2.252,2.256,2.2049,2.3167,2.3567,2.31,2.2129,2.0954,1.9704,2.0274,1.997,1.8744,1.8496,1.8427,1.8405,1.7686,1.7257,1.7257,1.714,1.7129,1.7247,1.714,1.6801,1.6165,1.5324,1.4767,1.4618,1.4122,1.4068,1.4738,1.4563,1.433,1.4215,1.3701,1.3485,1.3572,1.3036,1.2751,1.2799,1.2888,1.2945,1.2945,1.2978,1.2978,1.2937,1.2856,1.2872,1.3076,1.3019,1.3019,1.3173,1.3149,1.3116,1.3239,1.3287,1.335,1.3474,1.3498,1.3465,1.3419,1.3467,1.353,1.3585,1.3674,1.3798,1.3872,1.3904,1.3904,1.3904,1.3904,1.3904,1.3904,1.3904,1.3904,1.3904,1.3904,1.3904,1.4039,1.5061,1.6885,2.0513,2.0433,1.9999,1.9803,1.9867,1.9564,1.9223,1.8914,1.8874,2.0579,2.3223,2.3643,2.3766,2.3827,2.3901,2.4225,2.4691,2.4544,2.4605,2.4941,2.5055,2.4844,2.4272,2.4361,2.4218,2.3836,2.3594,2.3563,2.3682,2.3368,2.2782,2.2083,2.1798,2.1502,2.1112,2.1493,2.1327,2.0729,2.1357,2.1719,2.167,2.0258,1.9202,1.8508,1.8498,1.8266,1.7797,1.7379,1.7247,1.7351,1.6858,1.6567,1.6557,1.6382,1.6362,1.6527,1.6382,1.5893,1.4998,1.3976,1.3402,1.3402,1.3272,1.3256,1.3345,1.3028,1.2775,1.2792,1.2931,1.2905,1.2987,1.2962,1.2921,1.2929,1.3076,1.3149,1.3157,1.3124,1.3092,1.3076,1.2938,1.2856,1.2937,1.2888,1.2872,1.2986,1.2888,1.2872,1.3011,1.3035,1.31,1.3206,1.3313,1.3313,1.3271,1.3321,1.336,1.3471,1.3561,1.3658,1.3771,1.3828,1.3904,1.3904,1.3904,1.3904,1.3904,1.3904,1.3904,1.3904,1.3904,1.3904,1.394,1.4774,1.6306,1.9437,1.921,1.8971,1.8752,1.8632,1.8443,1.8493,1.8678,1.8397,1.8504,1.9316,1.9238,1.9493,1.9522,1.9558,2.0588,2.2269,2.1687,2.2321,2.3871,2.4126,2.3823,2.3244,2.3836,2.3929,2.3338,2.3265,2.3144,2.3176,2.3256,2.2272,2.0487,2.0158,1.9131,1.7613,1.8748,1.9281,1.8951,1.8848,1.9291,2.0222,1.9935,1.8949,1.7356,1.8568,1.8352,1.6498,1.6287,1.6123,1.5813,1.4612,1.3822,1.3856,1.3797,1.3797,1.3856,1.3831,1.3694,1.3608,1.3471,1.3419,1.3402,1.3394,1.3394,1.3419,1.3362,1.3329,1.3305,1.3191,1.3141,1.3295,1.3337,1.3287,1.3305,1.3353,1.3378,1.3353,1.3197,1.3092,1.3092,1.2913,1.2815,1.284,1.2823,1.2815,1.2848,1.2831,1.2815,1.2848,1.2856,1.2856,1.2896,1.3019,1.3051,1.2937,1.3027,1.3133,1.3189,1.3399,1.3569,1.365,1.3763,1.3904,1.3896,1.3904,1.3904,1.3904,1.3904,1.3904,1.3904,1.3904,1.3904,1.3937,1.4288,1.5506,1.92,1.9057,1.8783,1.8604,1.8514,1.832,1.8212,1.8182,1.7905,1.7861,1.805,1.8097,1.8312,1.8671,1.8704,1.9234,2.0045,1.9725,1.9985,2.0731,2.0823,2.062,2.0318,2.052,2.0455,2.0088,1.9948,1.9873,1.9854,1.9788,1.9209,1.8366,1.8131,1.7553,1.672,1.718,1.7361,1.7089,1.6944,1.7088,1.7466,1.7242,1.6678,1.5996,1.6363,1.6283,1.5408,1.5182,1.5044,1.4885,1.4258,1.3847,1.3883,1.3777,1.3685,1.372,1.3685,1.3685,1.3685,1.3685,1.3685,1.3685,1.3587,1.3571,1.3695,1.3533,1.3484,1.3612,1.3459,1.3329,1.3402,1.3402,1.3402,1.3419,1.3465,1.349,1.341,1.3311,1.3256,1.3108,1.2913,1.2799,1.2799,1.2799,1.2799,1.2799,1.2799,1.2799,1.2799,1.2799,1.2799,1.2815,1.2872,1.288,1.2823,1.2856,1.2978,1.3084,1.3214,1.3309,1.3569,1.365,1.3739,1.388,1.3912,1.3912,1.3904,1.3904,1.3904,1.3912,1.3912,1.3928,1.4034,1.4091,1.4745,1.8603,1.8613,1.8308,1.8119,1.8018,1.78,1.7705,1.7673,1.7363,1.7329,1.7512,1.7496,1.771,1.8017,1.8375,1.8598,1.8639,1.8598,1.8501,1.8442,1.8517,1.8452,1.8296,1.8144,1.8062,1.794,1.7722,1.7506,1.7437,1.7274,1.7185,1.7169,1.706,1.6906,1.673,1.6584,1.6438,1.6226,1.6048,1.5894,1.5853,1.5545,1.5301,1.5114,1.4944,1.4854,1.4808,1.4589,1.4468,1.4497,1.4294,1.418,1.4172,1.4002,1.3904,1.3904,1.3904,1.3904,1.3904,1.3904,1.3904,1.3896,1.3747,1.3766,1.3823,1.366,1.3679,1.3823,1.3669,1.3522,1.3549,1.3549,1.3549,1.3557,1.3644,1.3644,1.3482,1.3417,1.3329,1.3116,1.2904,1.2799,1.2799,1.2799,1.2799,1.2799,1.2799,1.2799,1.2799,1.2799,1.2799,1.2799,1.2807,1.2807,1.2799,1.2815,1.2872,1.2978,1.3068,1.3214,1.3439,1.3504,1.3617,1.3747,1.388,1.3977,1.401,1.3993,1.3993,1.4002,1.4042,1.4115,1.4229,1.4131,1.4058,1.7473,1.7425,1.7206,1.6965,1.6595,1.6619,1.6784,1.7049,1.675,1.679,1.6989,1.7014,1.6932,1.6891,1.7773,1.8306,1.8475,1.8298,1.8225,1.8255,1.8217,1.8337,1.8459,1.8095,1.8014,1.8087,1.7794,1.757,1.7599,1.7453,1.7372,1.7364,1.7453,1.7344,1.7088,1.6998,1.6966,1.6679,1.6405,1.6194,1.5991,1.5845,1.5658,1.5488,1.5262,1.5148,1.5116,1.4879,1.4692,1.47,1.4383,1.4196,1.4208,1.4018,1.3912,1.3904,1.3904,1.3904,1.3904,1.3904,1.3904,1.3896,1.388,1.3888,1.3896,1.3855,1.3855,1.3896,1.3863,1.3839,1.3839,1.3815,1.3831,1.3839,1.3863,1.3747,1.3593,1.3433,1.3329,1.3108,1.2921,1.2791,1.2799,1.2799,1.2791,1.2799,1.2799,1.2799,1.2799,1.2799,1.2799,1.2799,1.2799,1.2799,1.2799,1.2799,1.2807,1.2856,1.2994,1.31,1.3222,1.336,1.3488,1.3666,1.3855,1.3985,1.4143,1.4208,1.418,1.4237,1.4399,1.4481,1.4424,1.4416,1.4302,1.7196,1.6932,1.6824,1.6714,1.651,1.632,1.63,1.6327,1.5884,1.5941,1.6274,1.6307,1.6459,1.6728,1.7169,1.7522,1.7757,1.7694,1.7849,1.8176,1.8176,1.8255,1.8296,1.8135,1.8046,1.7989,1.783,1.7651,1.7486,1.7413,1.7323,1.7201,1.7109,1.702,1.6906,1.6828,1.6738,1.6657,1.6422,1.6276,1.6202,1.604,1.5877,1.5796,1.5416,1.514,1.5065,1.4935,1.4909,1.4871,1.4643,1.4521,1.4489,1.4237,1.4026,1.392,1.3904,1.3904,1.3904,1.3904,1.3904,1.3904,1.3904,1.386,1.3904,1.3904,1.3904,1.3868,1.3868,1.3904,1.3904,1.3904,1.3904,1.3888,1.3763,1.3669,1.349,1.3303,1.3124,1.2946,1.2775,1.271,1.275,1.2735,1.271,1.2775,1.2766,1.2766,1.2799,1.2799,1.2774,1.2766,1.2799,1.2799,1.2799,1.2799,1.2807,1.2815,1.288,1.3003,1.3075,1.3181,1.3285,1.3465,1.3712,1.3923,1.4013,1.4221,1.4261,1.4456,1.4619,1.4619,1.4603,1.4513,1.4359,1.7073,1.6716,1.6642,1.6592,1.6429,1.6185,1.6017,1.5757,1.5411,1.5423,1.5617,1.5657,1.5884,1.618,1.6328,1.6557,1.6937,1.7163,1.739,1.7709,1.7709,1.7741,1.7827,1.7873,1.7911,1.783,1.7808,1.7721,1.7567,1.7445,1.7323,1.7201,1.7036,1.6947,1.6882,1.6803,1.673,1.6649,1.6487,1.6373,1.63,1.6145,1.6056,1.5975,1.5699,1.5399,1.5202,1.5129,1.5025,1.499,1.4806,1.4684,1.4557,1.4343,1.416,1.4002,1.3928,1.3904,1.386,1.3753,1.3682,1.3682,1.3611,1.3539,1.3539,1.3539,1.3547,1.3539,1.3539,1.3547,1.3531,1.3492,1.359,1.3792,1.3714,1.3536,1.3427,1.3239,1.3035,1.2865,1.2686,1.267,1.2742,1.2718,1.2669,1.2659,1.2642,1.2609,1.251,1.247,1.2477,1.247,1.2437,1.2404,1.2371,1.2346,1.2601,1.2675,1.2716,1.2822,1.2878,1.2968,1.3083,1.3262,1.3492,1.3712,1.392,1.418,1.4399,1.4594,1.4651,1.4659,1.4619,1.4562,1.4456,1.689,1.6682,1.6585,1.6449,1.6313,1.6137,1.5906,1.5649,1.5466,1.5336,1.5281,1.5228,1.5321,1.5281,1.541,1.553,1.6007,1.6554,1.6822,1.6829,1.6814,1.6896,1.7064,1.7311,1.7499,1.7624,1.7624,1.7663,1.7735,1.7514,1.7396,1.738,1.7331,1.7226,1.7112,1.7071,1.6998,1.6801,1.6657,1.6487,1.6324,1.6276,1.6186,1.6039,1.6096,1.5934,1.548,1.5294,1.5124,1.5023,1.4814,1.4627,1.4406,1.4192,1.4152,1.4083,1.3982,1.3885,1.3813,1.3491,1.3312,1.3289,1.3039,1.2896,1.2932,1.2896,1.2896,1.2932,1.2896,1.286,1.2873,1.2747,1.2965,1.367,1.3557,1.34,1.3316,1.3164,1.2985,1.2733,1.2548,1.2637,1.2734,1.2596,1.2449,1.2308,1.2274,1.2223,1.2008,1.1982,1.1876,1.1883,1.1982,1.2041,1.1949,1.185,1.2246,1.2543,1.2576,1.2641,1.264,1.2721,1.2836,1.3014,1.3571,1.3807,1.4042,1.4286,1.4448,1.4611,1.4643,1.4732,1.4741,1.4716,1.4667,1.67,1.6662,1.6476,1.6354,1.6279,1.6085,1.5811,1.5615,1.5371,1.5221,1.5187,1.5181,1.5181,1.5208,1.5282,1.5377,1.5436,1.5756,1.6175,1.6602,1.6673,1.6703,1.6787,1.6844,1.6937,1.7054,1.7312,1.7356,1.7282,1.739,1.751,1.7388,1.7258,1.7242,1.7238,1.7177,1.7071,1.7006,1.673,1.6594,1.647,1.6209,1.6064,1.6015,1.6056,1.5819,1.5271,1.5321,1.5302,1.5116,1.4984,1.4692,1.4251,1.3751,1.351,1.3495,1.3386,1.3287,1.3251,1.3178,1.3053,1.2926,1.2824,1.2789,1.2789,1.2717,1.2717,1.2753,1.2789,1.2789,1.2781,1.2751,1.2836,1.3103,1.29,1.2724,1.2666,1.2401,1.2163,1.1986,1.1817,1.1724,1.1771,1.1748,1.1794,1.1833,1.1831,1.1788,1.1787,1.1718,1.1817,1.1817,1.1817,1.1718,1.1652,1.1593,1.1799,1.2086,1.2194,1.2328,1.2344,1.2424,1.2563,1.2795,1.3354,1.3781,1.4095,1.4306,1.4414,1.4676,1.4789,1.4901,1.4958,1.4917,1.4789,1.6527,1.6581,1.6347,1.6225,1.6191,1.59,1.5689,1.5533,1.5296,1.5181,1.5181,1.5181,1.5181,1.5201,1.5282,1.5269,1.5194,1.5289,1.5606,1.6079,1.6119,1.6119,1.6166,1.6353,1.654,1.6713,1.6901,1.6911,1.6712,1.6901,1.6996,1.6886,1.6721,1.669,1.6821,1.6679,1.6585,1.6545,1.6309,1.616,1.6105,1.5842,1.5701,1.5701,1.575,1.549,1.508,1.5155,1.5041,1.4806,1.4601,1.4337,1.3961,1.3544,1.3304,1.3275,1.3193,1.3073,1.3021,1.2904,1.2445,1.1879,1.1613,1.1512,1.1458,1.1473,1.1671,1.2252,1.233,1.2366,1.2323,1.2294,1.2301,1.2359,1.2424,1.2308,1.2253,1.2037,1.1937,1.1824,1.1667,1.1531,1.1516,1.1466,1.1364,1.1453,1.1464,1.1381,1.1424,1.1347,1.1413,1.1413,1.1314,1.128,1.1354,1.1361,1.1375,1.1585,1.177,1.191,1.202,1.2163,1.2291,1.2421,1.2839,1.3224,1.3523,1.3976,1.422,1.4541,1.4832,1.4925,1.4925,1.4941,1.4876,1.6524,1.6497,1.6218,1.613,1.6103,1.5825,1.5628,1.5445,1.5276,1.5201,1.5187,1.5181,1.5181,1.5181,1.5201,1.5194,1.5181,1.5194,1.5248,1.5328,1.5321,1.5368,1.5415,1.5751,1.6072,1.6425,1.6454,1.6372,1.6313,1.6339,1.6113,1.6234,1.6137,1.5965,1.6055,1.5853,1.5815,1.5814,1.5395,1.5126,1.5075,1.4758,1.4614,1.4557,1.4543,1.4422,1.4034,1.3769,1.3841,1.3845,1.3314,1.2951,1.3199,1.323,1.2667,1.2567,1.2862,1.2459,1.2478,1.1881,1.1235,0.9844,0.9532,0.9274,0.9261,0.9361,0.9759,1.0815,1.1031,1.1103,1.1084,1.0976,1.1035,1.1465,1.1882,1.216,1.216,1.1971,1.1864,1.1908,1.1843,1.1681,1.1688,1.1589,1.1421,1.1216,1.1125,1.1026,1.0909,1.0883,1.0784,1.0817,1.0916,1.0998,1.1078,1.1106,1.1134,1.1347,1.1525,1.1632,1.1739,1.1865,1.2131,1.2285,1.2442,1.274,1.3169,1.3722,1.4119,1.442,1.4637,1.4776,1.4838,1.4862,1.4901,1.6533,1.6601,1.6374,1.6307,1.6361,1.609,1.5872,1.5758,1.5459,1.5296,1.5208,1.5181,1.5194,1.5181,1.5181,1.5181,1.5181,1.5181,1.5181,1.5181,1.5181,1.5181,1.5181,1.5321,1.5462,1.5643,1.5928,1.6004,1.5935,1.6121,1.6237,1.6322,1.6075,1.6031,1.6107,1.5876,1.5779,1.5433,1.4035,1.3352,1.3066,1.183,1.0977,1.0938,1.1028,1.0878,1.0372,0.9861,1.0534,1.1898,1.0409,0.9565,0.9749,0.9428,0.9364,0.941,0.9152,0.893,0.8943,0.892,0.8474,0.7933,0.7744,0.7635,0.7591,0.7607,0.781,0.8198,0.8203,0.8312,0.8271,0.8318,0.8755,0.9844,1.0802,1.1558,1.1636,1.1511,1.1358,1.1247,1.1212,1.1155,1.1056,1.1012,1.093,1.0792,1.0747,1.0747,1.0737,1.0744,1.0758,1.0731,1.0771,1.0799,1.0846,1.088,1.0989,1.1193,1.1338,1.1421,1.1503,1.1597,1.198,1.234,1.2442,1.269,1.3228,1.3785,1.405,1.4203,1.4594,1.4788,1.48,1.483,1.483,1.6449,1.6456,1.6286,1.6259,1.6307,1.6083,1.5983,1.5874,1.5615,1.5425,1.5316,1.535,1.5303,1.5194,1.5248,1.5242,1.5187,1.5181,1.5181,1.5181,1.5181,1.5181,1.5181,1.5181,1.5181,1.5228,1.5469,1.5561,1.5538,1.575,1.585,1.5814,1.5732,1.5624,1.55,1.5428,1.4809,1.3876,1.2682,1.1908,1.0879,0.9723,0.9177,0.895,0.891,0.8683,0.834,0.7379,0.7778,0.9124,0.8616,0.7859,0.7816,0.758,0.7425,0.7513,0.7425,0.7423,0.7318,0.733,0.6934,0.6334,0.6104,0.6097,0.6045,0.6066,0.6115,0.7027,0.6958,0.697,0.7002,0.7002,0.7404,0.823,0.9082,1.0078,1.1271,1.1451,1.1328,1.1212,1.113,1.1084,1.0873,1.0846,1.0744,1.0731,1.0832,1.0798,1.0744,1.0785,1.0799,1.0819,1.0833,1.0907,1.0982,1.1056,1.1076,1.1274,1.137,1.1396,1.1426,1.1483,1.1657,1.2037,1.2309,1.2648,1.3059,1.3401,1.3641,1.3923,1.4429,1.4675,1.4611,1.4656,1.4694,1.6232,1.6103,1.6103,1.6117,1.613,1.6024,1.5996,1.5928,1.5737,1.5574,1.5479,1.5526,1.5452,1.5215,1.5337,1.5323,1.5181,1.5181,1.5181,1.5181,1.5181,1.504,1.4563,1.504,1.5181,1.5181,1.5181,1.5221,1.5294,1.5261,1.5033,1.4759,1.4613,1.4309,1.3701,1.3794,1.2957,1.1481,1.0769,0.9819,0.8554,0.7718,0.7207,0.716,0.7077,0.7049,0.6727,0.5929,0.568,0.7003,0.7031,0.6719,0.679,0.6861,0.6811,0.6616,0.6453,0.6463,0.6652,0.6379,0.6151,0.4807,0.4654,0.4654,0.4539,0.4508,0.4898,0.5837,0.648,0.6086,0.6137,0.6427,0.6608,0.6861,0.693,0.8451,1.0347,1.1253,1.1397,1.1577,1.1484,1.143,1.1362,1.1274,1.1159,1.0934,1.0995,1.1029,1.1016,1.107,1.1063,1.107,1.1076,1.1076,1.1179,1.1246,1.1314,1.1431,1.1484,1.1525,1.145,1.1452,1.1425,1.1598,1.1976,1.2246,1.2462,1.2796,1.3194,1.3547,1.3976,1.4176,1.4283,1.4383,1.4413,1.6293,1.6259,1.6266,1.6327,1.6395,1.6273,1.6205,1.6171,1.5913,1.5529,1.5525,1.5532,1.5341,1.5167,1.5003,1.5323,1.4872,1.4852,1.5181,1.5181,1.5181,1.4187,1.3522,1.4134,1.4993,1.4946,1.5087,1.5087,1.504,1.4563,1.4322,1.294,1.2676,1.1907,1.0593,1.0657,0.9972,0.9038,0.7982,0.7165,0.6329,0.5089,0.4436,0.4351,0.4218,0.401,0.3829,0.3409,0.334,0.3596,0.3826,0.4057,0.4009,0.3902,0.3925,0.3962,0.3805,0.3722,0.3638,0.3836,0.3484,0.3297,0.3201,0.3,0.2989,0.3029,0.3115,0.3388,0.3368,0.3682,0.3766,0.4587,0.5059,0.5353,0.6105,0.7042,0.8018,0.9105,1.0161,1.1025,1.14,1.1489,1.1381,1.1354,1.128,1.1172,1.1206,1.1329,1.1314,1.1335,1.1333,1.134,1.1354,1.1367,1.1401,1.147,1.147,1.1511,1.1586,1.1577,1.1538,1.1511,1.1484,1.1558,1.1708,1.1933,1.2162,1.2499,1.2937,1.3259,1.3485,1.3662,1.3846,1.3992,1.4145,1.6198,1.6205,1.6205,1.6246,1.63,1.6232,1.6198,1.5971,1.4937,1.4385,1.3994,1.3286,1.2671,1.2502,1.2543,1.2429,1.2422,1.2361,1.2292,1.2245,1.2245,1.1721,1.1154,1.1673,1.2339,1.2339,1.2245,1.2339,1.2339,1.2386,1.1632,1.0866,1.0729,1.024,0.9093,0.8847,0.8424,0.7383,0.645,0.5492,0.4383,0.3547,0.2905,0.2881,0.2808,0.2746,0.28,0.2728,0.2672,0.2654,0.2612,0.2613,0.2596,0.2532,0.2517,0.2514,0.2514,0.2514,0.2514,0.2514,0.2592,0.2514,0.2497,0.2493,0.2484,0.2462,0.2442,0.2459,0.2483,0.2429,0.2376,0.2911,0.3567,0.3742,0.4306,0.509,0.5956,0.7295,0.8456,0.9435,0.9939,1.0233,1.0477,1.0796,1.1275,1.1168,1.1455,1.1565,1.1436,1.147,1.159,1.1631,1.1644,1.1665,1.1685,1.1665,1.1619,1.1597,1.1604,1.1604,1.1586,1.1592,1.1599,1.1631,1.1685,1.1773,1.2015,1.2387,1.2601,1.2754,1.2956,1.3146,1.3359,1.3602,1.3754,1.513,1.513,1.5124,1.5137,1.5149,1.5043,1.49,1.4713,1.3201,1.2308,1.195,1.0254,1.0059,0.9452,0.9618,0.9344,0.9355,0.9404,0.9784,0.9784,0.9784,0.9311,0.8932,0.8838,0.8648,0.8317,0.9264,0.9453,0.95,0.9074,0.9453,0.879,0.8648,0.8098,0.7993,0.7975,0.6981,0.5493,0.525,0.4683,0.3433,0.3011,0.2963,0.2881,0.2833,0.277,0.2739,0.2669,0.2697,0.269,0.2639,0.2601,0.2571,0.2534,0.2514,0.2514,0.2514,0.2514,0.2514,0.2514,0.2514,0.2514,0.2514,0.2512,0.2506,0.2491,0.2473,0.2495,0.2439,0.2416,0.2414,0.2575,0.2522,0.2513,0.2418,0.2953,0.4148,0.5558,0.621,0.7404,0.8348,0.8873,0.9419,0.9869,1.0578,1.1213,1.1507,1.1746,1.1647,1.164,1.1803,1.1932,1.1952,1.1959,1.1979,1.1864,1.1789,1.1671,1.1665,1.1617,1.1584,1.1584,1.1584,1.1604,1.1658,1.1775,1.187,1.2124,1.2278,1.2285,1.2502,1.2831,1.3037,1.3221,1.3386,1.0763,1.0763,1.0763,1.0854,1.0959,1.0845,1.105,1.0845,1.0496,1.0132,1.0007,0.964,0.912,0.91,0.9212,0.9164,0.8588,0.8419,0.8601,0.8601,0.8506,0.7985,0.6755,0.6565,0.5853,0.5427,0.685,0.8554,0.8696,0.9027,0.7751,0.685,0.6612,0.5934,0.4844,0.413,0.4461,0.3975,0.3818,0.3386,0.3094,0.29,0.289,0.2863,0.2837,0.28,0.2711,0.2692,0.2677,0.2692,0.2617,0.2598,0.2613,0.2557,0.2525,0.2518,0.2515,0.2514,0.2514,0.2514,0.2514,0.2514,0.2514,0.2514,0.2512,0.2508,0.2493,0.2472,0.2447,0.2418,0.2426,0.2429,0.2369,0.2352,0.2342,0.2445,0.2846,0.3387,0.4436,0.5993,0.6861,0.744,0.7914,0.8636,0.9546,1.0275,1.0868,1.1401,1.1719,1.183,1.2006,1.2128,1.2223,1.2223,1.223,1.2054,1.1918,1.1775,1.1685,1.1604,1.1584,1.1584,1.159,1.1604,1.1617,1.1701,1.1816,1.1932,1.2104,1.2213,1.2374,1.2567,1.2741,1.2902,1.2975,0.9707,0.9707,0.9707,0.9731,0.9802,0.9678,0.9662,0.9528,0.8473,0.7931,0.7616,0.6833,0.618,0.611,0.6102,0.6019,0.6098,0.5998,0.5995,0.5995,0.59,0.5615,0.4668,0.4621,0.4051,0.3813,0.5142,0.6138,0.5995,0.59,0.5617,0.4904,0.4573,0.4002,0.3332,0.3223,0.3016,0.2983,0.2957,0.2934,0.2917,0.29,0.2886,0.2878,0.2868,0.2798,0.2751,0.2766,0.2747,0.2714,0.263,0.2611,0.259,0.2598,0.2552,0.254,0.2525,0.2514,0.2514,0.2514,0.2514,0.2514,0.2515,0.2514,0.2514,0.2512,0.2507,0.2493,0.2485,0.2465,0.2454,0.247,0.2418,0.2402,0.2376,0.2358,0.2353,0.2343,0.3395,0.4771,0.5313,0.5785,0.6069,0.701,0.8275,0.9226,1.0025,1.0791,1.1481,1.169,1.1742,1.2101,1.2155,1.2213,1.2155,1.2033,1.1952,1.1843,1.1692,1.1611,1.1584,1.1584,1.1584,1.1584,1.164,1.1687,1.1687,1.1782,1.1959,1.2121,1.2207,1.2288,1.2451,1.2585,1.2718,0.8396,0.8385,0.8399,0.8407,0.8392,0.8339,0.8215,0.7946,0.6447,0.5734,0.5478,0.4122,0.3342,0.3203,0.3272,0.3243,0.31,0.3291,0.3432,0.3527,0.3527,0.3243,0.3148,0.31,0.3148,0.3243,0.3385,0.31,0.3623,0.3623,0.3291,0.3338,0.3195,0.31,0.3094,0.3082,0.3017,0.2992,0.2964,0.2934,0.2919,0.2916,0.2912,0.2908,0.2906,0.2878,0.2781,0.2793,0.2765,0.2687,0.2649,0.2615,0.261,0.2586,0.2601,0.2577,0.2544,0.2525,0.2514,0.2514,0.2518,0.2527,0.2525,0.2526,0.2532,0.2534,0.2522,0.2517,0.2511,0.2503,0.2487,0.2518,0.2502,0.2444,0.241,0.2423,0.2382,0.2373,0.2358,0.327,0.3732,0.416,0.4486,0.5419,0.6721,0.7376,0.8152,0.9621,1.0305,1.0846,1.1118,1.1774,1.2006,1.2064,1.1993,1.1904,1.1864,1.1843,1.1692,1.159,1.1584,1.1584,1.159,1.1617,1.1658,1.1685,1.1674,1.1728,1.1993,1.2135,1.2054,1.2196,1.2556,1.2691,1.2797,0.3968,0.3992,0.4023,0.3934,0.4134,0.4226,0.4075,0.4111,0.3848,0.3486,0.3765,0.3326,0.3111,0.3112,0.311,0.31,0.31,0.31,0.31,0.31,0.31,0.31,0.31,0.31,0.31,0.31,0.31,0.31,0.3104,0.3106,0.31,0.31,0.3103,0.31,0.3099,0.3092,0.3033,0.301,0.2996,0.2966,0.2879,0.2915,0.2901,0.2887,0.2881,0.287,0.2836,0.2806,0.2774,0.2742,0.2664,0.2687,0.2683,0.2617,0.2602,0.2581,0.2589,0.2544,0.2523,0.2519,0.2529,0.2545,0.2592,0.2607,0.2566,0.2597,0.2579,0.2515,0.2514,0.2506,0.2491,0.2514,0.2495,0.2446,0.2431,0.2418,0.2416,0.2399,0.2386,0.2416,0.3113,0.2944,0.2971,0.4053,0.5056,0.5637,0.6438,0.7906,0.9195,0.9795,1.0413,1.0988,1.1814,1.1952,1.1972,1.1864,1.1807,1.185,1.1789,1.1694,1.1748,1.1775,1.1658,1.1685,1.1732,1.18,1.1864,1.1972,1.2142,1.225,1.2305,1.2542,1.2854,1.2901,1.2881,0.3193,0.3213,0.3225,0.3221,0.3205,0.3189,0.3121,0.3148,0.3111,0.3092,0.3136,0.3114,0.31,0.31,0.31,0.31,0.31,0.31,0.31,0.31,0.31,0.31,0.31,0.31,0.31,0.3103,0.3103,0.3114,0.3119,0.3124,0.3119,0.3104,0.3115,0.3115,0.3101,0.31,0.3093,0.3074,0.2999,0.296,0.2924,0.2901,0.2887,0.2921,0.2889,0.2878,0.2853,0.2825,0.2795,0.2761,0.2721,0.2692,0.269,0.2679,0.2625,0.2603,0.2585,0.2589,0.2549,0.2582,0.2549,0.256,0.2613,0.2581,0.2579,0.2608,0.2588,0.2517,0.2514,0.2506,0.2497,0.2495,0.2488,0.2474,0.2455,0.2451,0.2444,0.2427,0.2413,0.2408,0.2402,0.2387,0.2334,0.2978,0.4001,0.4745,0.5323,0.6301,0.7788,0.8993,0.9599,1.0174,1.1092,1.1898,1.1932,1.1911,1.1911,1.1925,1.1986,1.1932,1.1993,1.1986,1.1911,1.1898,1.1979,1.2033,1.2067,1.2142,1.225,1.2427,1.2578,1.2793,1.2963,1.3098,1.3105,0.3119,0.3158,0.3158,0.3197,0.3176,0.3103,0.3133,0.3108,0.3129,0.3114,0.3108,0.3104,0.31,0.31,0.31,0.31,0.31,0.31,0.3106,0.3107,0.3104,0.3106,0.3108,0.3108,0.3106,0.3111,0.3115,0.313,0.3104,0.3112,0.3154,0.3114,0.3119,0.3118,0.3106,0.31,0.3097,0.3093,0.306,0.302,0.2934,0.2911,0.2891,0.2886,0.289,0.2896,0.2919,0.2844,0.2812,0.2778,0.2735,0.2705,0.2694,0.2688,0.268,0.2621,0.2606,0.2583,0.2593,0.2578,0.2575,0.2587,0.2601,0.2615,0.2578,0.261,0.2599,0.2532,0.2517,0.2515,0.2514,0.2512,0.2508,0.25,0.2491,0.2485,0.2516,0.2462,0.2447,0.2438,0.2432,0.2425,0.2367,0.234,0.2965,0.3829,0.4453,0.4949,0.6194,0.7696,0.8408,0.8931,1.0105,1.0983,1.1257,1.1406,1.1617,1.2047,1.2145,1.2179,1.2227,1.2241,1.2155,1.2213,1.2227,1.2196,1.2203,1.2271,1.2352,1.2542,1.2725,1.2854,1.2996,1.3105,1.322,0.3096,0.31,0.31,0.3099,0.3096,0.3095,0.3092,0.3125,0.3101,0.3137,0.313,0.3114,0.31,0.31,0.31,0.31,0.31,0.31,0.3112,0.3119,0.3118,0.3115,0.3118,0.3117,0.3117,0.3136,0.3093,0.3112,0.3137,0.3153,0.3134,0.3103,0.3091,0.3114,0.31,0.31,0.31,0.3097,0.3079,0.3052,0.3017,0.2991,0.2968,0.2885,0.2878,0.292,0.2917,0.2845,0.2819,0.2789,0.2755,0.2733,0.272,0.2705,0.2697,0.2695,0.2626,0.261,0.2598,0.2617,0.2575,0.2598,0.2656,0.2649,0.2598,0.2597,0.2585,0.2597,0.2538,0.2527,0.2522,0.2515,0.2522,0.2518,0.2512,0.2503,0.25,0.2502,0.2487,0.251,0.25,0.2458,0.2414,0.239,0.2412,0.3211,0.3323,0.3798,0.478,0.6094,0.683,0.7642,0.8937,0.9768,1.021,1.0629,1.1479,1.2058,1.2345,1.2352,1.2352,1.2352,1.2332,1.2345,1.2338,1.2338,1.2352,1.24,1.2494,1.2671,1.284,1.3003,1.3091,1.3214,1.3248,0.3135,0.3136,0.3136,0.3099,0.3115,0.3115,0.3104,0.3136,0.3122,0.3118,0.3118,0.3106,0.31,0.31,0.31,0.31,0.31,0.31,0.311,0.3111,0.3108,0.3108,0.3115,0.3128,0.3136,0.3101,0.3116,0.3153,0.3144,0.3185,0.3182,0.3159,0.3126,0.3133,0.3115,0.3101,0.31,0.3094,0.3083,0.3009,0.2992,0.2949,0.2923,0.2904,0.2878,0.292,0.287,0.2844,0.2825,0.2807,0.2781,0.2769,0.2757,0.2735,0.2728,0.2735,0.2702,0.2648,0.2649,0.2621,0.2603,0.2668,0.2682,0.2668,0.2613,0.2577,0.26,0.2578,0.2564,0.2556,0.2564,0.2552,0.2584,0.2537,0.2532,0.2523,0.2518,0.2521,0.2512,0.2492,0.2492,0.2493,0.2488,0.2481,0.2466,0.257,0.2569,0.2757,0.3754,0.4522,0.5296,0.6131,0.7372,0.8647,0.9181,1.0219,1.1372,1.194,1.2381,1.2439,1.2373,1.2461,1.2447,1.2467,1.2488,1.2501,1.2515,1.2535,1.2617,1.2745,1.2963,1.3193,1.3247,1.3309,1.3322,0.31,0.31,0.31,0.3111,0.3132,0.3132,0.3119,0.3103,0.3101,0.31,0.31,0.31,0.31,0.31,0.31,0.31,0.31,0.3101,0.3107,0.3108,0.3108,0.3107,0.3118,0.3133,0.31,0.3115,0.3104,0.3148,0.3236,0.3201,0.3202,0.3154,0.3131,0.3126,0.3126,0.3103,0.31,0.3093,0.3082,0.3013,0.3002,0.2961,0.2924,0.2913,0.2889,0.292,0.2871,0.2855,0.284,0.2825,0.281,0.2804,0.2791,0.2734,0.2761,0.2758,0.2752,0.2735,0.2697,0.2673,0.2634,0.2632,0.2687,0.2662,0.2597,0.2593,0.2578,0.2585,0.2585,0.2589,0.2586,0.2597,0.2593,0.2549,0.256,0.2555,0.254,0.2536,0.2525,0.2511,0.2512,0.251,0.2507,0.25,0.2497,0.2487,0.2523,0.256,0.2872,0.3496,0.3891,0.4735,0.5722,0.702,0.8229,0.9041,0.9898,1.115,1.164,1.222,1.2305,1.2428,1.2535,1.2515,1.2549,1.263,1.2691,1.2739,1.2759,1.2819,1.3003,1.322,1.339,1.341,1.3417,0.31,0.31,0.31,0.3101,0.3104,0.3101,0.3101,0.31,0.31,0.31,0.31,0.31,0.31,0.31,0.31,0.31,0.31,0.3101,0.311,0.3122,0.311,0.3117,0.3136,0.3104,0.3126,0.3103,0.3148,0.3246,0.327,0.3255,0.325,0.3228,0.3198,0.315,0.3097,0.3114,0.31,0.31,0.3096,0.3033,0.3011,0.2979,0.295,0.2923,0.2902,0.2937,0.2881,0.2885,0.2871,0.2848,0.2841,0.2831,0.2816,0.2734,0.277,0.2841,0.2831,0.2793,0.2815,0.2722,0.2673,0.263,0.2683,0.2673,0.2611,0.2605,0.2598,0.2607,0.2596,0.2568,0.2552,0.2589,0.2606,0.2572,0.2583,0.2577,0.2562,0.2588,0.2537,0.2538,0.2526,0.2515,0.2515,0.2515,0.2519,0.2517,0.2514,0.2514,0.2554,0.2745,0.3139,0.3554,0.445,0.5441,0.6634,0.7421,0.8433,0.9778,1.0822,1.1382,1.2061,1.2476,1.2514,1.2557,1.2691,1.284,1.2908,1.2963,1.2996,1.3037,1.3017,1.3186,1.339,1.3553,1.3573,0.31,0.31,0.31,0.31,0.31,0.31,0.31,0.31,0.31,0.31,0.31,0.31,0.31,0.31,0.31,0.31,0.31,0.31,0.3111,0.3112,0.3106,0.3121,0.3097,0.3134,0.316,0.3191,0.3243,0.3276,0.3275,0.3279,0.3275,0.3253,0.3208,0.3156,0.3104,0.3117,0.31,0.31,0.3099,0.3093,0.3035,0.3006,0.2976,0.2946,0.298,0.2964,0.2905,0.2915,0.2909,0.2887,0.2883,0.2883,0.2872,0.2838,0.2829,0.2859,0.286,0.2816,0.2819,0.2785,0.2742,0.2703,0.2684,0.2682,0.2613,0.2626,0.2656,0.2645,0.2638,0.2627,0.2643,0.2623,0.2623,0.2611,0.2569,0.259,0.2574,0.2603,0.2596,0.2566,0.2563,0.2552,0.2548,0.2553,0.2556,0.2512,0.2551,0.2544,0.2582,0.2526,0.2755,0.2778,0.3313,0.4152,0.5006,0.5761,0.6875,0.8294,0.9492,1.0442,1.1185,1.2039,1.2622,1.2741,1.2895,1.3057,1.3173,1.3268,1.3302,1.3322,1.337,1.3383,1.3553,1.3695,1.3707,0.31,0.31,0.31,0.31,0.31,0.31,0.31,0.31,0.31,0.31,0.31,0.31,0.31,0.31,0.31,0.31,0.31,0.31,0.31,0.3101,0.3114,0.3129,0.3112,0.3157,0.3186,0.3221,0.327,0.3309,0.3295,0.3292,0.3277,0.3249,0.3213,0.3174,0.3129,0.3147,0.3118,0.3117,0.3111,0.3099,0.3088,0.3022,0.2996,0.2979,0.3011,0.2996,0.2988,0.2991,0.2999,0.2938,0.2935,0.2941,0.2932,0.2906,0.2885,0.2904,0.2913,0.287,0.2859,0.2849,0.2797,0.2718,0.271,0.2657,0.2642,0.2657,0.2654,0.2649,0.2691,0.2682,0.2676,0.2615,0.2618,0.2606,0.2638,0.262,0.2616,0.2607,0.2587,0.2597,0.2593,0.2585,0.2585,0.2593,0.26,0.2552,0.2547,0.2581,0.2614,0.2555,0.2544,0.2562,0.2614,0.3301,0.3745,0.4031,0.5296,0.6765,0.7833,0.8823,1.0423,1.1299,1.213,1.2903,1.301,1.3185,1.345,1.3593,1.3654,1.3743,1.3844,1.3838,1.3797,1.3838,1.3869,0.31,0.31,0.31,0.31,0.31,0.31,0.31,0.31,0.31,0.31,0.31,0.31,0.31,0.31,0.31,0.31,0.31,0.31,0.3104,0.3111,0.3129,0.3096,0.3125,0.3167,0.3201,0.324,0.3281,0.3311,0.3315,0.3296,0.3269,0.3245,0.3215,0.3195,0.3172,0.3141,0.3107,0.3136,0.3112,0.3103,0.3093,0.3028,0.3011,0.2998,0.3032,0.3022,0.3016,0.3018,0.3017,0.3011,0.2964,0.301,0.2992,0.2953,0.2905,0.2916,0.2943,0.293,0.2906,0.2894,0.2851,0.277,0.2701,0.2697,0.2685,0.2679,0.2679,0.2673,0.2669,0.2644,0.2624,0.2637,0.2691,0.2684,0.2677,0.2673,0.2673,0.2658,0.2631,0.2622,0.2612,0.2611,0.2583,0.2591,0.2591,0.2597,0.2593,0.2637,0.2624,0.2593,0.2585,0.2593,0.2601,0.26,0.2884,0.3209,0.3657,0.5099,0.5791,0.6849,0.8626,1.0142,1.0669,1.1393,1.2663,1.3294,1.3644,1.3892,1.4034,1.4116,1.4095,1.4089,1.3994,1.4021,1.4095,0.31,0.31,0.31,0.31,0.31,0.31,0.31,0.31,0.31,0.31,0.31,0.31,0.31,0.31,0.31,0.31,0.31,0.3103,0.3117,0.313,0.3099,0.3127,0.316,0.3195,0.322,0.3197,0.3229,0.3299,0.3266,0.326,0.3272,0.3258,0.3227,0.3228,0.3217,0.319,0.3145,0.3104,0.3122,0.3106,0.31,0.3088,0.3074,0.3013,0.3065,0.3056,0.2999,0.3058,0.3057,0.2996,0.2994,0.2994,0.299,0.2958,0.2945,0.2992,0.3,0.2992,0.2916,0.2878,0.2844,0.2822,0.2795,0.2743,0.2728,0.2685,0.2699,0.2704,0.2699,0.2681,0.2673,0.2681,0.2722,0.271,0.2701,0.269,0.2688,0.2676,0.2652,0.2653,0.2643,0.2601,0.2615,0.2615,0.2617,0.2629,0.2637,0.2638,0.2673,0.2642,0.2638,0.2646,0.2643,0.2646,0.2631,0.2873,0.2954,0.3324,0.4199,0.5129,0.658,0.7935,0.8771,1.0068,1.162,1.2882,1.388,1.4031,1.4075,1.4163,1.4163,1.419,1.4204,1.4197,1.4204,0.31,0.31,0.31,0.31,0.31,0.31,0.31,0.31,0.31,0.31,0.31,0.31,0.31,0.31,0.31,0.31,0.3101,0.3117,0.313,0.3093,0.312,0.3152,0.3189,0.3216,0.3236,0.3258,0.3273,0.3285,0.3249,0.3183,0.3242,0.325,0.3184,0.3243,0.3235,0.3204,0.3172,0.3133,0.3099,0.3117,0.3104,0.3101,0.3086,0.3079,0.3093,0.3085,0.3028,0.3094,0.3086,0.3074,0.3025,0.3025,0.302,0.2996,0.2979,0.2977,0.3011,0.2956,0.2934,0.2911,0.2882,0.2859,0.2841,0.2804,0.2763,0.2752,0.2776,0.2792,0.2782,0.2731,0.2731,0.2728,0.2752,0.2735,0.2716,0.2654,0.2646,0.2638,0.268,0.2684,0.2682,0.2636,0.2637,0.2636,0.2644,0.266,0.2664,0.266,0.2658,0.2645,0.2697,0.2713,0.2705,0.2697,0.2679,0.2668,0.2762,0.2937,0.3276,0.4178,0.5094,0.6257,0.7607,0.9128,1.0747,1.2051,1.3433,1.3814,1.3987,1.4095,1.4234,1.4197,1.4217,1.4258,1.4272,0.31,0.31,0.31,0.3103,0.3104,0.3101,0.31,0.31,0.31,0.31,0.31,0.31,0.31,0.31,0.31,0.31,0.3108,0.3125,0.3096,0.3104,0.3152,0.3185,0.32,0.3217,0.3236,0.3261,0.327,0.3265,0.3262,0.3247,0.3182,0.3232,0.318,0.3238,0.324,0.3215,0.3189,0.3167,0.3126,0.3091,0.3112,0.3104,0.31,0.3099,0.31,0.3097,0.3097,0.31,0.31,0.31,0.3099,0.3096,0.3093,0.3035,0.3022,0.3006,0.2992,0.3018,0.3006,0.2988,0.2955,0.2891,0.2881,0.2855,0.2822,0.2797,0.2819,0.2827,0.2777,0.2823,0.2823,0.2827,0.2816,0.2793,0.277,0.2705,0.2732,0.2718,0.2661,0.2703,0.2694,0.2691,0.2653,0.2652,0.2648,0.2676,0.268,0.2671,0.2677,0.2673,0.2684,0.275,0.2728,0.2714,0.2728,0.2722,0.2743,0.2836,0.2953,0.3301,0.4252,0.5418,0.6669,0.7988,0.9327,1.1373,1.2724,1.3318,1.3837,1.4102,1.4177,1.4183,1.4231,1.4319,1.4312,0.31,0.31,0.31,0.3112,0.313,0.311,0.31,0.31,0.31,0.31,0.31,0.31,0.31,0.31,0.31,0.31,0.3107,0.3136,0.3111,0.3133,0.3172,0.3195,0.3213,0.322,0.3183,0.3238,0.3242,0.3245,0.3243,0.3238,0.324,0.3257,0.3246,0.3236,0.3253,0.3227,0.3208,0.3191,0.3156,0.3118,0.3091,0.3112,0.31,0.31,0.31,0.31,0.31,0.31,0.31,0.31,0.31,0.3111,0.313,0.3077,0.3063,0.3092,0.3076,0.305,0.3022,0.3013,0.2991,0.2968,0.2911,0.2894,0.2876,0.2861,0.2855,0.2859,0.2863,0.2867,0.2871,0.2875,0.2874,0.2848,0.2823,0.2799,0.2776,0.2754,0.2689,0.2676,0.2706,0.2706,0.271,0.271,0.2703,0.2703,0.2702,0.2703,0.2681,0.2687,0.268,0.2692,0.2717,0.2713,0.274,0.2755,0.2762,0.2758,0.2827,0.3144,0.3554,0.4193,0.5082,0.6357,0.7826,1.0077,1.2013,1.315,1.3664,1.4042,1.4231,1.4265,1.4367,1.4468,1.4394,0.31,0.3101,0.3115,0.3091,0.3108,0.3133,0.3119,0.3118,0.3107,0.31,0.31,0.31,0.31,0.31,0.31,0.3101,0.311,0.31,0.3122,0.3148,0.3172,0.3193,0.3208,0.3216,0.321,0.3213,0.3227,0.3231,0.3179,0.318,0.324,0.3253,0.3238,0.3238,0.3254,0.3236,0.3223,0.3206,0.3176,0.3146,0.3114,0.3129,0.3103,0.31,0.31,0.31,0.31,0.31,0.31,0.31,0.31,0.3117,0.3135,0.3092,0.3086,0.3121,0.3103,0.3079,0.3046,0.2984,0.2979,0.3004,0.2958,0.2949,0.2928,0.2956,0.2886,0.2889,0.2891,0.2896,0.2889,0.289,0.2879,0.2859,0.2837,0.2815,0.2806,0.2795,0.2773,0.2755,0.2744,0.2736,0.2742,0.2746,0.2743,0.2746,0.2736,0.2724,0.2696,0.2711,0.2701,0.2692,0.2728,0.2732,0.2759,0.2765,0.2761,0.2754,0.2697,0.2867,0.313,0.297,0.345,0.5196,0.7075,0.9159,1.094,1.2582,1.365,1.4167,1.4299,1.4367,1.4489,1.4611,1.457,0.3103,0.311,0.3129,0.3108,0.313,0.3104,0.3089,0.3133,0.3111,0.31,0.31,0.31,0.3101,0.3106,0.3106,0.3106,0.3118,0.3103,0.3129,0.3149,0.3175,0.3195,0.3202,0.32,0.3204,0.321,0.3221,0.3228,0.3179,0.318,0.318,0.3179,0.3179,0.3231,0.3179,0.3179,0.3225,0.3217,0.3195,0.317,0.3131,0.3137,0.3114,0.3104,0.31,0.31,0.31,0.31,0.31,0.3104,0.3108,0.313,0.3104,0.3118,0.312,0.3111,0.315,0.3071,0.3041,0.3036,0.3011,0.2994,0.3006,0.2998,0.302,0.2999,0.2928,0.2913,0.2917,0.2915,0.2908,0.2904,0.2891,0.2876,0.2857,0.2852,0.2851,0.2842,0.2821,0.28,0.2789,0.278,0.278,0.2784,0.2787,0.2791,0.2787,0.2774,0.277,0.2784,0.2787,0.2778,0.277,0.2778,0.2772,0.2762,0.2748,0.2737,0.2724,0.2717,0.272,0.2793,0.3333,0.4641,0.6559,0.8631,1.0634,1.2394,1.3343,1.4288,1.4434,1.4498,1.4672,1.4767,1.4774,0.3115,0.3136,0.3118,0.3128,0.31,0.3122,0.3108,0.3108,0.3104,0.31,0.3103,0.3103,0.3111,0.3089,0.3089,0.3133,0.3126,0.3106,0.3125,0.3145,0.3163,0.3193,0.3209,0.3202,0.3219,0.3224,0.3225,0.3228,0.3179,0.3179,0.3179,0.3179,0.3179,0.3179,0.3179,0.3179,0.323,0.3223,0.3206,0.3178,0.3148,0.311,0.3126,0.3111,0.31,0.31,0.31,0.31,0.31,0.3107,0.3121,0.3097,0.3118,0.3138,0.3146,0.3146,0.3138,0.312,0.305,0.3046,0.307,0.3075,0.3079,0.3067,0.3047,0.2987,0.296,0.293,0.293,0.2927,0.2923,0.2975,0.2967,0.2906,0.2889,0.2916,0.2931,0.2906,0.2879,0.2866,0.2856,0.2846,0.2838,0.2841,0.284,0.2841,0.2838,0.2829,0.2834,0.2834,0.283,0.2818,0.281,0.2759,0.2727,0.2733,0.2725,0.2716,0.272,0.2735,0.275,0.2767,0.3479,0.4207,0.6066,0.8249,1.0175,1.1892,1.3464,1.4323,1.4527,1.4681,1.4855,1.4923,1.4923]},{"header":{"parameterUnit":"m.s-1","parameterCategory":1,"la1":31.0,"la2":29.5877,"lo1":-88.7671,"lo2":-86.6584,"dx":0.0162,"dy":0.0185,"nx":115,"ny":88,"refTime":"2023-01-22T06:00:00:Z","depth":0,"parameterNumber":3,"parameterNumberName":"V-component_of_WINDS"},"data":[0.0,0.0,0.0,0.0,0.0,0.0,0.0,0.0,0.0,0.0,0.0,0.0,0.0,0.0,0.0,0.0,0.0,0.0,0.0,0.0,0.0,0.0,0.0,0.0,0.0,0.0,0.0,0.0,0.0,0.0,0.0,0.0,0.0,0.0,0.0,0.0,0.0,0.0,0.0,0.0,0.0,0.0,0.0,0.0,0.0,0.0,0.0,0.0,0.0,0.0,0.0,0.0,0.0,0.0,0.0,0.0,0.0,0.0,0.0,0.0,0.0,0.0,0.0,0.0,0.0,0.0,0.0,0.0,0.0,0.0,0.0,0.0,0.0,0.0,0.0,0.0,0.0,0.0,0.0,0.0,0.0,0.0,0.0,0.0,0.0,0.0,0.0,0.0,0.0,0.0,0.0,0.0,0.0,0.0,0.0,0.0,0.0,0.0,0.0,0.0,0.0,0.0,0.0,0.0,0.0,0.0,0.0,0.0,0.0,0.0,0.0,0.0,0.0,0.0,0.0,0.0,0.0,0.0,0.0,0.0,0.0,0.0,0.0,0.0,0.0,0.0,0.0,0.0,0.0,0.0,0.0,0.0,0.0,0.0,0.0,0.0,0.0,0.0,0.0,0.0,0.0,0.0,0.0,0.0,0.0,0.0,0.0,0.0,0.0,0.0,0.0,0.0,0.0,0.0,0.0,0.0,0.0,0.0,0.0,0.0,0.0,0.0,0.0,0.0,0.0,0.0,0.0,0.0,0.0,0.0,0.0,0.0,0.0,0.0,0.0,0.0,0.0,0.0,0.0,0.0,0.0,0.0,0.0,0.0,0.0,0.0,0.0,0.0,0.0,0.0,0.0,0.0,0.0,0.0,0.0,0.0,0.0,0.0,0.0,0.0,0.0,0.0,0.0,0.0,0.0,0.0,0.0,0.0,0.0,0.0,0.0,0.0,0.0,0.0,0.0,0.0,0.0,0.0,0.0,0.0,0.0,0.0,0.0,0.0,0.0,0.0,0.0,0.0,0.0,0.0,0.0,0.0,0.0,0.0,0.0,0.0,0.0,0.0,0.0,0.0,0.0,0.0,0.0,0.0,0.0,0.0,0.0,0.0,0.0,0.0,0.0,0.0,0.0,0.0,0.0,0.0,0.0,0.0,0.0,0.0,0.0,0.0,0.0,0.0,0.0,0.0,0.0,0.0,0.0,0.0,0.0,0.0,0.0,0.0,0.0,0.0,0.0,0.0,0.0,0.0,0.0,0.0,0.0,0.0,0.0,0.0,0.0,0.0,0.0,0.0,0.0,0.0,0.0,0.0,0.0,0.0,0.0,0.0,0.0,0.0,0.0,0.0,0.0,0.0,0.0,0.0,0.0,0.0,0.0,0.0,0.0,0.0,0.0,0.0,0.0,0.0,0.0,0.0,0.0,0.0,0.0,0.0,0.0,0.0,0.0,0.0,0.0,0.0,0.0,0.0,0.0,0.0,0.0,0.0,0.0,0.0,0.0,0.0,0.0,0.0,0.0,0.0,0.0,0.0,0.0,0.0,0.0,0.0,0.0,0.0,0.0,0.0,0.0,0.0,0.0,0.0,0.0,0.0,0.0,0.0,0.0,0.0,0.0,0.0,0.0,0.0,0.0,0.0,0.0,0.0,0.0,0.0,0.0,0.0,0.0,0.0,0.0,0.0,0.0,0.0,0.0,0.0,0.0,0.0,0.0,0.0,0.0,0.0,0.0,0.0,0.0,0.0,0.0,0.0,0.0,0.0,0.0,0.0,0.0,0.0,0.0,0.0,0.0,0.0,0.0,0.0,0.0,0.0,0.0,0.0,0.0,0.0,0.0,0.0,0.0,0.0,0.0,0.0,0.0,0.0,0.0,0.0,0.0,0.0,0.0,0.0,0.0,0.0,0.0,0.0,0.0,0.0,0.0,0.0,0.0,0.0,0.0,0.0,0.0,0.0,0.0,0.0,0.0,0.0,0.0,0.0,0.0,0.0,0.0,0.0,0.0,0.0,0.0,0.0,0.0,0.0,0.0,0.0,0.0,0.0,0.0,0.0,0.0,0.0,0.0,0.0,0.0,0.0,0.0,0.0,0.0,0.0,0.0,0.0,0.0,0.0,0.0,0.0,0.0,0.0,0.0,0.0,0.0,0.0,0.0,0.0,0.0,0.0,0.0,0.0,0.0,0.0,0.0,0.0,0.0,0.0,0.0,0.0,0.0,0.0,0.0,0.0,0.0,0.0,0.0,0.0,0.0,0.0,0.0,0.0,0.0,0.0,0.0,0.0,0.0,0.0,0.0,0.0,0.0,0.0,0.0,0.0,0.0,0.0,0.0,0.0,0.0,0.0,0.0,0.0,0.0,0.0,0.0,0.0,0.0,0.0,0.0,0.0,0.0,0.0,0.0,0.0,0.0,0.0,0.0,0.0,0.0,0.0,0.0,0.0,0.0,0.0,0.0,0.0,0.0,0.0,0.0,0.0,0.0,0.0,0.0,0.0,0.0,0.0,0.0,0.0,0.0,0.0,0.0,0.0,0.0,0.0,0.0,0.0,0.0,0.0,0.0,0.0,0.0,0.0,0.0,0.0,0.0,0.0,0.0,0.0,0.0,0.0,0.0,0.0,0.0,0.0,0.0,0.0,0.0,0.0,0.0,0.0,0.0,0.0,0.0,0.0,0.0,0.0,0.0,0.0,0.0,0.0,0.0,0.0,0.0,0.0,0.0,0.0,0.0,0.0,0.0,0.0,0.0,0.0,0.0,0.0,0.0,0.0,0.0,0.0,0.0,0.0,0.0,0.0,0.0,0.0,0.0,0.0,0.0,0.0,0.0,0.0,0.0,0.0,0.0,0.0,0.0,0.0,0.0,0.0,0.0,0.0,0.0,0.0,0.0,0.0,0.0,0.0,0.0,0.0,0.0,0.0,0.0,0.0,0.0,0.0,0.0,0.0,0.0,0.0,0.0,0.0,0.0,0.0,0.0,0.0,0.0,0.0,0.0,0.0,0.0,0.0,0.0,0.0,0.0,0.0,0.0,0.0,0.0,0.0,0.0,0.0,0.0,0.0,0.0,0.0,0.0,0.0,0.0,0.0,0.0,0.0,0.0,0.0,0.0,0.0,0.0,0.0,0.0,0.0,0.0,0.0,0.0,0.0,0.0,0.0,0.0,0.0,0.0,0.0,0.0,0.0,0.0,0.0,0.0,0.0,0.0,0.0,0.0,0.0,0.0,0.0,0.0,0.0,0.0,0.0,0.0,0.0,0.0,0.0,0.0,0.0,0.0,0.0,0.0,0.0,0.0,0.0,0.0,0.0,0.0,0.0,0.0,0.0,0.0,0.0,0.0,0.0,0.0,0.0,0.0,0.0,0.0,0.0,0.0,0.0,0.0,0.0,0.0,0.0,0.0,0.0,0.0,0.0,0.0,0.0,0.0,0.0,0.0,0.0,0.0,0.0,0.0,0.0,0.0,0.0,0.0,0.0,0.0,0.0,0.0,0.0,0.0,0.0,0.0,0.0,0.0,0.0,0.0,0.0,0.0,0.0,0.0,0.0,0.0,0.0,0.0,0.0,0.0,0.0,0.0,0.0,0.0,0.0,0.0,0.0,0.0,0.0,0.0,0.0,0.0,0.0,0.0,0.0,0.0,0.0,0.0,0.0,0.0,0.0,0.0,0.0,0.0,0.0,0.0,0.0,0.0,0.0,0.0,0.0,0.0,0.0,0.0,0.0,0.0,0.0,0.0,0.0,0.0,0.0,0.0,0.0,0.0,0.0,0.0,0.0,0.0,0.0,0.0,0.0,0.0,0.0,0.0,0.0,0.0,0.0,0.0,0.0,0.0,0.0,0.0,0.0,0.0,0.0,0.0,0.0,0.0,0.0,0.0,0.0,0.0,0.0,0.0,0.0,0.0,0.0,0.0,0.0,0.0,0.0,0.0,0.0,0.0,0.0,0.0,0.0,0.0,0.0,0.0,0.0,0.0,0.0,0.0,0.0,0.0,0.0,0.0,0.0,0.0,0.0,0.0,0.0,0.0,0.0,0.0,0.0,0.0,0.0,0.0,0.0,0.0,0.0,0.0,0.0,0.0,0.0,0.0,0.0,0.0,0.0,0.0,0.0,0.0,0.0,0.0,0.0,0.0,0.0,0.0,0.0,0.0,0.0,0.0,0.0,0.0,0.0,0.0,0.0,0.0,0.0,0.0,0.0,0.0,0.0,0.0,0.0,0.0,0.0,0.0,0.0,0.0,0.0,0.0,0.0,0.0,0.0,0.0,0.0,0.0,0.0,2.922,0.0,0.0,0.0,0.0,0.0,0.0,0.0,0.0,0.0,0.0,0.0,0.0,0.0,0.0,0.0,0.0,0.0,0.0,0.0,0.0,0.0,0.0,0.0,0.0,0.0,0.0,0.0,0.0,0.0,0.0,0.0,0.0,0.0,0.0,0.0,0.0,0.0,0.0,0.0,0.0,0.0,0.0,0.0,0.0,0.0,0.0,0.0,0.0,0.0,0.0,0.0,0.0,0.0,0.0,0.0,0.0,0.0,0.0,0.0,0.0,0.0,0.0,0.0,0.0,0.0,0.0,0.0,0.0,0.0,0.0,0.0,0.0,0.0,0.0,0.0,0.0,0.0,0.0,0.0,0.0,0.0,0.0,0.0,0.0,0.0,0.0,0.0,0.0,0.0,0.0,0.0,0.0,0.0,0.0,0.0,0.0,0.0,0.0,0.0,0.0,0.0,0.0,0.0,0.0,0.0,0.0,0.0,0.0,0.0,0.0,2.9597,2.8918,2.8883,2.904,2.9475,0.0,0.0,0.0,0.0,0.0,0.0,0.0,0.0,0.0,0.0,0.0,0.0,0.0,0.0,0.0,0.0,0.0,0.0,0.0,0.0,0.0,0.0,0.0,0.0,0.0,0.0,0.0,0.0,0.0,0.0,0.0,0.0,0.0,0.0,0.0,0.0,0.0,0.0,0.0,0.0,0.0,0.0,0.0,0.0,0.0,0.0,0.0,0.0,0.0,0.0,0.0,0.0,0.0,0.0,0.0,0.0,0.0,0.0,0.0,0.0,0.0,0.0,0.0,0.0,0.0,0.0,0.0,0.0,0.0,0.0,0.0,0.0,0.0,0.0,0.0,0.0,0.0,0.0,0.0,0.0,0.0,0.0,0.0,0.0,0.0,0.0,0.0,0.0,0.0,0.0,0.0,0.0,0.0,0.0,0.0,0.0,0.0,0.0,0.0,0.0,0.0,0.0,0.0,0.0,0.0,0.0,0.0,0.0,0.0,0.0,0.0,0.0,2.984,2.9954,2.9998,0.0,0.0,0.0,0.0,0.0,0.0,0.0,0.0,0.0,0.0,0.0,0.0,0.0,0.0,0.0,0.0,0.0,0.0,0.0,0.0,0.0,0.0,0.0,0.0,0.0,0.0,0.0,0.0,0.0,0.0,0.0,0.0,0.0,0.0,0.0,0.0,0.0,0.0,0.0,0.0,0.0,0.0,0.0,0.0,0.0,0.0,0.0,0.0,0.0,0.0,0.0,0.0,0.0,0.0,0.0,0.0,0.0,0.0,0.0,0.0,0.0,0.0,0.0,0.0,0.0,0.0,0.0,0.0,0.0,0.0,0.0,0.0,0.0,0.0,0.0,0.0,0.0,0.0,0.0,0.0,0.0,0.0,0.0,0.0,0.0,0.0,0.0,0.0,0.0,0.0,0.0,0.0,0.0,0.0,0.0,0.0,0.0,0.0,0.0,0.0,0.0,0.0,0.0,0.0,0.0,0.0,0.0,0.0,0.0,0.0,3.1183,3.0592,3.1148,0.0,3.1692,0.0,0.0,0.0,0.0,0.0,0.0,0.0,0.0,0.0,0.0,0.0,0.0,0.0,0.0,0.0,0.0,0.0,0.0,0.0,0.0,0.0,0.0,0.0,0.0,0.0,0.0,0.0,0.0,0.0,0.0,0.0,0.0,0.0,0.0,0.0,0.0,0.0,0.0,0.0,0.0,0.0,0.0,0.0,0.0,0.0,0.0,0.0,0.0,0.0,0.0,0.0,0.0,0.0,0.0,0.0,0.0,0.0,0.0,0.0,0.0,0.0,0.0,0.0,0.0,0.0,0.0,0.0,0.0,0.0,0.0,0.0,0.0,0.0,0.0,0.0,0.0,0.0,0.0,0.0,0.0,0.0,0.0,0.0,0.0,0.0,0.0,0.0,0.0,0.0,0.0,0.0,0.0,0.0,0.0,0.0,0.0,0.0,0.0,0.0,0.0,0.0,0.0,0.0,0.0,0.0,0.0,0.0,0.0,0.0,0.0,3.0226,2.9976,3.0277,3.0298,0.0,0.0,0.0,0.0,0.0,0.0,0.0,0.0,0.0,0.0,0.0,0.0,0.0,0.0,0.0,0.0,0.0,0.0,0.0,0.0,0.0,0.0,0.0,0.0,0.0,0.0,0.0,0.0,0.0,0.0,0.0,0.0,0.0,0.0,0.0,0.0,0.0,0.0,0.0,0.0,0.0,0.0,0.0,0.0,0.0,0.0,0.0,0.0,0.0,0.0,0.0,0.0,0.0,0.0,0.0,0.0,0.0,0.0,0.0,0.0,0.0,0.0,0.0,0.0,0.0,0.0,0.0,0.0,0.0,0.0,0.0,0.0,0.0,0.0,0.0,0.0,0.0,0.0,0.0,0.0,0.0,0.0,0.0,0.0,0.0,0.0,0.0,0.0,0.0,0.0,0.0,0.0,0.0,0.0,0.0,0.0,0.0,0.0,0.0,0.0,0.0,0.0,0.0,0.0,0.0,0.0,0.0,0.0,0.0,0.0,2.9932,2.9761,3.0012,2.9553,2.9217,2.9147,0.0,0.0,0.0,0.0,0.0,0.0,0.0,0.0,0.0,0.0,0.0,0.0,0.0,0.0,0.0,0.0,0.0,0.0,0.0,0.0,0.0,0.0,0.0,0.0,0.0,0.0,0.0,0.0,0.0,0.0,0.0,0.0,0.0,0.0,0.0,0.0,0.0,0.0,0.0,0.0,0.0,0.0,0.0,0.0,0.0,0.0,0.0,0.0,0.0,0.0,0.0,0.0,0.0,0.0,0.0,0.0,0.0,0.0,0.0,0.0,0.0,0.0,0.0,0.0,0.0,0.0,0.0,0.0,0.0,0.0,0.0,0.0,0.0,0.0,0.0,0.0,0.0,0.0,0.0,0.0,0.0,0.0,0.0,0.0,0.0,0.0,0.0,0.0,0.0,0.0,0.0,0.0,0.0,0.0,0.0,0.0,0.0,0.0,0.0,0.0,0.0,0.0,0.0,0.0,0.0,0.0,0.0,0.0,3.0635,3.0371,3.0619,3.1253,2.9462,2.9175,0.0,0.0,0.0,0.0,0.0,0.0,0.0,0.0,0.0,0.0,0.0,0.0,0.0,0.0,0.0,0.0,0.0,0.0,0.0,0.0,0.0,0.0,0.0,0.0,0.0,0.0,0.0,0.0,0.0,0.0,0.0,0.0,0.0,0.0,0.0,0.0,0.0,0.0,0.0,0.0,0.0,0.0,0.0,0.0,0.0,0.0,0.0,0.0,0.0,0.0,0.0,0.0,0.0,0.0,0.0,0.0,0.0,0.0,0.0,0.0,0.0,0.0,0.0,0.0,0.0,0.0,0.0,0.0,0.0,0.0,0.0,0.0,0.0,0.0,0.0,0.0,0.0,0.0,0.0,0.0,0.0,0.0,0.0,0.0,0.0,0.0,0.0,0.0,0.0,0.0,0.0,0.0,0.0,0.0,0.0,0.0,0.0,0.0,0.0,0.0,0.0,0.0,0.0,0.0,0.0,0.0,0.0,0.0,0.0,2.9153,2.9082,2.9197,2.9462,2.8858,2.8825,0.0,0.0,0.0,0.0,0.0,0.0,0.0,0.0,0.0,0.0,0.0,0.0,0.0,0.0,0.0,0.0,0.0,0.0,0.0,0.0,0.0,0.0,0.0,0.0,0.0,0.0,0.0,0.0,0.0,0.0,0.0,0.0,0.0,0.0,0.0,0.0,0.0,0.0,0.0,0.0,0.0,0.0,0.0,0.0,0.0,0.0,0.0,0.0,0.0,0.0,0.0,0.0,0.0,0.0,0.0,0.0,0.0,0.0,0.0,0.0,0.0,0.0,0.0,0.0,0.0,0.0,0.0,0.0,0.0,0.0,0.0,0.0,0.0,0.0,0.0,0.0,0.0,0.0,0.0,0.0,0.0,0.0,0.0,0.0,0.0,0.0,0.0,0.0,0.0,0.0,0.0,0.0,0.0,0.0,0.0,0.0,0.0,0.0,0.0,0.0,0.0,0.0,0.0,0.0,0.0,0.0,0.0,0.0,0.0,2.8631,0.0,2.928,2.8598,2.8806,2.8795,0.0,0.0,0.0,0.0,0.0,0.0,0.0,0.0,0.0,0.0,0.0,0.0,0.0,0.0,0.0,0.0,0.0,0.0,0.0,0.0,0.0,0.0,0.0,0.0,0.0,0.0,0.0,0.0,0.0,0.0,0.0,0.0,0.0,0.0,0.0,0.0,0.0,0.0,0.0,0.0,0.0,0.0,0.0,0.0,0.0,0.0,0.0,0.0,0.0,0.0,0.0,0.0,0.0,0.0,0.0,0.0,0.0,0.0,0.0,0.0,0.0,0.0,0.0,0.0,0.0,0.0,0.0,0.0,0.0,0.0,0.0,0.0,0.0,0.0,0.0,0.0,0.0,0.0,0.0,0.0,0.0,0.0,0.0,0.0,0.0,0.0,0.0,0.0,0.0,0.0,0.0,0.0,0.0,0.0,0.0,0.0,0.0,0.0,0.0,0.0,0.0,0.0,0.0,0.0,0.0,0.0,0.0,0.0,2.8514,2.9283,3.1024,3.1006,2.9049,2.9497,2.9253,0.0,0.0,0.0,0.0,0.0,0.0,0.0,0.0,0.0,0.0,0.0,0.0,0.0,0.0,0.0,0.0,0.0,0.0,0.0,0.0,0.0,0.0,0.0,0.0,0.0,0.0,0.0,0.0,0.0,0.0,0.0,0.0,0.0,0.0,0.0,0.0,0.0,0.0,0.0,0.0,0.0,0.0,0.0,0.0,0.0,0.0,0.0,0.0,0.0,0.0,0.0,0.0,0.0,0.0,0.0,0.0,0.0,0.0,0.0,0.0,0.0,0.0,0.0,0.0,0.0,0.0,0.0,0.0,0.0,0.0,0.0,0.0,0.0,0.0,0.0,0.0,0.0,0.0,0.0,0.0,0.0,0.0,0.0,0.0,0.0,0.0,0.0,0.0,0.0,0.0,0.0,0.0,0.0,0.0,0.0,0.0,0.0,0.0,0.0,0.0,0.0,0.0,0.0,0.0,0.0,0.0,0.0,0.0,0.0,2.8557,3.1333,3.246,3.1635,3.0916,3.0948,0.0,0.0,0.0,0.0,0.0,0.0,0.0,0.0,0.0,0.0,0.0,0.0,0.0,0.0,0.0,0.0,0.0,0.0,0.0,0.0,0.0,0.0,0.0,0.0,0.0,0.0,0.0,0.0,0.0,0.0,0.0,0.0,0.0,0.0,0.0,0.0,0.0,0.0,0.0,0.0,0.0,0.0,0.0,0.0,0.0,0.0,0.0,0.0,0.0,0.0,0.0,0.0,0.0,0.0,0.0,0.0,0.0,0.0,0.0,0.0,0.0,0.0,0.0,0.0,0.0,0.0,0.0,0.0,0.0,0.0,0.0,0.0,0.0,0.0,0.0,0.0,0.0,0.0,0.0,0.0,0.0,0.0,0.0,0.0,0.0,0.0,0.0,0.0,0.0,0.0,0.0,0.0,0.0,0.0,0.0,0.0,0.0,0.0,0.0,0.0,0.0,0.0,0.0,0.0,0.0,0.0,0.0,0.0,0.0,3.1011,3.4171,3.5259,3.3791,3.2832,3.2481,3.2703,0.0,0.0,0.0,0.0,0.0,0.0,0.0,0.0,0.0,0.0,0.0,0.0,0.0,0.0,0.0,0.0,0.0,0.0,0.0,0.0,0.0,0.0,0.0,0.0,0.0,0.0,0.0,0.0,0.0,0.0,0.0,0.0,0.0,0.0,0.0,0.0,0.0,0.0,0.0,0.0,0.0,0.0,0.0,0.0,0.0,0.0,0.0,0.0,0.0,0.0,0.0,0.0,0.0,0.0,0.0,0.0,0.0,0.0,0.0,0.0,0.0,0.0,0.0,0.0,0.0,0.0,0.0,0.0,0.0,0.0,0.0,0.0,0.0,0.0,0.0,0.0,0.0,0.0,0.0,0.0,0.0,0.0,0.0,0.0,0.0,0.0,0.0,0.0,0.0,0.0,0.0,0.0,0.0,0.0,0.0,0.0,0.0,0.0,0.0,0.0,0.0,0.0,0.0,0.0,0.0,0.0,0.0,0.0,3.5707,3.9148,3.9301,3.5858,3.5135,3.3952,0.0,0.0,0.0,0.0,0.0,0.0,0.0,0.0,0.0,0.0,0.0,0.0,0.0,0.0,0.0,0.0,0.0,0.0,0.0,0.0,0.0,0.0,0.0,0.0,0.0,0.0,0.0,0.0,0.0,0.0,0.0,0.0,0.0,0.0,0.0,0.0,0.0,0.0,0.0,0.0,0.0,0.0,0.0,0.0,0.0,0.0,0.0,0.0,0.0,0.0,0.0,0.0,0.0,0.0,0.0,0.0,0.0,0.0,0.0,0.0,0.0,0.0,0.0,0.0,0.0,0.0,0.0,0.0,0.0,0.0,0.0,0.0,0.0,0.0,0.0,0.0,0.0,0.0,0.0,0.0,0.0,0.0,0.0,0.0,0.0,0.0,0.0,0.0,0.0,0.0,0.0,0.0,0.0,0.0,0.0,0.0,0.0,0.0,0.0,0.0,0.0,0.0,0.0,0.0,0.0,0.0,0.0,0.0,0.0,4.069,4.458,4.4781,4.0752,3.8443,3.7027,0.0,0.0,0.0,0.0,0.0,0.0,0.0,0.0,0.0,0.0,0.0,0.0,0.0,0.0,0.0,0.0,0.0,0.0,0.0,0.0,0.0,0.0,0.0,0.0,0.0,0.0,0.0,0.0,0.0,0.0,0.0,0.0,0.0,0.0,0.0,0.0,0.0,0.0,0.0,0.0,0.0,0.0,0.0,0.0,0.0,0.0,0.0,0.0,0.0,0.0,0.0,0.0,0.0,0.0,0.0,0.0,0.0,0.0,0.0,0.0,0.0,0.0,0.0,0.0,0.0,0.0,0.0,0.0,0.0,0.0,0.0,0.0,0.0,0.0,0.0,0.0,0.0,0.0,0.0,0.0,0.0,0.0,0.0,0.0,0.0,0.0,0.0,0.0,0.0,0.0,0.0,0.0,0.0,0.0,0.0,0.0,0.0,0.0,0.0,0.0,0.0,0.0,0.0,0.0,0.0,0.0,0.0,0.0,4.2165,4.4175,4.8591,4.9397,4.6286,4.296,4.0211,0.0,0.0,0.0,0.0,0.0,0.0,0.0,0.0,0.0,0.0,0.0,0.0,0.0,0.0,0.0,0.0,0.0,0.0,0.0,0.0,0.0,0.0,0.0,0.0,0.0,0.0,0.0,0.0,0.0,0.0,0.0,0.0,0.0,0.0,0.0,0.0,0.0,0.0,0.0,0.0,0.0,0.0,0.0,0.0,0.0,0.0,0.0,0.0,0.0,0.0,0.0,0.0,0.0,0.0,0.0,0.0,0.0,0.0,0.0,0.0,0.0,0.0,0.0,0.0,0.0,0.0,0.0,0.0,0.0,0.0,0.0,0.0,0.0,0.0,0.0,0.0,0.0,0.0,0.0,0.0,0.0,0.0,0.0,0.0,0.0,0.0,0.0,0.0,0.0,0.0,0.0,0.0,0.0,0.0,0.0,0.0,0.0,0.0,0.0,0.0,0.0,0.0,0.0,0.0,0.0,0.0,0.0,0.0,4.5852,4.7001,5.1538,5.3204,5.1647,4.7699,4.3389,0.0,0.0,0.0,0.0,0.0,0.0,0.0,0.0,0.0,0.0,0.0,0.0,0.0,0.0,0.0,0.0,0.0,0.0,0.0,0.0,0.0,0.0,0.0,0.0,0.0,0.0,0.0,0.0,0.0,0.0,0.0,0.0,0.0,0.0,0.0,0.0,0.0,0.0,0.0,0.0,0.0,0.0,0.0,0.0,0.0,0.0,0.0,0.0,0.0,0.0,0.0,0.0,0.0,0.0,0.0,0.0,0.0,0.0,0.0,0.0,0.0,0.0,0.0,0.0,0.0,0.0,0.0,0.0,0.0,0.0,0.0,0.0,0.0,0.0,0.0,0.0,0.0,0.0,0.0,0.0,0.0,0.0,0.0,0.0,0.0,0.0,0.0,0.0,0.0,0.0,0.0,0.0,0.0,0.0,0.0,0.0,0.0,0.0,0.0,0.0,0.0,0.0,0.0,0.0,0.0,0.0,0.0,0.0,4.6902,5.0245,5.3711,5.5064,5.4146,4.9619,4.5526,0.0,0.0,0.0,0.0,0.0,0.0,0.0,0.0,0.0,0.0,0.0,0.0,0.0,0.0,0.0,0.0,0.0,0.0,0.0,0.0,0.0,0.0,0.0,0.0,0.0,0.0,0.0,0.0,0.0,0.0,0.0,0.0,0.0,0.0,0.0,0.0,0.0,0.0,0.0,0.0,0.0,0.0,0.0,0.0,0.0,0.0,0.0,0.0,2.9043,0.0,0.0,0.0,0.0,0.0,0.0,0.0,0.0,0.0,0.0,0.0,0.0,0.0,0.0,0.0,0.0,0.0,0.0,0.0,0.0,0.0,0.0,0.0,0.0,0.0,0.0,0.0,0.0,0.0,0.0,0.0,0.0,0.0,0.0,0.0,0.0,0.0,0.0,0.0,0.0,0.0,0.0,0.0,0.0,0.0,0.0,0.0,0.0,0.0,0.0,0.0,0.0,0.0,0.0,0.0,0.0,0.0,0.0,0.0,4.9148,5.2371,5.5486,5.6754,5.5884,5.2444,4.8449,0.0,0.0,0.0,0.0,0.0,0.0,0.0,0.0,0.0,0.0,0.0,0.0,0.0,0.0,0.0,0.0,0.0,0.0,0.0,0.0,0.0,0.0,0.0,0.0,0.0,0.0,0.0,0.0,0.0,0.0,0.0,0.0,0.0,0.0,0.0,0.0,0.0,0.0,0.0,0.0,0.0,0.0,0.0,0.0,0.0,0.0,0.0,0.0,0.0,0.0,0.0,0.0,0.0,0.0,0.0,0.0,0.0,0.0,0.0,0.0,0.0,0.0,0.0,0.0,0.0,0.0,0.0,0.0,0.0,0.0,0.0,0.0,0.0,0.0,0.0,0.0,0.0,0.0,0.0,0.0,0.0,0.0,0.0,0.0,0.0,0.0,0.0,0.0,0.0,0.0,0.0,0.0,0.0,0.0,0.0,0.0,0.0,0.0,0.0,0.0,0.0,0.0,0.0,0.0,0.0,0.0,0.0,4.8359,5.1622,5.4399,5.7261,5.8311,5.7406,5.5341,5.1611,4.6106,0.0,0.0,0.0,0.0,0.0,0.0,0.0,0.0,0.0,0.0,0.0,0.0,0.0,0.0,0.0,0.0,0.0,0.0,0.0,0.0,0.0,0.0,0.0,0.0,0.0,0.0,0.0,0.0,0.0,0.0,0.0,0.0,0.0,0.0,0.0,0.0,0.0,0.0,2.6721,2.8415,0.0,0.0,0.0,0.0,0.0,0.0,0.0,0.0,3.1351,0.0,0.0,0.0,0.0,0.0,0.0,0.0,0.0,0.0,0.0,0.0,0.0,0.0,0.0,0.0,0.0,0.0,0.0,0.0,0.0,0.0,0.0,0.0,0.0,0.0,0.0,0.0,0.0,0.0,0.0,0.0,0.0,0.0,0.0,0.0,0.0,0.0,0.0,0.0,0.0,0.0,0.0,0.0,0.0,0.0,0.0,0.0,0.0,0.0,0.0,0.0,0.0,0.0,0.0,0.0,0.0,4.9892,5.0719,5.3241,5.7514,5.9434,5.971,5.8239,5.7188,5.4001,4.8594,0.0,0.0,0.0,0.0,0.0,0.0,0.0,0.0,0.0,0.0,0.0,0.0,0.0,0.0,0.0,0.0,0.0,0.0,0.0,0.0,0.0,0.0,0.0,0.0,0.0,0.0,0.0,0.0,0.0,0.0,0.0,0.0,0.0,0.0,0.0,0.0,0.0,0.0,0.0,3.2425,3.4629,0.0,0.0,0.0,0.0,0.0,0.0,0.0,0.0,3.317,0.0,0.0,0.0,0.0,0.0,0.0,0.0,0.0,0.0,0.0,0.0,0.0,0.0,0.0,0.0,0.0,0.0,0.0,0.0,0.0,0.0,0.0,0.0,0.0,0.0,0.0,0.0,0.0,0.0,0.0,0.0,0.0,0.0,0.0,0.0,0.0,0.0,0.0,0.0,0.0,0.0,0.0,0.0,0.0,0.0,0.0,0.0,0.0,0.0,0.0,0.0,0.0,0.0,0.0,0.0,5.0122,5.1797,5.4653,5.8854,5.9783,5.9832,5.9035,5.7442,5.4544,0.0,0.0,0.0,0.0,0.0,0.0,0.0,0.0,0.0,0.0,0.0,0.0,0.0,0.0,0.0,0.0,0.0,0.0,0.0,0.0,0.0,0.0,0.0,0.0,0.0,0.0,0.0,0.0,0.0,0.0,0.0,0.0,0.0,0.0,0.0,0.0,0.0,0.0,0.0,0.0,3.3919,3.5699,3.6017,0.0,0.0,0.0,0.0,0.0,0.0,3.4689,3.4832,0.0,0.0,0.0,0.0,0.0,0.0,0.0,0.0,0.0,0.0,0.0,0.0,0.0,0.0,0.0,0.0,0.0,0.0,0.0,0.0,0.0,0.0,0.0,0.0,0.0,0.0,0.0,0.0,0.0,0.0,0.0,0.0,0.0,0.0,0.0,0.0,0.0,0.0,0.0,0.0,0.0,0.0,0.0,0.0,0.0,0.0,0.0,0.0,0.0,0.0,0.0,0.0,0.0,0.0,0.0,4.9768,5.2533,5.5836,5.9651,6.0,5.9928,5.9566,5.755,5.481,0.0,0.0,0.0,0.0,0.0,0.0,0.0,0.0,0.0,0.0,0.0,0.0,0.0,0.0,0.0,0.0,0.0,0.0,0.0,0.0,0.0,0.0,0.0,0.0,0.0,0.0,0.0,0.0,0.0,0.0,0.0,0.0,0.0,0.0,0.0,0.0,0.0,0.0,0.0,0.0,0.0,3.6981,3.7646,3.8332,0.0,0.0,0.0,0.0,3.6357,3.7001,0.0,0.0,0.0,0.0,0.0,0.0,0.0,0.0,0.0,0.0,0.0,0.0,0.0,0.0,0.0,0.0,0.0,0.0,0.0,0.0,0.0,0.0,0.0,0.0,0.0,0.0,0.0,0.0,0.0,0.0,0.0,0.0,0.0,0.0,0.0,0.0,0.0,0.0,0.0,0.0,0.0,0.0,0.0,0.0,0.0,0.0,0.0,0.0,0.0,0.0,0.0,0.0,0.0,0.0,0.0,0.0,5.1011,5.3507,5.6669,6.0471,6.134,6.105,5.9638,5.8637,5.5631,0.0,0.0,0.0,0.0,0.0,0.0,0.0,0.0,0.0,0.0,0.0,0.0,0.0,0.0,0.0,0.0,0.0,0.0,0.0,0.0,0.0,0.0,0.0,0.0,0.0,0.0,0.0,0.0,0.0,0.0,0.0,0.0,0.0,0.0,0.0,0.0,0.0,0.0,0.0,0.0,0.0,4.1108,3.8865,4.1195,4.2399,0.0,0.0,4.1116,4.0486,4.2453,0.0,0.0,0.0,0.0,0.0,0.0,0.0,0.0,0.0,0.0,0.0,0.0,0.0,0.0,0.0,0.0,0.0,0.0,0.0,0.0,0.0,0.0,0.0,0.0,0.0,0.0,0.0,0.0,0.0,0.0,0.0,0.0,0.0,0.0,0.0,0.0,0.0,0.0,0.0,0.0,0.0,0.0,0.0,0.0,0.0,0.0,0.0,0.0,0.0,0.0,0.0,0.0,0.0,0.0,0.0,4.8206,5.1296,5.4544,5.7683,6.0688,6.1593,6.1231,5.9615,5.8383,5.574,0.0,0.0,0.0,0.0,0.0,0.0,0.0,0.0,0.0,0.0,0.0,0.0,0.0,0.0,0.0,0.0,0.0,0.0,0.0,0.0,0.0,0.0,0.0,0.0,0.0,0.0,0.0,0.0,0.0,0.0,0.0,0.0,0.0,0.0,0.0,0.0,0.0,0.0,0.0,0.0,0.0,0.0,4.053,4.2764,0.0,0.0,0.0,4.3438,4.3441,0.0,0.0,0.0,0.0,0.0,0.0,0.0,0.0,0.0,0.0,0.0,0.0,0.0,0.0,0.0,0.0,0.0,0.0,0.0,0.0,0.0,0.0,0.0,0.0,0.0,0.0,0.0,0.0,0.0,0.0,0.0,0.0,0.0,0.0,0.0,0.0,0.0,0.0,0.0,0.0,0.0,0.0,0.0,0.0,0.0,0.0,0.0,0.0,0.0,0.0,0.0,0.0,0.0,0.0,0.0,0.0,0.0,5.1341,5.5245,5.8313,6.0488,6.1498,6.1231,5.9638,5.8021,0.0,0.0,0.0,0.0,0.0,0.0,0.0,0.0,0.0,0.0,0.0,0.0,0.0,0.0,0.0,0.0,0.0,0.0,0.0,0.0,0.0,0.0,0.0,0.0,0.0,0.0,0.0,3.1348,0.0,0.0,0.0,0.0,0.0,0.0,0.0,0.0,0.0,0.0,0.0,0.0,0.0,0.0,4.3346,4.241,4.4516,4.588,0.0,0.0,4.57,4.5786,4.6624,4.659,0.0,0.0,0.0,0.0,0.0,0.0,0.0,0.0,0.0,0.0,0.0,0.0,0.0,0.0,0.0,0.0,0.0,0.0,0.0,0.0,0.0,0.0,0.0,0.0,0.0,0.0,0.0,0.0,0.0,0.0,0.0,0.0,0.0,0.0,0.0,0.0,0.0,0.0,0.0,0.0,0.0,0.0,0.0,0.0,0.0,0.0,0.0,0.0,0.0,0.0,0.0,0.0,0.0,0.0,0.0,5.1522,5.5401,5.8222,5.9857,6.1262,6.1231,5.9638,5.8021,5.5703,0.0,0.0,0.0,0.0,0.0,0.0,0.0,0.0,0.0,0.0,0.0,0.0,0.0,0.0,0.0,0.0,0.0,0.0,0.0,0.0,0.0,0.0,0.0,0.0,0.0,0.0,0.0,0.0,0.0,0.0,0.0,0.0,0.0,0.0,0.0,0.0,0.0,0.0,0.0,0.0,0.0,4.5397,4.46,4.7137,4.8957,0.0,0.0,4.8731,4.7684,5.0652,5.144,4.6492,0.0,0.0,0.0,0.0,0.0,0.0,0.0,0.0,0.0,0.0,0.0,0.0,0.0,0.0,0.0,0.0,0.0,0.0,0.0,0.0,0.0,0.0,0.0,0.0,0.0,0.0,0.0,0.0,0.0,0.0,0.0,0.0,0.0,0.0,0.0,0.0,0.0,0.0,0.0,0.0,0.0,0.0,0.0,0.0,0.0,0.0,0.0,0.0,0.0,0.0,0.0,0.0,0.0,4.9824,5.3679,5.7195,5.9805,6.1371,6.2839,6.2359,5.9782,5.8072,5.5957,0.0,0.0,0.0,0.0,0.0,0.0,0.0,0.0,0.0,0.0,0.0,0.0,0.0,0.0,0.0,0.0,0.0,0.0,0.0,0.0,0.0,0.0,0.0,0.0,0.0,0.0,0.0,0.0,3.4316,3.501,3.6776,0.0,0.0,0.0,0.0,0.0,0.0,0.0,0.0,0.0,0.0,4.7241,4.6876,4.9103,0.0,0.0,5.0628,5.0785,5.0674,5.1104,5.0769,4.877,4.7734,0.0,0.0,0.0,0.0,0.0,0.0,0.0,0.0,0.0,0.0,0.0,0.0,0.0,0.0,0.0,0.0,0.0,0.0,0.0,0.0,0.0,0.0,0.0,0.0,0.0,0.0,0.0,0.0,0.0,0.0,0.0,0.0,0.0,0.0,0.0,0.0,0.0,0.0,0.0,0.0,0.0,0.0,0.0,0.0,0.0,0.0,0.0,0.0,0.0,0.0,0.0,0.0,5.0809,5.5119,5.8178,6.049,6.206,6.3493,6.2926,6.0272,5.8473,5.6355,0.0,0.0,0.0,0.0,0.0,0.0,0.0,0.0,0.0,0.0,0.0,0.0,0.0,0.0,0.0,0.0,0.0,0.0,0.0,0.0,0.0,0.0,0.0,0.0,0.0,0.0,0.0,0.0,3.5664,3.6775,3.8921,0.0,0.0,0.0,0.0,0.0,0.0,0.0,0.0,0.0,0.0,4.845,4.837,5.0617,5.215,5.1721,5.2222,5.2617,5.2506,5.1756,5.0789,4.9557,0.0,0.0,0.0,0.0,0.0,0.0,0.0,0.0,0.0,0.0,0.0,0.0,0.0,0.0,0.0,0.0,0.0,0.0,0.0,0.0,0.0,0.0,0.0,0.0,0.0,0.0,0.0,0.0,0.0,0.0,0.0,0.0,0.0,0.0,0.0,0.0,0.0,0.0,0.0,0.0,0.0,0.0,0.0,0.0,0.0,0.0,0.0,0.0,0.0,0.0,0.0,0.0,0.0,5.2122,5.5295,5.7861,5.9883,6.148,6.2745,6.2685,6.1035,5.9294,5.6899,5.3784,0.0,0.0,0.0,0.0,0.0,0.0,0.0,0.0,0.0,0.0,0.0,0.0,0.0,0.0,0.0,0.0,0.0,0.0,0.0,0.0,0.0,0.0,0.0,0.0,0.0,0.0,3.4969,3.6487,3.8689,0.0,0.0,0.0,0.0,0.0,0.0,0.0,0.0,0.0,0.0,4.7849,4.8909,4.8924,5.1624,5.3289,5.2589,5.3772,5.4231,5.2733,5.3059,5.2299,0.0,0.0,0.0,0.0,0.0,0.0,0.0,0.0,0.0,0.0,0.0,0.0,0.0,0.0,0.0,0.0,0.0,0.0,0.0,0.0,0.0,0.0,0.0,0.0,0.0,0.0,0.0,4.939,4.8083,0.0,0.0,0.0,0.0,0.0,0.0,0.0,0.0,0.0,0.0,0.0,5.1813,5.3997,0.0,0.0,0.0,0.0,0.0,0.0,0.0,0.0,0.0,0.0,0.0,0.0,5.3493,5.764,5.9712,6.1777,6.394,6.4845,6.4314,6.2195,6.0413,5.7461,5.3162,0.0,0.0,0.0,0.0,0.0,0.0,0.0,0.0,0.0,0.0,0.0,0.0,0.0,0.0,0.0,0.0,0.0,0.0,0.0,0.0,0.0,0.0,0.0,0.0,0.0,3.9756,0.0,0.0,0.0,0.0,0.0,0.0,0.0,0.0,0.0,0.0,0.0,4.5833,4.5723,4.7989,4.9883,5.0416,5.1864,5.2987,0.0,0.0,0.0,0.0,0.0,0.0,0.0,0.0,0.0,0.0,0.0,0.0,0.0,0.0,5.0257,4.4683,4.4063,4.4755,4.5832,0.0,0.0,0.0,0.0,0.0,0.0,0.0,0.0,0.0,0.0,0.0,0.0,0.0,0.0,0.0,0.0,4.9913,0.0,0.0,0.0,0.0,0.0,0.0,0.0,0.0,5.3767,5.5561,5.6383,5.8052,5.8125,0.0,5.5384,5.3639,0.0,0.0,0.0,0.0,0.0,0.0,0.0,0.0,5.5195,5.9298,6.1129,6.3099,6.5215,6.594,6.5411,6.3567,6.0954,5.7947,5.4467,5.2425,5.1232,0.0,0.0,0.0,0.0,0.0,0.0,0.0,0.0,0.0,0.0,0.0,0.0,0.0,0.0,0.0,0.0,0.0,0.0,0.0,0.0,0.0,0.0,0.0,4.2592,0.0,0.0,0.0,0.0,0.0,0.0,0.0,0.0,0.0,4.556,4.6524,4.7565,4.815,4.9575,5.0942,5.1984,0.0,0.0,0.0,0.0,0.0,0.0,0.0,5.1937,5.2408,5.277,5.3204,5.4001,5.4532,5.487,5.4798,0.0,0.0,4.7554,4.7083,4.7772,4.8786,4.9438,5.0198,5.1513,5.2154,5.2408,0.0,0.0,0.0,0.0,0.0,0.0,0.0,0.0,5.4312,5.5163,0.0,5.3108,0.0,0.0,0.0,0.0,0.0,0.0,0.0,0.0,5.8132,6.0554,6.2719,6.2829,6.3306,6.3956,6.1557,5.96,5.7875,5.3273,0.0,0.0,0.0,0.0,0.0,0.0,5.7132,6.014,6.1923,6.3637,6.5251,6.599,6.5936,6.4971,6.1112,5.8506,5.734,5.3679,5.1903,5.2419,5.0162,0.0,0.0,0.0,0.0,0.0,0.0,0.0,0.0,0.0,0.0,0.0,0.0,0.0,0.0,0.0,0.0,0.0,0.0,0.0,0.0,4.2825,0.0,0.0,0.0,0.0,0.0,0.0,0.0,0.0,0.0,0.0,4.8353,4.87,5.0217,5.3306,0.0,0.0,0.0,0.0,5.2933,5.3711,5.5027,5.5692,5.5027,5.6078,5.5981,5.3191,0.0,0.0,5.5245,5.51,5.4677,5.3119,5.3094,5.2926,5.3699,5.3288,5.3277,5.353,5.347,5.3941,5.4786,5.5015,5.51,6.1854,0.0,0.0,0.0,0.0,5.6646,5.8203,5.9396,5.9957,5.9481,5.8176,5.5494,0.0,0.0,0.0,0.0,0.0,0.0,5.5809,5.8279,6.0627,6.2756,6.4591,6.5191,6.5301,6.4897,6.3649,6.2475,6.1398,5.9992,5.6841,5.2187,0.0,0.0,0.0,0.0,5.7717,6.0298,6.2572,6.4237,6.5288,6.662,6.6363,6.4406,6.2556,6.0346,5.7788,5.5395,5.37,5.2677,5.0341,0.0,0.0,0.0,0.0,0.0,0.0,0.0,0.0,0.0,0.0,0.0,0.0,0.0,0.0,0.0,0.0,0.0,0.0,0.0,4.4571,4.6722,4.7814,0.0,0.0,0.0,0.0,0.0,0.0,0.0,0.0,0.0,5.221,5.2525,5.291,0.0,0.0,5.3201,5.5268,5.4429,5.405,5.5411,0.0,0.0,0.0,5.5422,5.5252,5.6065,5.7219,5.8299,5.9257,5.8456,5.791,5.8505,5.7765,5.7255,5.7741,5.4252,5.2238,5.3892,5.4193,5.4664,5.6827,5.7916,5.8391,6.9223,6.247,6.0784,5.9724,5.9371,6.1077,6.2457,6.3511,6.3987,6.3927,6.3243,6.0188,5.8112,5.6736,5.459,0.0,0.0,0.0,5.9942,6.2646,6.4407,6.6426,6.8568,6.8825,6.8788,6.8568,6.6843,6.5558,6.4701,6.3417,6.0701,5.6638,0.0,0.0,5.6785,5.8033,5.9905,6.2291,6.4127,6.5264,6.5778,6.6696,6.6085,6.3686,6.3366,6.1837,5.8871,5.6825,5.5283,5.4184,5.1879,5.066,0.0,0.0,0.0,0.0,0.0,0.0,0.0,0.0,0.0,0.0,0.0,4.1954,0.0,0.0,0.0,0.0,4.5642,4.6446,4.787,4.9603,0.0,0.0,0.0,0.0,0.0,0.0,0.0,4.9778,5.1365,5.3331,5.5437,5.6502,5.6897,5.6464,5.5526,5.555,5.751,0.0,5.5574,5.7145,5.6695,5.6476,5.723,5.6585,5.6549,5.8337,5.8944,5.9552,6.0464,5.9904,5.954,5.999,5.9734,5.9406,5.9929,5.6903,5.4977,5.6976,5.7364,5.8044,6.0137,6.1475,6.2291,7.6518,7.4133,7.0177,6.7428,6.5877,6.6646,6.7066,6.7247,6.7283,6.8421,7.0073,6.6305,6.5277,6.6145,6.2622,0.0,0.0,6.2719,6.5081,6.8031,6.8898,7.0844,7.3611,7.2899,7.2973,7.3597,7.0624,6.8788,6.7884,6.4971,6.2976,6.2083,6.1337,6.0823,6.0566,6.1263,6.2879,6.5251,6.6072,6.6476,6.6512,6.6439,6.5264,6.2903,6.3576,6.2718,6.0103,5.776,5.6433,5.6159,5.4116,5.2237,5.0842,0.0,0.0,0.0,0.0,0.0,0.0,0.0,0.0,0.0,0.0,0.0,0.0,0.0,0.0,0.0,5.0686,0.0,5.1438,5.1402,0.0,0.0,0.0,4.9133,4.8496,4.9224,5.0116,5.0989,0.0,0.0,0.0,0.0,6.1312,6.0579,5.9066,5.8555,5.9991,5.8311,5.7396,5.8714,5.8361,5.813,5.8616,5.8726,5.8981,5.9784,6.0039,6.0015,6.0064,5.9942,5.9601,5.9334,5.9626,6.0113,6.0186,6.06,6.1366,6.1257,6.1865,6.2678,6.3564,6.489,6.5902,8.217,8.0959,7.9333,7.5959,7.177,7.2526,7.3237,7.3817,7.3817,7.345,7.2642,6.9889,6.754,6.5582,6.5852,6.5975,6.6085,6.8261,6.9692,7.0499,7.1908,7.2987,7.367,7.3501,7.3538,7.3611,7.2312,7.1211,7.044,6.9655,6.8238,6.6342,6.6048,6.4396,6.1447,6.2108,6.3417,6.5288,6.6109,6.6512,6.6476,6.5888,6.4701,6.2866,6.2976,6.1655,5.8622,5.6788,5.5485,5.4765,5.418,5.3942,5.4011,5.3774,0.0,0.0,0.0,0.0,0.0,0.0,0.0,0.0,0.0,4.7031,4.6999,0.0,4.8218,0.0,5.1923,5.1996,5.0851,5.0684,0.0,0.0,5.0743,5.1276,5.1873,5.261,5.3635,5.5152,5.6554,5.8033,5.9612,6.086,6.1886,6.2549,6.1026,6.0335,6.1712,6.0591,5.9601,5.9992,6.0371,6.0261,5.937,5.9626,6.0066,6.0286,6.0274,6.031,6.031,5.9798,5.9688,6.0616,6.0543,6.0799,6.1862,6.2302,6.2668,6.3231,6.3496,6.3928,6.5172,6.6359,6.7318,8.5399,8.4886,8.3765,8.1232,7.8002,7.7729,7.7671,7.7745,7.776,7.7231,7.6292,7.3854,7.1394,6.9155,6.9977,7.0381,7.0527,7.2496,7.3619,7.4023,7.5285,7.6056,7.6438,7.6438,7.6218,7.5851,7.4661,7.3523,7.2386,7.1637,7.044,6.8802,6.8765,6.7614,6.5461,6.4787,6.5068,6.6329,6.6439,6.6329,6.5962,6.5545,6.415,6.1838,6.2059,6.108,5.8621,5.6969,5.5908,5.5401,5.5034,5.4796,5.4745,5.498,5.5141,0.0,0.0,0.0,0.0,0.0,0.0,0.0,0.0,0.0,0.0,0.0,5.0755,0.0,5.3142,0.0,5.2236,5.2116,5.2012,5.1799,5.2248,5.2833,5.3414,5.4293,5.5347,5.6621,5.7819,5.9133,6.0766,6.1667,6.2573,6.3627,6.2772,6.235,6.2997,6.2524,6.2049,6.2049,6.2124,6.1712,6.0251,6.0231,6.0407,6.0407,6.0407,6.0407,6.037,6.004,6.004,6.086,6.097,6.119,6.2108,6.2952,6.3649,6.4407,6.4882,6.5207,6.5603,6.6412,6.7199,8.7381,8.7161,8.5673,8.4535,8.3601,8.2223,8.1085,8.0257,8.0257,8.0257,8.011,7.7855,7.6056,7.4676,7.4625,7.4551,7.4588,7.6019,7.7047,7.7656,7.8626,7.936,7.9963,7.9947,7.9596,7.8846,7.7231,7.5616,7.4147,7.2628,7.1468,7.0587,7.0477,7.0367,7.0146,6.8054,6.721,6.7664,6.6819,6.5999,6.5325,6.5325,6.3759,6.0639,6.119,6.075,5.8976,5.7435,5.6638,5.6638,5.6088,5.5383,5.4613,5.5944,5.607,0.0,5.5783,0.0,0.0,0.0,0.0,0.0,0.0,0.0,0.0,5.2689,5.3456,5.4006,5.4115,5.4213,5.4444,5.4304,5.406,5.3733,5.3948,5.4224,5.4382,5.5282,5.6264,5.7157,5.8511,5.9994,6.1617,6.2472,6.3223,6.4006,6.4119,6.4053,6.4225,6.4089,6.3876,6.3984,6.3253,6.2228,6.1459,6.0929,6.0605,6.0619,6.0617,6.0572,6.0642,6.0593,6.0644,6.084,6.1391,6.1821,6.1873,6.3149,6.4242,6.4918,6.5508,6.5837,6.5731,6.6339,6.6733,8.951,8.8849,8.7912,8.6664,8.5343,8.5013,8.4058,8.2737,8.2737,8.272,8.2647,8.1525,8.0534,7.9653,7.9617,7.925,7.8715,7.9617,7.98,7.9376,8.0828,8.1232,8.0791,8.0791,8.0718,8.0461,7.8919,7.7598,7.6592,7.5652,7.4478,7.301,7.2349,7.1711,0.0,0.0,0.0,0.0,6.6256,6.5448,6.5325,6.5325,6.3747,6.0554,6.119,0.0,5.7435,5.6308,5.5842,5.5842,5.6308,0.0,0.0,0.0,0.0,0.0,0.0,0.0,0.0,0.0,0.0,0.0,5.4681,5.3255,5.2849,5.4192,5.4814,5.425,5.3959,5.4343,5.567,5.4867,5.477,5.5966,5.6188,5.6496,5.7096,5.7413,5.8078,5.9553,5.9994,6.082,6.2351,6.28,6.3332,6.4395,6.4677,6.4801,6.5055,6.4481,6.3864,6.3225,6.2644,6.2211,6.2526,6.1939,6.1518,6.1459,6.1459,6.1467,6.1484,6.1494,6.1739,6.2242,6.2572,6.2878,6.3455,6.3915,6.415,6.4305,6.4481,6.4908,6.6046,6.7393,6.8238,9.1927,0.0,8.9809,8.8657,0.0,8.6598,8.5803,8.5379,8.3986,8.3601,8.3931,8.3141,8.2553,8.217,8.217,8.1966,8.1599,8.2406,8.2553,8.2223,8.2994,8.2957,8.2186,8.2186,8.1782,8.0975,8.0167,7.9124,7.7949,7.7105,7.5873,7.4294,7.3891,7.3303,7.2496,7.2092,7.0697,6.8311,6.71,6.6292,6.5925,6.5508,6.3943,6.1153,0.0,0.0,0.0,0.0,0.0,0.0,0.0,0.0,0.0,0.0,0.0,5.7281,5.726,5.7109,5.693,5.6522,5.6578,5.7221,5.6557,5.564,5.4638,5.5529,5.6105,5.6054,5.5556,5.5753,5.6893,5.614,5.6029,5.7241,5.7577,5.7989,5.8744,5.9084,5.9476,6.0218,6.0399,6.1044,6.2664,6.2513,6.2893,6.4177,6.4133,6.3961,6.4161,6.4519,6.4556,6.4168,6.3668,6.3379,6.3653,6.3332,6.2849,6.2877,6.2877,6.2877,6.2877,6.2877,6.3027,6.3403,6.3516,6.3656,6.3946,6.4086,6.4199,6.4575,6.4687,6.4901,6.5754,6.6087,6.6383,9.4255,9.3842,9.1813,9.0724,9.0137,8.8067,8.7353,8.7411,0.0,0.0,0.0,8.4419,8.4124,8.414,8.414,8.4023,8.3799,8.4293,8.4395,8.4168,8.4352,8.3801,8.2794,8.3197,8.2537,8.1048,8.0995,8.0351,7.9029,7.8133,7.6995,7.5652,7.5353,7.4734,7.3802,7.3519,7.2027,6.9342,6.8365,6.7444,6.6512,6.5852,6.4348,6.1985,6.0749,5.9831,5.9336,5.8049,5.757,5.806,5.7549,5.7213,5.7177,5.6608,5.6535,5.714,5.7213,5.7053,5.6754,5.7193,5.7312,5.6839,5.7586,5.763,5.6533,5.6734,5.7141,5.7667,5.7192,5.7215,5.7997,5.7586,5.7536,5.8328,5.87,5.92,5.9808,6.0212,6.0349,6.0377,6.0387,6.0943,6.2366,6.2053,6.2166,6.3465,6.3397,6.2884,6.3075,6.4199,6.5009,6.4917,6.4536,6.4546,6.4427,6.4242,6.4096,6.3974,6.4172,6.4312,6.4312,6.4312,6.4312,6.4313,6.4312,6.4351,6.4332,6.437,6.4576,6.5207,6.532,6.532,6.5215,6.451,6.4345,9.6133,9.4819,9.4443,9.309,9.1099,9.0761,8.9484,8.7541,8.6396,8.635,8.7061,8.7,8.6977,8.7005,8.7005,8.6346,8.5191,8.4613,8.3713,0.0,8.3251,8.2406,8.0477,8.2443,8.2537,8.1069,8.1012,8.0901,8.0608,7.9816,7.8956,7.8057,7.7088,7.5732,7.3987,7.2831,7.166,7.0522,6.9339,6.8017,6.6549,6.6402,6.5335,6.3354,6.3346,6.2228,5.9886,5.9531,5.9112,5.855,5.8739,5.8858,5.8858,5.8736,5.8746,5.8858,5.8858,5.884,5.8794,5.825,5.7582,5.694,5.7809,5.8233,5.7779,5.7779,5.7552,5.7053,5.7175,5.7564,5.8375,5.8669,5.9061,5.9891,6.0094,6.0199,6.0337,6.038,6.0453,6.0453,6.0377,6.0721,6.1631,6.1669,6.1898,6.2815,6.2777,6.2808,6.2961,6.3732,6.4313,6.4351,6.4321,6.3978,6.3543,6.3787,6.4075,6.4176,6.47,6.5041,6.5109,6.5109,6.5109,6.5174,6.5125,6.5142,6.515,6.5236,6.5218,6.5376,6.5376,6.5392,6.5368,6.4877,6.4632,9.7374,9.6539,9.5211,9.4225,9.3567,9.2682,9.0861,8.8573,8.8106,8.75,8.6913,8.7312,8.7513,8.7602,8.8015,8.7914,8.7283,8.6909,8.613,8.5165,8.5946,8.5016,8.2933,8.3811,8.37,8.2561,8.1603,8.1403,8.1715,8.0599,7.9572,7.8731,7.7795,7.688,7.6027,7.542,7.4225,7.2543,7.0387,6.8686,6.7566,6.7356,6.6585,6.5213,6.4547,6.3578,6.2279,6.1334,6.0865,6.0913,6.0678,6.0558,6.0558,6.0144,6.0107,6.052,6.0144,6.0199,6.0858,6.0753,6.0489,6.0164,6.0121,6.0335,6.0657,5.9373,5.8424,5.8091,5.8615,5.9146,5.9527,5.9727,5.9988,6.0377,6.0797,6.1065,6.1065,6.1058,6.1058,6.1027,6.0644,6.0721,6.1516,6.1249,6.1249,6.1975,6.186,6.1707,6.212,6.251,6.2975,6.3388,6.3503,6.335,6.2961,6.319,6.3656,6.4084,6.4504,6.4917,6.5261,6.5413,6.5413,6.5413,6.5413,6.5413,6.5413,6.5413,6.5413,6.5413,6.5413,6.5413,6.5345,6.5077,6.4708,9.8352,9.797,9.5626,9.4949,9.5255,9.3802,9.1917,8.9947,8.9516,8.8257,8.6669,8.7284,8.7736,8.7963,8.8428,8.8664,8.8657,8.813,8.7424,8.68,8.7377,8.6462,8.4472,8.4609,8.4285,8.3297,8.1944,8.1669,8.2081,8.0993,7.9942,7.9125,7.8433,7.8029,7.7771,7.7667,7.6578,7.4433,7.1813,6.9948,6.8858,6.8391,6.7802,6.7023,6.5728,6.49,6.4585,6.3201,6.2589,6.2965,6.2371,6.1964,6.1926,6.1407,6.1331,6.1813,6.1407,6.1455,6.2322,6.2719,6.2884,6.2884,6.2273,6.2197,6.2617,6.1127,5.9943,6.0019,6.0349,6.0714,6.0936,6.0981,6.095,6.0988,6.1516,6.186,6.1898,6.1745,6.1593,6.1516,6.0867,6.0644,6.1027,6.0797,6.0721,6.1096,6.0797,6.0721,6.1211,6.1325,6.1631,6.2128,6.2464,6.2464,6.2433,6.2502,6.2853,6.3549,6.3969,6.4428,6.4962,6.523,6.5413,6.5413,6.5413,6.5413,6.5413,6.5413,6.5413,6.5413,6.5413,6.5413,6.5406,6.5623,6.5098,9.9128,9.8257,9.6473,9.5361,9.4748,9.379,9.2705,9.1551,9.0173,8.8476,8.6902,8.768,8.8384,8.8977,8.8449,8.8295,8.8289,8.618,8.4968,8.4465,8.4311,8.3423,8.2247,8.3297,8.3108,8.1896,8.147,8.1382,8.1495,8.1269,8.0653,7.9754,7.9556,7.8925,7.8037,7.7531,7.6796,7.5832,7.4045,7.2153,7.0233,6.938,6.8765,6.8338,6.7816,6.7025,6.6016,6.5022,6.4218,6.357,6.3136,6.2833,6.2826,6.2719,6.2719,6.2826,6.2711,6.2742,6.284,6.287,6.2961,6.2884,6.2846,6.2846,6.2961,6.2693,6.2541,6.2426,6.1891,6.1822,6.2548,6.2579,6.251,6.2426,6.2655,6.277,6.2655,6.2089,6.1593,6.1593,6.0912,6.0453,6.0568,6.0492,6.0453,6.0606,6.053,6.0453,6.0606,6.0644,6.0644,6.0835,6.1249,6.1402,6.1027,6.1287,6.1784,6.2051,6.3205,6.4007,6.4389,6.4924,6.5413,6.5375,6.5413,6.5413,6.5413,6.5413,6.5413,6.5413,6.5413,6.5413,6.5566,6.633,6.6337,9.8776,9.8326,9.6629,9.5708,9.5248,9.3973,9.288,9.193,9.0272,8.8529,8.7015,8.7244,8.7559,8.7842,8.7995,8.8121,8.814,8.7171,8.635,8.5732,8.6112,8.5478,8.4023,8.4457,8.4191,8.3074,8.2103,8.1599,8.1523,8.1057,8.0594,8.0149,7.9722,7.8971,7.8033,7.7293,7.6532,7.5712,7.4504,7.3468,7.2576,7.1304,7.0315,6.9632,6.8984,6.8481,6.7923,6.7093,6.6483,6.6118,6.5497,6.5146,6.5138,6.4642,6.4382,6.4374,6.4382,6.4382,6.4382,6.4382,6.4382,6.4382,6.3923,6.3847,6.426,6.3496,6.3266,6.4038,6.3152,6.2541,6.2884,6.2884,6.2884,6.2961,6.335,6.3465,6.2923,6.2624,6.2197,6.1669,6.0912,6.0377,6.0377,6.0377,6.0377,6.0377,6.0377,6.0377,6.0377,6.0377,6.0377,6.0453,6.0721,6.0759,6.0492,6.0644,6.1058,6.1554,6.2166,6.2784,6.4007,6.4389,6.481,6.5299,6.5452,6.5452,6.5413,6.5413,6.5413,6.5452,6.5452,6.5528,6.6025,6.6292,6.583,9.8572,9.8332,9.672,9.5722,9.5185,9.4033,9.2978,9.1989,9.0378,8.8634,8.7045,8.6968,8.6805,8.6622,8.7146,8.7498,8.7689,8.7498,8.704,8.6533,8.7116,8.681,8.5845,8.5358,8.4976,8.4403,8.2932,8.2139,8.2034,8.127,8.085,8.0773,8.0477,7.9751,7.871,7.8022,7.7335,7.6541,7.5501,7.4775,7.4384,7.3132,7.1985,7.1107,7.0304,6.9884,6.9854,6.8822,6.8249,6.8203,6.7247,6.6713,6.6674,6.5872,6.5413,6.5413,6.5413,6.5413,6.5413,6.5413,6.5413,6.5375,6.4848,6.4764,6.5031,6.4267,6.4183,6.5031,6.4305,6.3618,6.3572,6.3572,6.3572,6.361,6.4191,6.4191,6.3427,6.3121,6.2541,6.1707,6.0874,6.0377,6.0377,6.0377,6.0377,6.0377,6.0377,6.0377,6.0377,6.0377,6.0377,6.0377,6.0415,6.0415,6.0377,6.0453,6.0721,6.1058,6.1478,6.2166,6.3396,6.3701,6.4236,6.4848,6.5299,6.5757,6.591,6.5834,6.5834,6.5872,6.6063,6.6407,6.6942,6.6483,6.6139,9.8779,9.851,9.6962,9.5298,9.3817,9.3654,9.3108,9.1988,9.0375,8.8698,8.7148,8.7024,8.6602,8.5894,8.5915,8.6123,8.6686,8.6084,8.5741,8.5654,8.5702,8.6036,8.6609,8.5129,8.4747,8.5091,8.3715,8.2884,8.2798,8.2111,8.1729,8.169,8.2111,8.1815,8.0391,7.9971,7.9818,7.8681,7.7182,7.6188,7.5433,7.4545,7.3667,7.2864,7.1994,7.1459,7.1306,6.9999,6.912,6.9158,6.7668,6.6789,6.6667,6.5948,6.5452,6.5413,6.5413,6.5413,6.5413,6.5413,6.5413,6.5375,6.5299,6.5337,6.5375,6.5184,6.5184,6.5375,6.5222,6.5108,6.5108,6.4993,6.507,6.5108,6.5222,6.4848,6.4122,6.3197,6.2541,6.1669,6.079,6.0339,6.0377,6.0377,6.0339,6.0377,6.0377,6.0377,6.0377,6.0377,6.0377,6.0377,6.0377,6.0377,6.0377,6.0377,6.0415,6.0644,6.1134,6.1631,6.2204,6.2853,6.3625,6.4466,6.5184,6.5796,6.6361,6.6667,6.6713,6.698,6.7744,6.8126,6.7859,6.7821,6.7286,9.7836,9.6336,9.572,9.4788,9.3633,9.2556,9.1568,9.0571,8.8389,8.7068,8.649,8.6404,8.6177,8.5806,8.6317,8.6365,8.6078,8.5772,8.558,8.5511,8.5511,8.5654,8.5845,8.532,8.49,8.4632,8.4107,8.3267,8.2264,8.192,8.1499,8.0926,8.0706,8.0286,7.9751,7.9169,7.8748,7.8366,7.7258,7.657,7.6227,7.5462,7.4898,7.4516,7.272,7.1421,7.0877,7.0266,6.9952,6.996,6.889,6.8317,6.8165,6.698,6.5987,6.549,6.5413,6.5413,6.5413,6.5413,6.5413,6.5413,6.5413,6.5383,6.5413,6.5413,6.5413,6.5421,6.5421,6.5413,6.5413,6.5413,6.5413,6.5337,6.4924,6.4305,6.3465,6.2586,6.1745,6.0905,6.0102,5.9797,6.0148,5.9911,5.9797,6.0262,6.0384,6.0384,6.0377,6.0377,6.0422,6.0384,6.0377,6.0377,6.0377,6.0377,6.0415,6.0453,6.0759,6.1172,6.1676,6.2013,6.267,6.335,6.4336,6.5329,6.575,6.6904,6.7095,6.8012,6.8776,6.8776,6.8699,6.8279,6.7553,9.6826,9.5104,9.4681,9.4095,9.3172,9.1787,9.0547,8.9363,8.7401,8.6368,8.6095,8.6048,8.5966,8.5991,8.6519,8.6436,8.5885,8.6039,8.5954,8.5609,8.5609,8.5762,8.5944,8.5695,8.5408,8.5025,8.4232,8.3372,8.2646,8.2073,8.1499,8.0926,8.0362,7.9942,7.9636,7.9054,7.871,7.8328,7.7564,7.7029,7.6685,7.6159,7.5739,7.5356,7.4057,7.2643,7.1328,7.0984,7.0686,7.0334,6.9655,6.9082,6.8669,6.7477,6.6437,6.5872,6.5528,6.5413,6.5383,6.5405,6.542,6.542,6.5435,6.545,6.545,6.545,6.5488,6.545,6.545,6.5488,6.5412,6.5221,6.516,6.5238,6.4695,6.3854,6.2999,6.212,6.1325,6.0523,5.9682,5.9606,6.0109,5.9835,5.9925,6.0366,6.045,6.0457,6.0477,6.0446,6.0484,6.0446,6.0453,6.0459,6.0466,6.0511,6.0418,6.0443,6.0474,6.0811,6.1079,6.1339,6.1714,6.2395,6.3305,6.4336,6.549,6.6713,6.7744,6.8661,6.8929,6.8967,6.8776,6.8508,6.8012,9.5788,9.4912,9.4057,9.3287,9.2518,9.1518,9.021,8.8748,8.7709,8.6701,8.6115,8.6085,8.6069,8.6115,8.6291,8.615,8.6103,8.6675,8.6544,8.5826,8.575,8.6171,8.6775,8.6049,8.6011,8.6384,8.427,8.3544,8.3888,8.2617,8.1843,8.1767,8.1538,8.1041,8.0506,8.0315,7.9971,7.9254,7.8366,7.7564,7.68,7.657,7.615,7.5662,7.593,7.5165,7.3025,7.2147,7.1344,7.0487,6.9693,6.8814,6.8142,6.7309,6.6759,6.6613,6.5956,6.5497,6.5513,6.558,6.5616,6.5501,6.5552,6.558,6.5573,6.558,6.558,6.5573,6.558,6.5587,6.5465,6.5012,6.481,6.5184,6.4648,6.3723,6.2983,6.2096,6.1256,6.0391,5.9512,5.9453,6.0071,5.9901,5.9852,6.016,6.0326,6.0416,6.0539,6.0584,6.0565,6.0604,6.0584,6.0533,6.0591,6.061,6.0531,6.047,6.0464,6.061,6.077,6.0992,6.1208,6.1889,6.3847,6.4955,6.6063,6.7209,6.7973,6.8738,6.889,6.9311,6.9349,6.9234,6.9005,9.4711,9.4797,9.3441,9.2749,9.2326,9.0932,8.9671,8.8556,8.7171,8.6324,8.6132,8.6094,8.6094,8.6247,8.6671,8.6654,8.6167,8.6864,8.6747,8.591,8.5777,8.5931,8.6113,8.5903,8.5885,8.5981,8.5332,8.4366,8.3544,8.2923,8.2378,8.1805,8.1194,8.1117,8.1318,8.0812,8.0315,8.0009,7.871,7.786,7.7487,7.6465,7.5777,7.5548,7.5739,7.523,7.4027,7.3059,7.2185,7.1306,7.0495,6.9679,6.8893,6.8158,6.7728,6.7651,6.6916,6.6418,6.6426,6.644,6.6186,6.5733,6.5594,6.5601,6.5601,6.5615,6.5615,6.5608,6.5601,6.5601,6.5563,6.5409,6.5273,6.5499,6.4305,6.3424,6.2957,6.1815,6.0628,5.9747,5.8904,5.8604,5.8675,5.856,5.8789,5.9658,5.9818,5.9946,6.0463,6.0636,6.0617,6.0617,6.0617,6.0636,6.0649,6.07,6.07,6.0763,6.0781,6.0594,6.0671,6.0894,6.1065,6.1854,6.3853,6.536,6.6491,6.7485,6.818,6.9043,6.9578,6.9914,7.0181,6.999,6.9578,9.4027,9.4335,9.271,9.2018,9.1825,9.0171,8.8979,8.8094,8.6748,8.6094,8.6094,8.6094,8.6094,8.6209,8.6671,8.6594,8.617,8.6709,8.6573,8.597,8.5923,8.5923,8.5914,8.5879,8.5843,8.573,8.5454,8.4775,8.3779,8.3303,8.2845,8.2309,8.1505,8.1352,8.1764,8.1075,8.0616,8.0425,7.9277,7.855,7.8282,7.722,7.6531,7.6531,7.6561,7.6135,7.5381,7.4489,7.3317,7.1969,7.0974,7.0271,6.9789,6.9075,6.8644,6.8491,6.787,6.7257,6.6988,6.717,6.674,6.5692,6.5859,6.5916,6.5608,6.5487,6.5769,6.5703,6.5728,6.5722,6.569,6.5338,6.5376,6.5683,6.4478,6.3506,6.3039,6.1927,6.123,6.0655,5.985,5.9319,5.9243,5.8815,5.8635,5.9613,5.9849,5.9945,6.0533,6.0667,6.0654,6.0654,6.0673,6.0679,6.0705,6.0743,6.082,6.1019,6.1262,6.0917,6.0776,6.1146,6.1439,6.209,6.3639,6.4638,6.5733,6.7194,6.8181,6.9152,6.9968,7.0029,7.0029,7.0105,6.9799,9.371,9.3557,9.1979,9.1479,9.1325,8.9748,8.8632,8.7594,8.6632,8.6209,8.6132,8.6094,8.6094,8.6094,8.6209,8.617,8.6094,8.617,8.6201,8.6107,8.6069,8.606,8.6052,8.6031,8.5932,8.5746,8.5143,8.4721,8.4415,8.3813,8.3379,8.3276,8.2539,8.2134,8.2117,8.1321,8.089,8.0652,7.9897,7.9432,7.9402,7.8667,7.8137,7.8068,7.7991,7.7577,7.6655,7.5671,7.4228,7.2279,7.1187,7.0738,7.0573,6.9892,6.94,6.9498,6.8768,6.8048,6.7529,6.8033,6.7588,6.587,6.6508,6.6781,6.5639,6.5822,6.604,6.5955,6.5919,6.5907,6.5792,6.5374,6.5285,6.5647,6.4898,6.4051,6.3295,6.2496,6.2119,6.2349,6.1646,6.0802,6.1198,6.0501,6.0335,6.0333,6.039,6.0408,6.0707,6.0752,6.0769,6.0763,6.0746,6.1009,6.1074,6.1227,6.1381,6.1977,6.2183,6.2004,6.1467,6.1761,6.2227,6.2834,6.3639,6.4416,6.5645,6.7446,6.8441,6.9137,6.961,6.9701,6.9807,6.9922,6.9914,9.4066,9.445,9.2864,9.2479,9.2787,9.1248,9.0017,8.9086,8.7671,8.6748,8.6247,8.6094,8.617,8.6094,8.6094,8.6094,8.6094,8.6094,8.6094,8.6094,8.6094,8.6094,8.6094,8.6069,8.6043,8.5971,8.568,8.5309,8.4686,8.4412,8.427,8.4214,8.3426,8.2957,8.2863,8.2152,8.1414,8.0805,8.0108,7.9789,7.9678,7.916,7.8415,7.7829,7.7855,7.7403,7.6527,7.5216,7.3783,7.2309,7.1512,7.1157,7.1053,7.0426,7.0238,7.0586,7.0108,6.9585,6.9387,6.9508,6.9013,6.7976,6.7644,6.7342,6.6954,6.6441,6.6299,6.6174,6.6212,6.6199,6.6165,6.5962,6.5945,6.587,6.5205,6.452,6.4148,6.3457,6.2809,6.2393,6.2002,6.1496,6.076,6.0331,6.0068,6.0054,6.0181,6.0181,6.0698,6.0935,6.1012,6.0858,6.089,6.1243,6.1512,6.1704,6.2121,6.2879,6.3289,6.3552,6.3021,6.2766,6.329,6.3857,6.4952,6.5859,6.7266,6.8908,6.9253,6.9421,6.9779,7.0137,6.9816,6.9769,6.9769,9.3287,9.3326,9.2364,9.221,9.2479,9.121,9.0355,8.9739,8.8556,8.7478,8.6863,8.7055,8.6786,8.617,8.6478,8.644,8.6132,8.6094,8.6094,8.6094,8.6094,8.6094,8.6094,8.6094,8.6094,8.6085,8.6082,8.5787,8.5395,8.5237,8.5258,8.5066,8.4366,8.379,8.3376,8.2992,8.2152,8.1285,8.0926,8.0886,8.0597,8.0272,7.9393,7.8554,7.8205,7.7719,7.6539,7.5342,7.4006,7.2671,7.1789,7.1405,7.137,7.1003,7.1019,7.1481,7.1019,7.0626,7.0363,7.0479,7.0009,6.8928,6.8478,6.8401,6.7817,6.7227,6.6948,6.6858,6.6551,6.6314,6.6272,6.6272,6.6267,6.613,6.5664,6.5242,6.5165,6.4737,6.4243,6.3788,6.3326,6.2858,6.1666,6.1314,6.0935,6.0858,6.1237,6.1044,6.0935,6.1166,6.1441,6.1556,6.1633,6.2056,6.248,6.2704,6.3018,6.3737,6.4275,6.4628,6.4186,6.37,6.3867,6.4551,6.601,6.7219,6.8174,6.9143,6.9773,6.9996,7.0332,7.0361,7.0055,6.9886,6.9878,9.2056,9.1325,9.1325,9.1402,9.1479,9.0586,9.0432,9.0047,8.9248,8.8325,8.7786,8.8333,8.7632,8.6286,8.6978,8.6901,8.6094,8.6094,8.6094,8.6094,8.6094,8.6118,8.616,8.6118,8.6094,8.6094,8.6094,8.6047,8.5915,8.6,8.608,8.5889,8.532,8.4658,8.4126,8.3833,8.2979,8.2013,8.2148,8.2189,8.1819,8.1549,8.0851,7.9836,7.8902,7.812,7.6894,7.5862,7.4784,7.3142,7.2197,7.1835,7.175,7.1664,7.1551,7.157,7.1506,7.1191,7.0703,7.1121,7.0749,6.9286,6.9845,6.9845,6.8678,6.821,6.7909,6.7561,6.6913,6.6637,6.6396,6.6369,6.6351,6.6326,6.6279,6.6142,6.603,6.5921,6.5897,6.5865,6.5128,6.482,6.4436,6.3935,6.3083,6.2012,6.2358,6.2551,6.2474,6.2781,6.2941,6.298,6.3018,6.3018,6.3397,6.3782,6.4166,6.4622,6.5128,6.5359,6.4936,6.4538,6.4385,6.4949,6.623,6.7095,6.7651,6.8622,6.97,7.0308,7.0463,7.0463,7.0401,7.0301,7.0255,9.2402,9.221,9.2249,9.2595,9.2979,9.2287,9.1902,9.171,9.0248,8.9205,8.8611,8.8649,8.8128,8.7127,8.7314,8.6901,8.6266,8.6151,8.6094,8.6094,8.6094,8.6223,8.629,8.6192,8.6126,8.6135,8.611,8.611,8.6118,8.616,8.6161,8.6261,8.6103,8.5739,8.5124,8.488,8.4255,8.2946,8.2898,8.2933,8.2727,8.246,8.2068,8.1329,7.9654,7.8139,7.7092,7.6174,7.5551,7.4874,7.3768,7.2856,7.2702,7.2199,7.1885,7.1844,7.1852,7.1778,7.1665,7.1694,7.1712,7.1056,7.067,7.0483,7.021,6.9387,6.8757,6.8197,6.7807,6.7438,6.6964,6.6639,6.6605,6.6621,6.6439,6.6307,6.6196,6.6094,6.6019,6.5881,6.5698,6.5365,6.4749,6.4596,6.3974,6.3358,6.3551,6.4045,6.4166,6.4282,6.448,6.4519,6.4596,6.4673,6.4865,6.5051,6.5051,6.5282,6.5705,6.5865,6.5436,6.5282,6.5128,6.5551,6.6397,6.7032,6.7467,6.8478,6.9589,7.0045,7.04,7.0286,7.021,7.0341,7.0509,9.1864,9.1902,9.1902,9.2133,9.2441,9.2056,9.1864,9.1745,9.1088,9.0188,8.9617,8.9567,8.9103,8.8259,8.7859,8.7402,8.7008,8.6583,8.6435,8.6442,8.6442,8.6475,8.655,8.6481,8.6428,8.6428,8.6442,8.6428,8.6428,8.6421,8.6526,8.6547,8.6603,8.6112,8.5612,8.552,8.4581,8.3345,8.3109,8.31,8.2774,8.3323,8.3191,8.2489,8.042,7.8624,7.7762,7.6905,7.6516,7.6008,7.4798,7.3664,7.3196,7.2495,7.2065,7.1987,7.1987,7.1987,7.1987,7.1987,7.1984,7.1987,7.1519,7.1402,7.1128,7.0504,6.9918,6.9331,6.894,6.8472,6.8044,6.7515,6.7366,6.72,6.6814,6.6524,6.6413,6.6279,6.6181,6.6088,6.6014,6.5771,6.5456,6.5166,6.4768,6.4152,6.5173,6.559,6.4859,6.5051,6.5942,6.6173,6.625,6.6365,6.6481,6.6365,6.5897,6.5981,6.6019,6.6019,6.5705,6.5743,6.5782,6.6173,6.6481,6.6981,6.7493,6.8498,6.9253,6.9662,6.9903,6.9868,6.9947,7.0178,7.0348,9.1333,9.1333,9.1295,9.1372,9.1449,9.1427,9.149,9.1599,9.1395,9.081,9.0385,9.0436,8.9593,8.8991,8.8266,8.7982,8.7627,8.7189,8.6715,8.6715,8.6715,8.6767,8.6807,8.6817,8.6836,8.6868,8.6772,8.6752,8.6747,8.6792,8.6752,8.6822,8.6836,8.6575,8.5957,8.5763,8.5144,8.3804,8.3585,8.3267,8.278,8.3617,8.3541,8.2489,8.1122,7.9326,7.8429,7.7649,7.7218,7.7023,7.5579,7.4486,7.3627,7.2573,7.1987,7.1987,7.1987,7.1987,7.1987,7.1987,7.1987,7.1987,7.1987,7.1948,7.1753,7.1324,7.0816,7.0346,6.984,6.9176,6.9137,6.8389,6.7961,6.7727,6.7144,6.681,6.6629,6.6447,6.639,6.6267,6.6194,6.6008,6.5972,6.5787,6.54,6.5254,6.6314,6.6827,6.6051,6.6013,6.6936,6.7667,6.7782,6.7821,6.7936,6.7282,6.6859,6.6404,6.6365,6.6096,6.5904,6.5904,6.5904,6.6019,6.6327,6.6782,6.7321,6.8109,6.8756,6.9231,6.9787,7.0085,7.0126,7.0052,7.0299,9.1793,9.1793,9.1793,9.2136,9.2596,9.2059,9.2073,9.2491,9.1234,9.0686,9.0464,8.9836,8.9105,8.8439,8.8113,8.7647,8.7195,8.6937,8.6841,8.6841,8.685,8.6899,8.7043,8.7057,8.7108,8.7175,8.7035,8.6845,8.6831,8.6797,8.696,8.7035,8.7054,8.6907,8.6974,8.6972,8.6017,8.4672,8.4288,8.3838,8.338,8.3035,8.2762,8.1981,8.1239,8.0185,7.8859,7.8313,7.7884,7.7101,7.6127,7.558,7.4837,7.3236,7.23,7.2104,7.2026,7.1987,7.1987,7.1987,7.1987,7.1987,7.1987,7.1987,7.1948,7.1831,7.1402,7.0777,7.0074,6.9255,6.8394,6.8472,6.7849,6.7342,6.7068,6.6869,6.6853,6.6711,6.6571,6.641,6.6326,6.6263,6.6248,6.6157,6.5835,6.5804,6.6501,6.7006,6.6673,6.709,6.809,6.8783,6.9321,6.9321,6.936,6.8359,6.759,6.6782,6.6481,6.6019,6.5904,6.5904,6.5942,6.6019,6.6096,6.6359,6.7013,6.7667,6.843,6.9045,6.9731,7.0371,7.0459,7.0469,7.0654,9.1871,9.1871,9.1871,9.2104,9.2293,9.1599,9.1444,9.1615,9.0581,9.0081,8.9873,8.9309,8.9083,8.8774,8.7952,8.7449,8.7209,8.7137,8.7098,8.7098,8.7105,8.7124,8.7258,8.726,8.7328,8.7338,8.7192,8.7088,8.7098,8.7105,8.7163,8.7206,8.7263,8.7291,8.7241,8.6854,8.6353,8.5416,8.4675,8.4011,8.3543,8.3035,8.2645,8.2411,8.2137,8.1397,8.0031,7.9209,7.8663,7.7726,7.6517,7.5971,7.5346,7.4408,7.308,7.2729,7.23,7.1987,7.1987,7.1987,7.1987,7.1987,7.2026,7.1987,7.1987,7.1948,7.1792,7.1402,7.1167,7.0582,7.027,6.9644,6.9255,6.8786,6.8044,6.7537,6.7381,6.7107,6.6867,6.6665,6.6585,6.6546,6.6442,6.6349,6.6203,6.6433,6.683,6.6948,6.7032,6.759,6.8334,6.8629,6.8936,6.9045,6.8936,6.8244,6.7782,6.7167,6.6519,6.6058,6.5904,6.5904,6.5904,6.5904,6.6013,6.6282,6.6282,6.6821,6.7821,6.8744,6.9007,6.9468,7.0391,7.0923,7.1217,9.1922,9.1805,9.1961,9.2039,9.1883,9.1299,9.1036,9.0825,9.0082,8.9739,8.9559,8.885,8.8765,8.8927,8.8181,8.7401,8.7406,8.7399,8.7354,8.735,8.735,8.7401,8.7404,8.7406,8.7404,8.7401,8.7356,8.7406,8.7347,8.7347,8.7399,8.7397,8.7402,8.7406,8.725,8.6898,8.6392,8.569,8.487,8.4011,8.3582,8.3504,8.3386,8.3269,8.323,8.2411,8.089,7.999,7.917,7.8157,7.7064,7.6088,7.5932,7.5229,7.4486,7.3783,7.2846,7.23,7.1987,7.1987,7.2104,7.2378,7.23,7.2339,7.2495,7.2573,7.2221,7.2065,7.1909,7.1675,7.1206,7.101,7.0541,6.9996,6.902,6.8316,6.82,6.7966,6.7537,6.7303,6.7005,6.6824,6.6763,6.6537,6.6379,6.6349,6.6691,6.6613,6.6709,6.7058,6.7568,6.7853,6.809,6.8199,6.8013,6.7513,6.7282,6.7167,6.6519,6.5942,6.5904,6.5904,6.5942,6.6096,6.6327,6.6481,6.6205,6.6513,6.8013,6.8821,6.8359,6.9167,7.1206,7.1975,7.2115,9.2024,9.1436,9.2139,9.2416,9.2368,9.2169,9.2175,9.1861,9.0387,8.9971,8.9608,8.8336,8.7718,8.7757,8.7679,8.7406,8.7406,8.7406,8.7406,8.7406,8.7406,8.7406,8.7406,8.7406,8.7406,8.7406,8.7406,8.7406,8.7523,8.7562,8.7406,8.7406,8.7484,8.7406,8.7367,8.7172,8.6861,8.6197,8.5807,8.4948,8.3739,8.3465,8.3074,8.2684,8.2489,8.2176,8.12,8.0341,7.9444,7.8507,7.7493,7.6945,7.6828,7.6127,7.5697,7.5073,7.4134,7.2846,7.226,7.2143,7.2417,7.2885,7.3079,7.3508,7.3471,7.3235,7.2728,7.2026,7.1987,7.1753,7.1324,7.0893,7.0346,7.0035,6.9606,6.9255,6.9176,6.8708,6.8318,6.8121,6.7897,6.7436,6.72,6.6869,6.6566,6.6519,6.6486,6.6485,6.6476,6.6785,6.7166,6.747,6.7648,6.7782,6.7898,6.7282,6.7173,6.7205,6.6859,6.632,6.6628,6.6782,6.6327,6.6481,6.675,6.7135,6.7282,6.7898,6.8859,6.9475,6.9783,7.1129,7.2899,7.3168,7.3053,9.1428,9.2014,9.2365,9.2248,9.178,9.1311,9.0806,9.014,8.9086,8.854,8.8421,8.7796,8.7406,8.7406,8.7406,8.7406,8.7406,8.7406,8.7406,8.7406,8.7406,8.7406,8.7406,8.7406,8.7406,8.7484,8.7484,8.7796,8.7952,8.8069,8.7952,8.7523,8.7835,8.7835,8.7445,8.7406,8.7211,8.6664,8.5885,8.4753,8.3738,8.3074,8.2684,8.237,8.2723,8.2411,8.1708,8.0888,8.0029,7.9053,7.7921,7.7101,7.7023,7.6711,7.6361,7.5736,7.519,7.4134,7.3002,7.2806,7.3002,7.3315,7.3664,7.39,7.3861,7.3547,7.2962,7.2065,7.1987,7.1753,7.1519,7.1441,7.1245,7.0855,7.0309,7.0191,6.9996,6.9489,6.9098,6.8942,6.8786,6.8357,6.7889,6.7356,6.7225,6.7333,6.7172,6.697,6.6734,6.6622,6.6972,6.7321,6.7414,6.7475,6.7667,6.7552,6.7552,6.7628,6.7975,6.7667,6.8013,6.7975,6.7552,6.7475,6.7936,6.8244,6.8436,6.8859,6.9475,7.0475,7.1559,7.2552,7.3514,7.4046,7.4084,9.0727,9.186,9.186,9.1546,9.096,9.0259,8.9711,8.9008,8.8226,8.7796,8.764,8.7523,8.7406,8.7406,8.7406,8.7406,8.7406,8.7406,8.7562,8.7601,8.7523,8.7562,8.764,8.764,8.7562,8.7718,8.7835,8.8265,8.8891,8.9125,8.8928,8.7796,8.7952,8.7913,8.7562,8.7406,8.7328,8.7211,8.6274,8.5142,8.4011,8.3347,8.2801,8.2645,8.2762,8.2918,8.2292,8.1435,8.0537,7.9561,7.8311,7.7453,7.714,7.6984,7.675,7.6244,7.5814,7.5151,7.4251,7.3822,7.3744,7.4095,7.4486,7.4876,7.3822,7.3586,7.3274,7.2495,7.2065,7.2026,7.1987,7.1948,7.1831,7.1597,7.1324,7.1167,7.0932,7.0504,7.0074,6.9801,6.9645,6.945,6.8865,6.8085,6.7904,6.8095,6.794,6.7592,6.7411,6.7217,6.7565,6.8128,6.8635,6.8619,6.8416,6.8391,6.8276,6.8321,6.866,6.8853,6.9122,6.9199,6.8936,6.9045,6.9122,6.9167,6.9206,6.959,7.0052,7.1129,7.2168,7.2899,7.3707,7.4322,7.4738,9.0064,9.0181,9.0181,9.0142,9.0064,9.0025,8.9947,8.9477,8.8813,8.846,8.8265,8.7796,8.7406,8.7406,8.7406,8.7406,8.7406,8.7406,8.7757,8.7952,8.7913,8.7835,8.7913,8.7874,8.7874,8.8421,8.8579,8.9125,8.9828,9.0296,8.975,8.8852,8.8501,8.7796,8.7406,8.7406,8.7406,8.7328,8.682,8.6039,8.5064,8.4322,8.3697,8.2606,8.2411,8.2331,8.2253,8.1474,8.0732,7.9873,7.8897,7.8272,7.7882,7.7453,7.7218,7.7179,7.64,7.5932,7.558,7.4954,7.4917,7.558,7.6047,7.5852,7.4408,7.4369,7.4017,7.3235,7.269,7.2378,7.2221,7.2026,7.2221,7.2104,7.1948,7.1675,7.1597,7.1636,7.1206,7.0776,7.0502,7.0387,7.0232,6.9529,6.9059,6.9222,6.9178,6.888,6.8897,6.8793,6.8959,6.9424,7.0254,7.034,6.9883,6.982,7.0002,6.9945,7.0014,7.0052,7.0052,7.0052,6.9937,7.0014,6.9975,6.9975,7.0052,7.0321,7.086,7.186,7.2822,7.3745,7.4245,7.47,7.4892,8.8382,8.8421,8.8421,8.8735,8.9203,8.9203,8.8891,8.8421,8.803,8.7913,8.7913,8.7562,8.7406,8.7406,8.7406,8.7406,8.7406,8.7406,8.7679,8.7718,8.764,8.764,8.7835,8.8187,8.8421,8.8813,8.9242,9.0296,9.1469,9.1194,9.1116,9.0452,8.9516,8.8343,8.7835,8.7445,8.7406,8.725,8.6937,8.6158,8.569,8.4441,8.3699,8.3152,8.2411,8.2331,8.2176,8.1435,8.0888,8.0381,7.9639,7.9287,7.8936,7.8311,7.8116,7.8311,7.7375,7.7025,7.7064,7.6244,7.5736,7.6399,7.6789,7.6399,7.4837,7.4956,7.4447,7.3822,7.3432,7.3197,7.3432,7.308,7.2845,7.2651,7.2495,7.226,7.2104,7.2182,7.1948,7.1363,7.1363,7.1402,7.1245,7.105,7.0621,7.0304,7.0265,7.018,7.0173,7.0167,7.023,7.0515,7.126,7.1392,7.0932,7.1302,7.18,7.1589,7.1355,7.1226,7.1079,7.0667,7.0591,7.0706,7.0821,7.0898,7.0975,7.1091,7.1552,7.2283,7.3514,7.4822,7.513,7.5238,7.5315,8.7406,8.7406,8.7406,8.7718,8.8304,8.8304,8.7952,8.7484,8.7445,8.7406,8.7406,8.7406,8.7406,8.7406,8.7406,8.7406,8.7406,8.7445,8.7601,8.764,8.764,8.7601,8.7913,8.8343,8.8774,8.9203,9.0298,9.1586,9.2678,9.1663,9.1702,9.1742,9.1079,8.9516,8.8148,8.7484,8.7406,8.7211,8.6898,8.6275,8.5963,8.4792,8.3738,8.3426,8.2723,8.2331,8.2215,8.1747,8.1317,8.0888,8.0459,8.0302,7.9912,7.9523,7.9053,7.8975,7.8819,7.8311,7.8469,7.7766,7.6634,7.6556,7.6945,7.6242,7.5541,7.5424,7.4995,7.4017,7.4017,7.4134,7.4056,7.3235,7.3118,7.3002,7.3315,7.3158,7.2729,7.2612,7.23,7.1909,7.1948,7.187,7.1792,7.1597,7.1519,7.1206,7.1127,7.1087,7.1114,7.1164,7.1261,7.164,7.2195,7.2081,7.1874,7.2328,7.2728,7.2705,7.2469,7.2295,7.2082,7.1625,7.1091,7.0975,7.1168,7.1629,7.1975,7.2245,7.236,7.2469,7.3745,7.4976,7.5938,7.6053,7.6092,8.7406,8.7406,8.7406,8.7445,8.7523,8.7445,8.7445,8.7406,8.7406,8.7406,8.7406,8.7406,8.7406,8.7406,8.7406,8.7406,8.7406,8.7445,8.7679,8.803,8.7679,8.7874,8.8421,8.8891,8.9516,9.0259,9.1586,9.2951,9.3654,9.3224,9.3068,9.2443,9.1585,9.0218,8.8696,8.7796,8.7406,8.7406,8.7289,8.6861,8.6236,8.5299,8.448,8.3699,8.3113,8.2799,8.2489,8.2606,8.2215,8.1552,8.1356,8.1083,8.0654,7.9523,7.9326,8.0106,7.9832,7.999,8.0615,7.9172,7.7766,7.6517,7.6828,7.6555,7.5971,7.5775,7.558,7.4642,7.433,7.3549,7.308,7.3001,7.3469,7.3666,7.3978,7.3783,7.3354,7.2962,7.2651,7.269,7.2339,7.2026,7.2026,7.2026,7.2143,7.2065,7.1987,7.1987,7.2025,7.1861,7.1884,7.2334,7.2754,7.2687,7.2627,7.3297,7.3659,7.365,7.3228,7.2629,7.2559,7.237,7.1887,7.1444,7.1975,7.2822,7.3206,7.3514,7.3707,7.3937,7.3822,7.4784,7.5938,7.6861,7.6976,8.7406,8.7406,8.7406,8.7406,8.7406,8.7406,8.7406,8.7406,8.7406,8.7406,8.7406,8.7406,8.7406,8.7406,8.7406,8.7406,8.7406,8.7406,8.7718,8.7757,8.7562,8.7991,8.8696,8.975,9.0492,9.1389,9.2873,9.381,9.3771,9.3888,9.3771,9.3146,9.1858,9.0374,8.8891,8.7874,8.7406,8.7406,8.7367,8.7211,8.69,8.608,8.5221,8.4362,8.4009,8.358,8.3191,8.3465,8.3308,8.2684,8.2567,8.2567,8.2254,8.1278,8.1005,8.1864,8.1903,8.0654,8.0732,7.9756,7.8507,7.7414,7.6867,7.6789,7.601,7.64,7.6047,7.5735,7.554,7.5227,7.5696,7.511,7.511,7.4759,7.4721,7.4173,7.3705,7.3391,7.3196,7.3471,7.3393,7.308,7.2963,7.3119,7.3197,7.3082,7.3041,7.2846,7.2806,7.2339,7.2135,7.272,7.3128,7.3124,7.3306,7.372,7.3939,7.3872,7.3018,7.202,7.2146,7.2919,7.2979,7.272,7.3367,7.4053,7.4707,7.5245,7.5438,7.5553,7.5822,7.5899,7.6861,7.7669,7.7984,8.7406,8.7406,8.7406,8.7406,8.7406,8.7406,8.7406,8.7406,8.7406,8.7406,8.7406,8.7406,8.7406,8.7406,8.7406,8.7406,8.7406,8.7406,8.7406,8.7445,8.7796,8.8226,8.9125,9.0413,9.1233,9.2248,9.3654,9.4747,9.4356,9.4278,9.3849,9.3029,9.2014,9.0882,8.9594,8.8733,8.7913,8.7874,8.7718,8.7367,8.7054,8.6549,8.5807,8.5299,8.4907,8.4478,8.4244,8.4322,8.4556,8.4128,8.405,8.4206,8.3972,8.323,8.2606,8.3152,8.3426,8.2176,8.1864,8.1591,8.0107,7.7843,7.7609,7.7298,7.6868,7.7298,7.722,7.7064,7.7062,7.6789,7.6633,7.6088,7.6166,7.5814,7.554,7.5032,7.4915,7.4642,7.4095,7.4369,7.4251,7.4017,7.4017,7.4251,7.4447,7.4253,7.4097,7.39,7.3703,7.3158,7.2846,7.3354,7.3703,7.3754,7.3772,7.3835,7.399,7.4067,7.3372,7.2512,7.301,7.3946,7.3973,7.412,7.4735,7.5498,7.6522,7.7092,7.7438,7.7938,7.8515,7.8477,7.8246,7.8477,7.8907,8.7406,8.7406,8.7406,8.7406,8.7406,8.7406,8.7406,8.7406,8.7406,8.7406,8.7406,8.7406,8.7406,8.7406,8.7406,8.7406,8.7406,8.7406,8.7523,8.7718,8.8226,8.8657,8.9477,9.0687,9.1663,9.2795,9.3966,9.4825,9.4942,9.4395,9.3615,9.2912,9.2053,9.1507,9.0843,8.9945,8.8969,8.8421,8.7757,8.7484,8.7211,8.6705,8.6236,8.5846,8.5493,8.522,8.5024,8.5103,8.5064,8.4907,8.487,8.4868,8.4361,8.3268,8.3191,8.3504,8.4284,8.3894,8.323,8.2879,8.163,7.9326,7.8586,7.8469,7.8118,7.7923,7.7923,7.7766,7.7649,7.6908,7.6322,7.6712,7.7062,7.6867,7.6672,7.6555,7.6555,7.6125,7.5345,7.5071,7.4798,7.4759,7.5151,7.5385,7.5385,7.5541,7.5424,7.5501,7.5149,7.4251,7.4017,7.4251,7.4486,7.4447,7.4436,7.4423,7.4441,7.467,7.4619,7.4098,7.462,7.5139,7.5618,7.5947,7.6181,7.6866,7.7876,7.8784,7.9592,8.0054,7.9939,7.99,7.9361,7.9515,7.9939,8.7406,8.7406,8.7406,8.7406,8.7406,8.7406,8.7406,8.7406,8.7406,8.7406,8.7406,8.7406,8.7406,8.7406,8.7406,8.7406,8.7406,8.7484,8.7874,8.8265,8.8735,8.9555,9.0492,9.1507,9.2209,9.2992,9.3929,9.4473,9.3537,9.3341,9.3693,9.3302,9.2404,9.2443,9.2131,9.135,9.0062,8.8891,8.803,8.7562,8.7406,8.7054,8.6664,8.6275,8.643,8.6157,8.5885,8.6235,8.6196,8.5807,8.5729,8.5729,8.5612,8.4714,8.4323,8.4361,8.4595,8.4361,8.3504,8.2411,8.1435,8.081,8.0029,7.8546,7.8116,7.8118,7.8508,7.8664,7.8508,7.8001,7.7766,7.8001,7.796,7.7609,7.7335,7.7023,7.6984,7.6633,7.593,7.5969,7.5696,7.5658,7.6088,7.6088,7.6127,7.6478,7.6712,7.6751,7.6555,7.5657,7.554,7.5774,7.5696,7.5774,7.5345,7.5218,7.5176,7.52,7.5391,7.5725,7.6161,7.67,7.7356,7.7788,7.8046,7.856,7.9223,7.9831,7.9823,8.0323,8.0323,8.0477,8.0554,8.0516,8.0554,8.7406,8.7406,8.7406,8.7406,8.7406,8.7406,8.7406,8.7406,8.7406,8.7406,8.7406,8.7406,8.7406,8.7406,8.7406,8.7406,8.7445,8.7874,8.8265,8.8579,8.9359,9.0257,9.1311,9.2092,9.2678,9.3302,9.3732,9.4083,9.3029,9.2601,9.2834,9.3068,9.264,9.2873,9.2639,9.1741,9.0843,8.9711,8.8735,8.7874,8.7523,8.7445,8.7015,8.682,8.7211,8.6976,8.6705,8.725,8.7015,8.6664,8.6627,8.6627,8.6471,8.5807,8.5299,8.526,8.4907,8.4636,8.4011,8.3347,8.2528,8.1864,8.1356,8.0302,7.9131,7.8819,7.9483,7.9951,7.9678,7.9445,7.9445,7.9367,7.8819,7.8311,7.7765,7.722,7.6986,7.6751,7.675,7.6867,7.6789,7.6673,7.6712,7.6673,7.6908,7.7376,7.7493,7.7376,7.7337,7.6947,7.7218,7.7687,7.7453,7.7218,7.6711,7.6399,7.6708,7.6897,7.6961,7.7309,7.7724,7.7874,7.8107,7.8966,7.9945,8.0035,7.9736,7.9353,7.9323,7.9939,8.0469,8.0516,8.0631,8.0862,8.0939,8.7406,8.7406,8.7406,8.7484,8.7523,8.7445,8.7406,8.7406,8.7406,8.7406,8.7406,8.7406,8.7406,8.7406,8.7406,8.7406,8.764,8.8108,8.8657,8.8891,9.0257,9.1194,9.1624,9.2131,9.2678,9.338,9.3654,9.3497,9.3419,9.299,9.2562,9.2561,9.2523,9.2717,9.2795,9.2053,9.1311,9.0687,8.9516,8.8501,8.7757,8.7523,8.7406,8.7367,8.7406,8.7328,8.7328,8.7406,8.7406,8.7406,8.7367,8.7289,8.7211,8.69,8.6549,8.608,8.569,8.5103,8.4751,8.4244,8.3307,8.2801,8.2489,8.1747,8.081,8.0107,8.0732,8.0966,8.0772,8.0849,8.0849,8.0966,8.0654,7.999,7.9326,7.8703,7.8233,7.7843,7.7415,7.7414,7.714,7.7062,7.7181,7.7142,7.7025,7.7844,7.7962,7.7688,7.7884,7.7766,7.8079,7.8741,7.8116,7.7726,7.8116,7.796,7.8546,7.8738,7.8421,7.8563,7.8674,7.872,7.8702,7.9325,7.9926,7.9976,7.9773,7.9319,7.923,7.9977,8.04,8.0439,8.0708,8.1208,8.117,8.7406,8.7406,8.7406,8.7757,8.8265,8.7679,8.7406,8.7406,8.7406,8.7406,8.7406,8.7406,8.7406,8.7406,8.7406,8.7406,8.7601,8.8421,8.9086,8.9711,9.0843,9.1507,9.2014,9.2209,9.2601,9.2717,9.2834,9.2912,9.2873,9.2717,9.2795,9.3263,9.2951,9.2678,9.3146,9.2404,9.1858,9.1389,9.0374,8.9281,8.8501,8.7757,8.7406,8.7406,8.7406,8.7406,8.7406,8.7406,8.7406,8.7406,8.7406,8.7718,8.8265,8.811,8.772,8.7172,8.6742,8.6,8.522,8.4946,8.4322,8.3697,8.3347,8.2879,8.2371,8.1942,8.1747,8.1864,8.1981,8.2098,8.2215,8.2332,8.2293,8.1552,8.0849,8.0146,7.9483,7.8858,7.8235,7.7844,7.7492,7.7492,7.7609,7.7609,7.7414,7.7414,7.7375,7.7414,7.8001,7.8157,7.7962,7.8313,7.7804,7.7687,7.8468,7.8897,7.9092,7.8975,7.8504,7.8922,7.9413,7.9186,7.886,7.912,7.9459,7.9559,7.9488,7.911,7.926,8.0146,8.0708,8.09,8.1477,8.2054,8.1631,8.7406,8.7445,8.7835,8.8501,8.9008,8.8343,8.7952,8.7913,8.7601,8.7406,8.7406,8.7406,8.7406,8.7406,8.7406,8.7445,8.7679,8.8774,8.9398,9.014,9.0843,9.1428,9.1858,9.2092,9.1936,9.2014,9.2404,9.2522,9.2484,9.2523,9.2795,9.3146,9.2717,9.2717,9.3185,9.2678,9.2287,9.1819,9.096,9.0101,8.9164,8.8226,8.7484,8.7406,8.7406,8.7406,8.7406,8.7406,8.7406,8.7406,8.7406,8.7874,8.8382,8.854,8.8383,8.7991,8.7484,8.682,8.5883,8.5456,8.5299,8.4712,8.4714,8.4441,8.3855,8.3346,8.2645,8.2723,8.2801,8.2918,8.2723,8.2762,8.245,8.1864,8.1239,8.0615,8.0341,8.0029,7.9405,7.8897,7.8585,7.835,7.8507,7.8624,7.8546,7.8624,7.835,7.7999,7.843,7.8859,7.8586,7.8313,7.8116,7.8233,7.9014,7.917,7.9053,7.8858,7.8469,7.8424,7.857,7.8889,7.9026,7.9283,7.9373,7.9238,7.9091,7.9162,7.9699,8.06,8.1093,8.1477,8.217,8.2862,8.2631,8.7484,8.7679,8.8226,8.9008,8.9633,8.8891,8.8461,8.8343,8.7718,8.7406,8.7406,8.7406,8.7445,8.7562,8.7562,8.7562,8.7913,8.8852,8.9594,9.0179,9.0921,9.1507,9.1702,9.1624,9.1741,9.1936,9.2248,9.2443,9.2484,9.2523,9.2523,9.2484,9.2484,9.2522,9.2484,9.2484,9.2365,9.2131,9.1507,9.0765,8.9672,8.846,8.7796,8.7523,8.7406,8.7406,8.7406,8.7406,8.7406,8.7523,8.764,8.8265,8.8891,8.9281,8.9359,8.9086,8.8811,8.7954,8.7095,8.6939,8.6236,8.5729,8.608,8.5846,8.5142,8.4556,8.3855,8.3426,8.3543,8.3465,8.3269,8.3152,8.2801,8.2371,8.1825,8.1669,8.163,8.1396,8.0771,8.0185,7.9873,7.96,7.96,7.9717,7.9795,7.9912,7.9795,7.9444,7.9326,7.9717,7.9795,7.9561,7.9326,7.9561,7.9366,7.9092,7.8702,7.839,7.7999,7.7804,7.7882,7.8739,7.9305,7.9435,7.9456,7.9611,7.9763,7.9943,8.0543,8.1293,8.1862,8.2485,8.3208,8.3747,8.3785,8.7835,8.8421,8.7913,8.8187,8.8774,8.803,8.764,8.764,8.7523,8.7406,8.7484,8.7484,8.7718,8.8461,8.8461,8.8343,8.8148,8.893,8.9477,9.0062,9.057,9.1428,9.1897,9.1702,9.217,9.2326,9.2365,9.2443,9.2484,9.2484,9.2484,9.2484,9.2484,9.2484,9.2484,9.2484,9.2482,9.2287,9.1819,9.0999,9.014,8.9047,8.8148,8.7718,8.7406,8.7406,8.7406,8.7406,8.7406,8.7601,8.7991,8.8696,8.9281,8.9867,9.0101,9.0101,8.9867,8.9359,8.8736,8.8619,8.7915,8.6703,8.682,8.6469,8.5922,8.5534,8.4753,8.3894,8.3894,8.3816,8.3699,8.3892,8.3658,8.323,8.2723,8.3504,8.3933,8.323,8.245,8.2059,8.1786,8.1513,8.1278,8.1356,8.1317,8.1356,8.1278,8.1005,8.1161,8.1161,8.1044,8.0693,8.0459,7.9014,7.8077,7.8272,7.8038,7.7765,7.7882,7.8311,7.8741,7.9248,7.969,8.028,8.0435,8.0594,8.0689,8.1085,8.1552,8.2278,8.2917,8.3524,8.4247,8.4632,8.4632]}]]